[[{"header":{"parameterUnit":"m.s-1","parameterCategory":1,"la1":30.6,"la2":28.766,"lo1":-90.7593,"lo2":-88.6598,"dy":0.0162,"dx":0.0183,"nx":116,"ny":114,"refTime":"2023-03-08T18:00:00:Z","depth":0,"parameterNumber":2,"parameterNumberName":"U-component_of_WINDS"},"data":[0.0,0.0,0.0,0.0,0.0,0.0,0.0,0.0,0.0,0.0,0.0,0.0,0.0,0.0,0.0,0.0,0.0,0.0,0.0,0.0,0.0,0.0,0.0,0.0,0.0,0.0,0.0,0.0,0.0,0.0,0.0,0.0,0.0,0.0,0.0,0.0,0.0,0.0,0.0,0.0,0.0,0.0,0.0,0.0,0.0,0.0,0.0,0.0,0.0,0.0,0.0,0.0,0.0,0.0,0.0,0.0,0.0,0.0,0.0,0.0,0.0,0.0,0.0,0.0,0.0,0.0,0.0,0.0,0.0,0.0,0.0,0.0,0.0,0.0,0.0,0.0,0.0,0.0,0.0,0.0,0.0,0.0,0.0,0.0,0.0,0.0,0.0,0.0,0.0,0.0,0.0,0.0,0.0,0.0,0.0,0.0,0.0,0.0,0.0,0.0,0.0,0.0,0.0,0.0,0.0,0.0,0.0,0.0,0.0,0.0,0.0,0.0,0.0,0.0,0.0,0.0,0.0,0.0,0.0,0.0,0.0,0.0,0.0,0.0,0.0,0.0,0.0,0.0,0.0,0.0,0.0,0.0,0.0,0.0,0.0,0.0,0.0,0.0,0.0,0.0,0.0,0.0,0.0,0.0,0.0,0.0,0.0,0.0,0.0,0.0,0.0,0.0,0.0,0.0,0.0,0.0,0.0,0.0,0.0,0.0,0.0,0.0,0.0,0.0,0.0,0.0,0.0,0.0,0.0,0.0,0.0,0.0,0.0,0.0,0.0,0.0,0.0,0.0,0.0,0.0,0.0,0.0,0.0,0.0,0.0,0.0,0.0,0.0,0.0,0.0,0.0,0.0,0.0,0.0,0.0,0.0,0.0,0.0,0.0,0.0,0.0,0.0,0.0,0.0,0.0,0.0,0.0,0.0,0.0,0.0,0.0,0.0,0.0,0.0,0.0,0.0,0.0,0.0,0.0,0.0,0.0,0.0,0.0,0.0,0.0,0.0,0.0,0.0,0.0,0.0,0.0,0.0,0.0,0.0,0.0,0.0,0.0,0.0,0.0,0.0,0.0,0.0,0.0,0.0,0.0,0.0,0.0,0.0,0.0,0.0,0.0,0.0,0.0,0.0,0.0,0.0,0.0,0.0,0.0,0.0,0.0,0.0,0.0,0.0,0.0,0.0,0.0,0.0,0.0,0.0,0.0,0.0,0.0,0.0,0.0,0.0,0.0,0.0,0.0,0.0,0.0,0.0,0.0,0.0,0.0,0.0,0.0,0.0,0.0,0.0,0.0,0.0,0.0,0.0,0.0,0.0,0.0,0.0,0.0,0.0,0.0,0.0,0.0,0.0,0.0,0.0,0.0,0.0,0.0,0.0,0.0,0.0,0.0,0.0,0.0,0.0,0.0,0.0,0.0,0.0,0.0,0.0,0.0,0.0,0.0,0.0,0.0,0.0,0.0,0.0,0.0,0.0,0.0,0.0,0.0,0.0,0.0,0.0,0.0,0.0,0.0,0.0,0.0,0.0,0.0,0.0,0.0,0.0,0.0,0.0,0.0,0.0,0.0,0.0,0.0,0.0,0.0,0.0,0.0,0.0,0.0,0.0,0.0,0.0,0.0,0.0,0.0,0.0,0.0,0.0,0.0,0.0,0.0,0.0,0.0,0.0,0.0,0.0,0.0,0.0,0.0,0.0,0.0,0.0,0.0,0.0,0.0,0.0,0.0,0.0,0.0,0.0,0.0,0.0,0.0,0.0,0.0,0.0,0.0,0.0,0.0,0.0,0.0,0.0,0.0,0.0,0.0,0.0,0.0,0.0,0.0,0.0,0.0,0.0,0.0,0.0,0.0,0.0,0.0,0.0,0.0,0.0,0.0,0.0,0.0,0.0,0.0,0.0,0.0,0.0,0.0,0.0,0.0,0.0,0.0,0.0,0.0,0.0,0.0,0.0,0.0,0.0,0.0,0.0,0.0,0.0,0.0,0.0,0.0,0.0,0.0,0.0,0.0,0.0,0.0,0.0,0.0,0.0,0.0,0.0,0.0,0.0,0.0,0.0,0.0,0.0,0.0,0.0,0.0,0.0,0.0,0.0,0.0,0.0,0.0,0.0,0.0,0.0,0.0,0.0,0.0,0.0,0.0,0.0,0.0,0.0,0.0,0.0,0.0,0.0,0.0,0.0,0.0,0.0,0.0,0.0,0.0,0.0,0.0,0.0,0.0,0.0,0.0,0.0,0.0,0.0,0.0,0.0,0.0,0.0,0.0,0.0,0.0,0.0,0.0,0.0,0.0,0.0,0.0,0.0,0.0,0.0,0.0,0.0,0.0,0.0,0.0,0.0,0.0,0.0,0.0,0.0,0.0,0.0,0.0,0.0,0.0,0.0,0.0,0.0,0.0,0.0,0.0,0.0,0.0,0.0,0.0,0.0,0.0,0.0,0.0,0.0,0.0,0.0,0.0,0.0,0.0,0.0,0.0,0.0,0.0,0.0,0.0,0.0,0.0,0.0,0.0,0.0,0.0,0.0,0.0,0.0,0.0,0.0,0.0,0.0,0.0,0.0,0.0,0.0,0.0,0.0,0.0,0.0,0.0,0.0,0.0,0.0,0.0,0.0,0.0,0.0,0.0,0.0,0.0,0.0,0.0,0.0,0.0,0.0,0.0,0.0,0.0,0.0,0.0,0.0,0.0,0.0,0.0,0.0,0.0,0.0,0.0,0.0,0.0,0.0,0.0,0.0,0.0,0.0,0.0,0.0,0.0,0.0,0.0,0.0,0.0,0.0,0.0,0.0,0.0,0.0,0.0,0.0,0.0,0.0,0.0,0.0,0.0,0.0,0.0,0.0,0.0,0.0,0.0,0.0,0.0,0.0,0.0,0.0,0.0,0.0,0.0,0.0,0.0,0.0,0.0,0.0,0.0,0.0,0.0,0.0,0.0,0.0,0.0,0.0,0.0,0.0,0.0,0.0,0.0,0.0,0.0,0.0,0.0,0.0,0.0,0.0,0.0,0.0,0.0,0.0,0.0,0.0,0.0,0.0,0.0,0.0,0.0,0.0,0.0,0.0,0.0,0.0,0.0,0.0,0.0,0.0,0.0,0.0,0.0,0.0,0.0,0.0,0.0,0.0,0.0,0.0,0.0,0.0,0.0,0.0,0.0,0.0,0.0,0.0,0.0,0.0,0.0,0.0,0.0,0.0,0.0,0.0,0.0,0.0,0.0,0.0,0.0,0.0,0.0,0.0,0.0,0.0,0.0,0.0,0.0,0.0,0.0,0.0,0.0,0.0,0.0,0.0,0.0,0.0,0.0,0.0,0.0,0.0,0.0,0.0,0.0,0.0,0.0,0.0,0.0,0.0,0.0,0.0,0.0,0.0,0.0,0.0,0.0,0.0,0.0,0.0,0.0,0.0,0.0,0.0,0.0,0.0,0.0,0.0,0.0,0.0,0.0,0.0,0.0,0.0,0.0,0.0,0.0,0.0,0.0,0.0,0.0,0.0,0.0,0.0,0.0,0.0,0.0,0.0,0.0,0.0,0.0,0.0,0.0,0.0,0.0,0.0,0.0,0.0,0.0,0.0,0.0,0.0,0.0,0.0,0.0,0.0,0.0,0.0,0.0,0.0,0.0,0.0,0.0,0.0,0.0,0.0,0.0,0.0,0.0,0.0,0.0,0.0,0.0,0.0,0.0,0.0,0.0,0.0,0.0,0.0,0.0,0.0,0.0,0.0,0.0,0.0,0.0,0.0,0.0,0.0,0.0,0.0,0.0,0.0,0.0,0.0,0.0,0.0,0.0,0.0,0.0,0.0,0.0,0.0,0.0,0.0,0.0,0.0,0.0,0.0,0.0,0.0,0.0,0.0,0.0,0.0,0.0,0.0,0.0,0.0,0.0,0.0,0.0,0.0,0.0,0.0,0.0,0.0,0.0,0.0,0.0,0.0,0.0,0.0,0.0,0.0,0.0,0.0,0.0,0.0,0.0,0.0,0.0,0.0,0.0,0.0,0.0,0.0,0.0,0.0,0.0,0.0,0.0,0.0,0.0,0.0,0.0,0.0,0.0,0.0,0.0,0.0,0.0,0.0,0.0,0.0,0.0,0.0,0.0,0.0,0.0,0.0,0.0,0.0,0.0,0.0,0.0,0.0,0.0,0.0,0.0,0.0,0.0,0.0,0.0,0.0,0.0,0.0,0.0,0.0,0.0,0.0,0.0,0.0,0.0,0.0,0.0,0.0,0.0,0.0,0.0,0.0,0.0,0.0,0.0,0.0,0.0,0.0,0.0,0.0,0.0,0.0,0.0,0.0,0.0,0.0,0.0,0.0,0.0,0.0,0.0,0.0,0.0,0.0,0.0,0.0,0.0,0.0,0.0,0.0,0.0,0.0,0.0,0.0,0.0,0.0,0.0,0.0,0.0,0.0,0.0,0.0,0.0,0.0,0.0,0.0,0.0,0.0,0.0,0.0,0.0,0.0,0.0,0.0,0.0,0.0,0.0,0.0,0.0,0.0,0.0,0.0,0.0,0.0,0.0,0.0,0.0,0.0,0.0,0.0,0.0,0.0,0.0,0.0,0.0,0.0,0.0,0.0,0.0,0.0,0.0,0.0,0.0,0.0,0.0,0.0,0.0,0.0,0.0,0.0,0.0,0.0,0.0,0.0,0.0,0.0,0.0,0.0,0.0,0.0,0.0,0.0,0.0,0.0,0.0,0.0,0.0,0.0,0.0,0.0,0.0,0.0,0.0,0.0,0.0,0.0,0.0,0.0,0.0,0.0,0.0,0.0,0.0,0.0,0.0,0.0,0.0,0.0,0.0,0.0,0.0,0.0,0.0,0.0,0.0,0.0,0.0,0.0,0.0,0.0,0.0,0.0,0.0,0.0,0.0,0.0,0.0,0.0,0.0,0.0,0.0,0.0,0.0,0.0,0.0,0.0,0.0,0.0,0.0,0.0,0.0,0.0,0.0,0.0,0.0,0.0,0.0,0.0,0.0,0.0,0.0,0.0,0.0,0.0,0.0,0.0,0.0,0.0,0.0,0.0,0.0,0.0,0.0,0.0,0.0,0.0,0.0,0.0,0.0,0.0,0.0,0.0,0.0,0.0,0.0,0.0,0.0,0.0,0.0,0.0,0.0,0.0,0.0,0.0,0.0,0.0,0.0,0.0,0.0,0.0,0.0,0.0,0.0,0.0,0.0,0.0,0.0,0.0,0.0,0.0,0.0,0.0,0.0,0.0,0.0,0.0,0.0,0.0,0.0,0.0,0.0,0.0,0.0,0.0,0.0,0.0,0.0,0.0,0.0,0.0,0.0,0.0,0.0,0.0,0.0,0.0,0.0,0.0,0.0,0.0,0.0,0.0,0.0,0.0,0.0,0.0,0.0,0.0,0.0,0.0,0.0,0.0,0.0,0.0,0.0,0.0,0.0,0.0,0.0,0.0,0.0,0.0,0.0,0.0,0.0,0.0,0.0,0.0,0.0,0.0,0.0,0.0,0.0,0.0,0.0,0.0,0.0,0.0,0.0,0.0,0.0,0.0,0.0,0.0,0.0,0.0,0.0,0.0,0.0,0.0,0.0,0.0,0.0,0.0,0.0,0.0,0.0,0.0,0.0,0.0,0.0,0.0,0.0,0.0,0.0,0.0,0.0,0.0,0.0,0.0,0.0,0.0,0.0,0.0,0.0,0.0,0.0,0.0,0.0,0.0,0.0,0.0,0.0,0.0,0.0,0.0,0.0,0.0,0.0,0.0,0.0,0.0,0.0,0.0,0.0,0.0,0.0,0.0,0.0,0.0,0.0,0.0,0.0,0.0,0.0,0.0,0.0,0.0,0.0,0.0,0.0,0.0,0.0,0.0,0.0,0.0,0.0,0.0,0.0,0.0,0.0,0.0,0.0,0.0,0.0,0.0,0.0,0.0,0.0,0.0,0.0,0.0,0.0,0.0,0.0,0.0,0.0,0.0,0.0,0.0,0.0,0.0,0.0,0.0,0.0,0.0,0.0,0.0,0.0,0.0,0.0,0.0,0.0,0.0,0.0,0.0,0.0,0.0,0.0,0.0,0.0,0.0,0.0,0.0,0.0,0.0,0.0,0.0,0.0,0.0,0.0,0.0,6.4101,0.0,0.0,0.0,0.0,0.0,0.0,0.0,0.0,0.0,0.0,0.0,0.0,0.0,0.0,0.0,0.0,0.0,0.0,0.0,0.0,0.0,0.0,0.0,0.0,0.0,0.0,0.0,0.0,0.0,0.0,0.0,0.0,0.0,0.0,0.0,0.0,0.0,0.0,0.0,0.0,0.0,0.0,0.0,0.0,0.0,0.0,0.0,0.0,0.0,0.0,0.0,0.0,0.0,0.0,0.0,0.0,0.0,0.0,0.0,0.0,0.0,0.0,0.0,0.0,0.0,0.0,0.0,0.0,0.0,0.0,0.0,0.0,0.0,0.0,0.0,0.0,0.0,0.0,0.0,0.0,0.0,0.0,0.0,0.0,0.0,0.0,0.0,0.0,0.0,0.0,0.0,0.0,0.0,0.0,0.0,0.0,0.0,0.0,0.0,0.0,0.0,0.0,0.0,0.0,0.0,0.0,0.0,0.0,0.0,0.0,0.0,0.0,0.0,0.0,0.0,0.0,6.4297,0.0,0.0,0.0,0.0,0.0,0.0,0.0,0.0,0.0,0.0,0.0,0.0,0.0,0.0,0.0,0.0,0.0,0.0,0.0,0.0,0.0,0.0,0.0,0.0,0.0,0.0,0.0,0.0,0.0,0.0,0.0,0.0,0.0,0.0,0.0,0.0,0.0,0.0,0.0,0.0,0.0,0.0,0.0,0.0,0.0,0.0,0.0,0.0,0.0,0.0,0.0,0.0,0.0,0.0,0.0,0.0,0.0,0.0,0.0,0.0,0.0,0.0,0.0,0.0,0.0,0.0,0.0,0.0,0.0,0.0,0.0,0.0,0.0,0.0,0.0,0.0,0.0,0.0,0.0,0.0,0.0,0.0,0.0,0.0,0.0,0.0,0.0,0.0,0.0,0.0,0.0,0.0,0.0,0.0,0.0,0.0,0.0,0.0,0.0,0.0,0.0,0.0,0.0,0.0,0.0,0.0,0.0,0.0,0.0,6.7693,6.8435,6.9142,6.9455,6.923,6.6402,6.5195,6.5195,0.0,0.0,0.0,0.0,0.0,0.0,0.0,0.0,0.0,0.0,0.0,0.0,0.0,0.0,0.0,0.0,0.0,0.0,0.0,0.0,0.0,0.0,0.0,0.0,0.0,0.0,0.0,0.0,0.0,0.0,0.0,0.0,0.0,0.0,0.0,0.0,0.0,0.0,0.0,6.1188,6.1276,6.1211,6.1026,6.1017,0.0,0.0,0.0,0.0,0.0,0.0,0.0,0.0,0.0,0.0,0.0,0.0,0.0,0.0,0.0,0.0,0.0,0.0,0.0,0.0,0.0,0.0,0.0,0.0,0.0,0.0,0.0,0.0,0.0,0.0,0.0,0.0,0.0,0.0,0.0,0.0,0.0,0.0,0.0,0.0,0.0,0.0,0.0,6.1697,6.1718,0.0,0.0,0.0,0.0,0.0,0.0,0.0,0.0,0.0,0.0,0.0,0.0,0.0,0.0,6.7693,6.8362,6.8791,6.8903,6.902,6.9137,6.9255,6.9372,6.9425,6.9361,6.8935,0.0,6.8711,6.8789,0.0,0.0,0.0,0.0,0.0,0.0,0.0,0.0,0.0,0.0,0.0,0.0,0.0,0.0,0.0,0.0,0.0,0.0,0.0,0.0,0.0,0.0,0.0,0.0,0.0,0.0,0.0,0.0,0.0,0.0,0.0,0.0,0.0,0.0,0.0,0.0,6.0666,6.1229,6.1619,6.1412,6.1305,6.1229,6.1074,6.1118,6.1292,6.0948,0.0,0.0,0.0,0.0,0.0,0.0,0.0,0.0,0.0,0.0,0.0,0.0,0.0,0.0,0.0,0.0,0.0,0.0,0.0,0.0,0.0,0.0,0.0,0.0,0.0,0.0,0.0,0.0,0.0,0.0,0.0,0.0,0.0,0.0,0.0,0.0,0.0,0.0,0.0,6.2134,6.2427,6.2446,6.2849,6.332,0.0,0.0,0.0,0.0,0.0,0.0,0.0,0.0,0.0,6.7718,6.8093,6.8468,6.8864,6.9215,6.9405,6.9405,6.9918,7.0387,7.0894,7.1363,7.1875,7.2319,7.233,7.23,7.2187,7.0273,6.9492,6.9414,0.0,0.0,0.0,0.0,0.0,6.832,0.0,0.0,0.0,0.0,0.0,0.0,0.0,0.0,0.0,0.0,0.0,0.0,0.0,0.0,0.0,5.524,0.0,0.0,0.0,0.0,0.0,0.0,0.0,0.0,0.0,0.0,0.0,0.0,6.1296,6.1556,6.1549,6.1292,6.1151,6.1087,6.0923,6.0965,6.1189,6.1196,6.1193,0.0,0.0,0.0,0.0,0.0,0.0,0.0,0.0,0.0,0.0,0.0,0.0,0.0,0.0,0.0,0.0,0.0,0.0,0.0,0.0,0.0,0.0,0.0,0.0,0.0,0.0,0.0,0.0,0.0,0.0,0.0,0.0,0.0,0.0,0.0,0.0,0.0,0.0,6.2797,6.3316,6.3321,6.3896,6.4491,0.0,0.0,0.0,0.0,0.0,0.0,6.7559,6.8718,6.9489,6.9723,6.9957,7.0152,7.0387,7.0582,7.0699,7.0738,7.1363,7.2026,7.269,7.3315,7.3978,7.4603,7.4584,7.4598,7.4411,7.1836,7.0781,7.0742,7.0742,7.0742,7.0781,7.0781,7.0781,7.0742,0.0,0.0,0.0,0.0,0.0,0.0,0.0,0.0,0.0,0.0,0.0,0.0,0.0,0.0,5.524,5.5313,5.6059,5.6567,0.0,0.0,0.0,0.0,0.0,0.0,0.0,0.0,0.0,6.1642,6.1373,6.1214,6.1214,6.107,6.0943,6.0827,6.0943,6.0902,6.0843,6.0982,6.0983,6.102,0.0,0.0,0.0,0.0,0.0,0.0,0.0,0.0,0.0,0.0,0.0,0.0,0.0,0.0,0.0,0.0,0.0,0.0,0.0,0.0,0.0,0.0,0.0,0.0,0.0,0.0,0.0,0.0,0.0,0.0,0.0,0.0,0.0,0.0,0.0,0.0,0.0,0.0,0.0,6.4219,6.4278,0.0,0.0,0.0,0.0,6.901,6.923,6.9255,6.9255,6.9333,6.9801,7.0621,7.1441,7.226,7.3119,7.3861,7.429,7.433,7.433,7.4369,7.4486,7.4447,7.4486,7.4603,7.4603,7.4603,7.4608,7.4411,7.4336,7.4336,7.4336,7.4336,7.4336,7.4336,7.4336,7.4336,0.0,0.0,0.0,0.0,0.0,0.0,0.0,0.0,0.0,0.0,0.0,0.0,0.0,5.563,5.6138,5.6138,5.6411,5.6606,5.6606,0.0,0.0,0.0,0.0,0.0,0.0,0.0,6.166,6.158,6.1432,6.1316,6.1186,6.1053,6.0964,6.0923,6.0899,6.0834,6.0781,6.0834,6.0877,6.0877,6.0923,6.0963,0.0,0.0,0.0,0.0,0.0,0.0,0.0,0.0,0.0,0.0,0.0,0.0,0.0,0.0,0.0,0.0,0.0,0.0,0.0,0.0,0.0,0.0,0.0,0.0,0.0,0.0,0.0,0.0,0.0,0.0,0.0,0.0,0.0,0.0,0.0,0.0,0.0,6.5897,6.6418,0.0,0.0,6.8518,6.8757,6.9342,6.9923,7.0465,7.105,7.1597,7.23,7.3119,7.3432,7.3744,7.4056,7.4369,7.4525,7.4525,7.4525,7.4798,7.5384,7.5345,7.5969,7.7062,7.7062,7.7347,7.7868,7.7872,7.6595,7.4609,7.4609,7.4609,7.4609,7.4609,7.4609,7.4609,0.0,0.0,0.0,0.0,0.0,0.0,0.0,0.0,0.0,0.0,0.0,5.4771,5.563,5.6255,5.6606,5.6606,5.6606,5.6723,5.6996,0.0,0.0,0.0,0.0,0.0,0.0,6.166,6.1588,6.149,6.1379,6.1253,6.1136,6.1311,6.1368,6.1386,6.1543,6.1627,6.1627,6.1627,6.132,6.0781,6.0781,6.0781,6.0781,0.0,0.0,0.0,0.0,0.0,0.0,0.0,0.0,0.0,0.0,0.0,0.0,0.0,0.0,0.0,0.0,0.0,0.0,0.0,0.0,0.0,0.0,0.0,0.0,0.0,0.0,0.0,0.0,0.0,0.0,0.0,0.0,0.0,0.0,0.0,6.6756,6.7654,6.821,6.8878,6.9762,7.005,7.0317,7.0693,7.1386,7.2127,7.2807,7.3328,7.3914,7.4486,7.4798,7.5071,7.5384,7.5657,7.5969,7.6242,7.6242,7.6555,7.7101,7.7101,7.7765,7.8858,7.8858,7.9187,7.9714,7.9694,7.8341,7.6328,7.6328,7.6328,7.6328,7.6328,7.6328,7.6328,0.0,0.0,0.0,0.0,0.0,0.0,0.0,0.0,0.0,0.0,5.4771,5.563,5.6489,5.6606,5.6606,5.6606,5.6606,5.6957,5.7738,5.8636,0.0,0.0,0.0,0.0,6.1676,6.1573,6.149,6.1481,6.1174,6.1002,6.106,6.1781,6.2089,6.2166,6.2935,6.332,6.332,6.332,6.2358,6.0896,6.0896,6.0896,6.0896,0.0,0.0,0.0,0.0,0.0,0.0,0.0,0.0,0.0,0.0,0.0,0.0,0.0,0.0,0.0,0.0,0.0,0.0,0.0,0.0,0.0,0.0,0.0,0.0,0.0,0.0,0.0,0.0,0.0,0.0,0.0,0.0,0.0,6.7169,6.7649,6.8474,6.9333,6.945,6.9801,7.0693,7.136,7.2199,7.3264,7.3756,7.4184,7.4519,7.445,7.448,7.4603,7.5462,7.632,7.7179,7.8038,7.8858,7.9717,7.9717,7.9717,7.9717,7.9717,7.9717,7.9756,7.9756,7.9772,7.9789,7.9767,7.9786,7.9765,7.9726,7.9687,7.9687,7.9687,7.9687,7.9687,0.0,0.0,0.0,0.0,0.0,0.0,0.0,0.0,0.0,0.0,5.4771,5.563,5.6489,5.6606,5.6606,5.6606,5.7113,5.7543,5.7777,0.0,0.0,0.0,0.0,0.0,6.1564,6.15,6.1367,6.1158,6.1057,6.1272,6.1797,6.2021,6.2397,6.2974,6.3205,6.332,6.332,6.332,6.3051,6.2627,6.2627,6.2627,6.2627,0.0,0.0,0.0,0.0,0.0,0.0,0.0,0.0,0.0,0.0,0.0,0.0,0.0,0.0,0.0,0.0,0.0,0.0,0.0,0.0,0.0,0.0,0.0,0.0,0.0,0.0,0.0,0.0,0.0,0.0,0.0,0.0,6.9155,6.8621,6.8858,6.9372,7.023,7.077,7.1429,7.2287,7.3114,7.3687,7.4002,7.4216,7.4679,7.5384,7.5989,7.6653,7.7296,7.8155,7.8741,7.8975,7.9209,7.9444,7.9717,7.9717,7.9717,7.9717,7.9717,8.0029,8.0654,8.0654,8.1011,8.1602,8.1597,8.1573,8.1479,8.0194,7.9687,7.9687,7.9687,7.9687,7.9687,0.0,0.0,0.0,0.0,0.0,0.0,0.0,0.0,0.0,0.0,5.5083,5.602,5.6528,5.6606,5.6606,5.6606,5.7348,5.7933,5.8324,0.0,0.0,0.0,0.0,6.1526,6.139,6.1331,6.1205,6.1002,6.1291,6.1687,6.2127,6.282,6.3397,6.3858,6.4243,6.4397,6.4397,6.4397,6.4397,6.4397,6.4397,6.3935,6.332,6.332,6.332,6.332,6.332,6.332,6.332,6.332,0.0,0.0,0.0,0.0,0.0,0.0,0.0,0.0,0.0,0.0,0.0,0.0,0.0,0.0,0.0,0.0,0.0,0.0,0.0,0.0,0.0,0.0,0.0,0.0,7.0602,7.087,7.116,7.0726,7.0692,7.155,7.2273,7.2913,7.3481,7.4249,7.4937,7.5425,7.5674,7.6208,7.7246,7.7623,7.8092,7.8659,7.9166,7.9656,8.0094,8.0133,8.0289,8.064,8.0758,8.0758,8.0679,8.0758,8.1083,0.0,8.1552,8.1825,8.2293,8.2293,8.2305,0.0,0.0,0.0,0.0,0.0,8.0781,8.0781,0.0,0.0,0.0,0.0,0.0,0.0,0.0,0.0,0.0,0.0,0.0,5.6606,5.6606,5.6606,5.6606,5.6606,5.7426,5.8363,0.0,0.0,0.0,6.149,6.1481,6.1379,6.1172,6.1053,6.1022,6.1119,6.1781,6.2204,6.2397,6.3897,6.4666,6.4782,6.5551,6.5897,6.5897,6.5897,6.5897,6.5897,6.5897,6.4974,6.3589,6.3589,6.3589,6.3589,6.3589,6.3589,6.3589,6.3589,0.0,0.0,0.0,0.0,0.0,0.0,0.0,0.0,0.0,0.0,0.0,0.0,0.0,0.0,0.0,0.0,0.0,0.0,0.0,0.0,0.0,0.0,0.0,0.0,7.2462,7.3113,7.389,7.291,7.2378,7.3052,7.3737,7.425,7.4509,7.5176,7.6062,7.7207,7.752,7.8165,7.9299,0.0,0.0,0.0,0.0,7.9865,8.0793,8.0845,8.1247,8.1987,8.2218,8.2218,8.205,8.2226,8.2293,8.2293,8.2293,8.2293,8.2293,8.2293,8.2293,8.2305,8.2301,8.2304,8.2304,8.2304,8.2304,0.0,0.0,0.0,0.0,0.0,0.0,0.0,0.0,0.0,0.0,5.399,5.5513,5.6606,5.6606,5.6606,5.6606,5.6606,5.7972,5.9534,0.0,0.0,6.1547,6.149,6.1328,6.1196,6.1018,6.102,6.1311,6.189,6.2036,6.2781,6.4128,6.4436,6.4974,6.5667,6.582,6.5897,6.5897,6.5897,6.5897,6.5897,6.5897,6.5705,6.5397,6.5397,6.5397,6.5397,6.5397,6.5397,6.5397,6.5397,6.5465,6.5543,6.5543,0.0,0.0,0.0,0.0,0.0,0.0,0.0,0.0,0.0,0.0,0.0,0.0,0.0,0.0,0.0,0.0,0.0,0.0,0.0,0.0,7.3413,7.3664,7.3795,7.3989,7.4334,7.4491,7.4092,7.4646,7.5327,7.6022,7.6803,7.7642,7.8416,7.869,7.8903,7.9131,7.9776,0.0,8.0144,8.0844,8.1289,8.1519,8.1661,8.1831,8.1987,0.0,0.0,8.2234,8.2287,8.2293,8.2293,8.2293,8.2293,8.2293,8.2293,8.231,8.2289,8.2304,8.2304,8.2304,8.2304,8.2304,8.2304,0.0,0.0,0.0,0.0,0.0,0.0,0.0,0.0,0.0,0.0,5.5513,5.6606,5.6606,5.6606,5.6762,5.7153,5.8688,0.0,0.0,6.1432,6.1343,6.1264,6.1151,6.1057,6.0882,6.1345,6.1704,6.2089,6.2935,6.3782,6.4628,6.5051,6.5474,6.5897,6.5897,6.5897,6.5897,6.5897,6.6128,6.6513,6.6513,6.6744,6.7051,6.6205,6.6128,6.6513,6.6513,6.6782,6.7167,6.7167,6.7204,6.7248,6.7248,6.7277,6.7462,0.0,0.0,0.0,0.0,0.0,0.0,0.0,0.0,0.0,0.0,0.0,0.0,0.0,0.0,7.2352,0.0,0.0,7.3643,7.4499,7.4653,7.4924,7.5643,7.6126,7.6128,7.5369,7.5973,7.6708,7.756,7.8025,7.8646,7.9559,7.9576,7.977,8.0235,8.057,8.0779,8.0916,8.1303,8.164,8.1836,8.1948,8.1987,8.1987,8.2218,8.2468,8.2738,8.2866,8.3152,8.3543,8.3543,8.3543,8.3543,8.3582,8.3599,8.3581,8.3581,8.3081,8.2304,8.2304,8.2578,8.2969,0.0,0.0,0.0,0.0,0.0,0.0,0.0,0.0,0.0,0.0,5.5513,5.6606,5.6606,5.6606,5.6996,0.0,0.0,0.0,6.1451,6.1279,6.112,6.1002,6.0964,6.0902,6.0781,6.1627,6.2166,6.232,6.3858,6.4705,6.4859,6.5551,6.5897,6.5897,6.5897,6.5974,6.6128,6.6128,6.659,6.7359,6.7359,6.7782,6.8244,6.6898,6.6782,6.7359,6.7359,6.7782,6.8398,6.8398,6.8398,6.8398,6.8398,6.8398,6.8436,6.8732,6.8821,0.0,0.0,0.0,0.0,0.0,0.0,0.0,0.0,0.0,7.2962,7.2962,7.3488,7.3976,7.4165,7.4176,7.447,7.5526,7.5702,7.6144,7.751,7.7727,7.7573,7.7035,7.7432,7.8099,7.8965,7.9042,7.9463,8.0472,8.0367,8.0589,8.1311,8.1205,8.1176,8.135,8.135,8.1546,8.2053,8.2085,8.2216,8.2372,8.258,8.2903,8.3389,8.3596,8.406,8.4698,8.4854,8.5067,8.5239,8.5293,8.5312,8.5331,8.539,8.4511,8.3241,8.2929,8.3242,8.3867,0.0,0.0,0.0,0.0,0.0,0.0,0.0,0.0,0.0,0.0,0.0,0.0,0.0,0.0,0.0,0.0,0.0,6.0555,6.1451,6.1182,6.102,6.1002,6.0899,6.0804,6.0781,6.1627,6.2435,6.3166,6.4128,6.5013,6.5743,6.5859,6.5897,6.5897,6.5897,6.6282,6.6974,6.6974,6.7475,6.8244,6.8244,6.8321,6.8398,6.8205,6.8167,6.8244,6.8244,6.8321,6.8398,6.8398,6.8398,6.8398,6.8398,6.8398,6.8552,6.936,0.0,6.9797,7.0676,7.0943,7.1313,7.2793,7.2716,7.2429,0.0,0.0,7.3873,7.3873,7.38,7.3983,7.4773,7.4732,7.5148,7.6794,7.7092,7.7372,7.8267,7.8567,7.8851,7.9374,7.8953,7.9003,7.9854,7.9932,8.0241,8.0983,8.1,8.1039,8.1154,8.1124,8.1124,8.1154,8.1154,8.1493,8.2246,8.2445,8.2932,8.3667,8.3912,8.4028,8.4087,8.4309,8.4348,8.4318,8.5077,8.5961,8.6845,8.687,8.6861,8.6867,8.7056,8.6996,8.663,8.5155,8.4687,8.4765,0.0,0.0,0.0,0.0,0.0,0.0,0.0,0.0,0.0,0.0,0.0,0.0,0.0,0.0,0.0,0.0,6.0126,6.0927,6.1316,6.1057,6.0899,6.0899,6.0827,6.0781,6.0781,6.2127,6.2974,6.332,6.4666,6.5551,6.5897,6.5897,6.5897,6.5897,6.5897,6.6359,6.709,6.709,6.7898,6.9167,6.9167,6.9436,6.986,6.986,6.986,6.9783,6.9321,6.9475,0.0,0.0,6.986,6.986,6.986,7.0206,7.0667,7.1052,7.1514,0.0,7.2418,7.2521,7.2714,0.0,7.3331,7.3176,7.3523,7.4011,7.4432,7.4432,7.5144,7.5914,7.6261,7.664,7.713,0.0,7.8083,7.8447,7.9161,7.9428,7.979,8.0469,8.0328,8.027,8.0656,8.0656,8.082,8.1054,8.1093,8.1093,8.1093,8.1093,8.1377,8.1937,8.1975,8.2444,8.3411,8.3491,8.394,8.4831,8.494,8.5486,8.6418,8.6514,8.6767,8.7194,8.7544,8.7973,8.8377,8.8367,8.8359,8.8374,8.8469,8.856,8.8485,8.6912,8.6679,8.7109,0.0,0.0,0.0,0.0,0.0,0.0,0.0,0.0,0.0,0.0,0.0,0.0,0.0,0.0,0.0,5.9065,6.0165,6.0953,6.1186,6.0963,6.0781,6.0781,6.0781,6.0781,6.0781,6.2435,6.332,6.332,6.5051,6.5897,6.5897,6.5897,6.5897,6.5897,6.6128,6.6705,6.7475,6.7705,6.8667,7.0014,7.0014,7.0398,7.0898,7.0898,7.0898,7.0821,7.0244,7.0398,0.0,0.0,7.1245,7.1283,7.1552,7.2052,7.2552,7.2552,7.3014,7.3553,7.3783,7.3668,0.0,7.4091,7.4014,7.3899,7.413,7.4822,7.5438,7.5438,7.6592,7.763,7.763,7.8092,7.8592,7.8823,7.896,7.9324,8.0046,8.027,8.0558,8.1047,8.1093,8.1093,8.1093,8.1093,8.1093,8.1093,8.1093,8.1208,8.14,8.1439,8.1869,8.2841,8.288,8.3489,8.4708,8.4708,8.5289,8.6374,8.6374,8.7033,8.8195,8.8195,8.8755,8.9641,8.9508,8.9755,9.0291,9.0291,9.0408,9.064,9.0655,9.0789,9.0802,8.9717,8.9211,8.9062,0.0,0.0,0.0,0.0,0.0,0.0,0.0,0.0,0.0,0.0,0.0,0.0,0.0,0.0,5.8168,5.9026,5.9659,6.037,6.1147,6.0963,6.0781,6.0781,6.0781,6.0781,6.0781,6.2435,6.332,6.332,6.5051,6.5897,6.5897,6.5897,6.5897,6.5936,6.6705,6.7552,6.8436,6.9244,7.009,7.086,7.086,7.0898,7.0898,7.0898,7.0898,7.0898,7.086,0.0,0.0,0.0,7.2168,7.2322,7.3168,7.3437,0.0,7.3476,7.3476,0.0,0.0,0.0,7.3899,7.5515,7.5284,7.4899,7.5745,7.6592,7.7207,7.7207,7.7861,7.8438,7.8438,7.8477,7.8784,7.9631,7.9785,8.0054,8.0939,8.1054,8.1054,8.1093,8.1093,8.1093,0.0,8.1093,8.1093,8.1093,8.1093,8.1439,8.2208,8.2247,8.267,8.3548,8.3587,8.4395,8.6049,8.6049,8.6896,8.8589,8.8589,8.8628,8.8666,8.8666,8.9359,9.0513,9.0072,9.0943,9.2683,9.2683,9.3186,9.3949,9.4171,9.4246,9.4268,9.421,9.2393,8.9961,0.0,0.0,0.0,0.0,0.0,0.0,0.0,0.0,0.0,0.0,0.0,0.0,0.0,0.0,0.0,0.0,5.9659,6.0332,6.1147,6.0963,6.0781,6.0781,6.0781,6.0781,6.0781,6.2435,6.332,6.332,6.5051,6.5897,6.5897,6.5897,6.5897,6.5897,6.6167,6.709,6.8436,6.8706,6.9629,7.0898,7.0898,7.0898,7.0898,7.0898,7.0898,7.0975,0.0,7.1745,0.0,0.0,0.0,0.0,7.3399,0.0,0.0,7.4976,0.0,0.0,0.0,0.0,7.5438,7.6592,7.663,7.663,7.7476,7.79,7.8092,7.8092,7.8784,7.9361,7.9361,7.9823,8.0323,8.0592,8.0669,8.0746,8.1054,8.1093,8.1093,8.1093,8.1093,0.0,0.0,0.0,0.0,8.1862,8.19,8.2285,8.3131,8.3708,8.4401,8.5247,8.5824,8.6671,8.7825,8.7825,8.8402,8.9517,9.0671,9.121,9.1248,9.1748,9.2271,9.2659,9.2507,9.2781,9.3384,9.3384,9.3577,9.3842,9.4104,9.4302,9.4419,9.4606,9.4114,9.3359,0.0,0.0,0.0,0.0,0.0,0.0,0.0,0.0,0.0,0.0,0.0,0.0,0.0,0.0,0.0,0.0,0.0,6.0007,6.1109,6.0963,6.0781,6.0781,6.0781,6.0935,6.1243,6.2589,6.3474,6.3782,6.5205,6.5897,6.5897,6.5897,6.5897,6.5897,6.6205,6.709,6.8436,6.8744,6.9667,7.0898,7.0898,7.0898,7.0898,7.0898,7.0898,0.0,7.2245,7.2668,0.0,0.0,0.0,0.0,0.0,0.0,0.0,0.0,0.0,0.0,0.0,7.6476,7.6669,7.7515,7.7707,7.7861,7.8361,7.8746,7.8977,7.8977,7.9669,8.0246,8.0246,8.0708,8.1093,8.1093,8.1093,8.1093,8.1093,8.1093,8.1093,8.1093,8.1362,8.1516,0.0,0.0,0.0,8.2285,8.2593,8.3247,8.4439,8.5016,8.5863,8.6978,8.7555,8.8286,8.9133,8.944,9.0133,9.1287,9.2402,9.2941,9.2941,9.3441,9.371,9.371,9.371,9.3864,9.4172,9.4172,9.4364,9.467,9.4833,9.4974,9.5117,9.5245,9.5437,9.5499,0.0,0.0,0.0,0.0,0.0,0.0,0.0,0.0,0.0,0.0,0.0,0.0,0.0,0.0,0.0,0.0,0.0,0.0,6.1031,6.0925,6.0781,6.0781,6.0781,6.1166,6.2012,6.2858,6.3705,6.4551,6.5436,6.5897,6.5897,6.5897,6.5897,6.5936,6.6744,6.759,6.8475,6.9321,7.0167,7.0898,7.0898,7.0898,7.0898,7.0898,7.0898,7.1129,7.286,7.3514,0.0,0.0,0.0,0.0,0.0,0.0,0.0,0.0,0.0,7.6245,7.7092,7.7323,7.7553,7.8361,7.8554,7.8592,7.8631,7.9285,7.9862,7.9862,8.0516,8.1093,0.0,0.0,8.1093,8.1093,8.1093,8.1093,8.1093,8.1093,8.1131,0.0,0.0,0.0,0.0,0.0,0.0,8.2554,0.0,8.4439,8.6132,8.6286,8.7055,8.8709,8.8825,8.9248,9.0056,9.0902,9.2133,9.371,9.3749,9.3749,9.3749,9.3787,9.3826,9.3826,9.3826,9.4287,9.5057,9.5057,9.5557,9.6288,9.6325,9.6325,9.6325,9.6325,9.6399,9.6322,0.0,0.0,0.0,0.0,0.0,0.0,0.0,0.0,0.0,0.0,0.0,0.0,0.0,0.0,0.0,0.0,0.0,0.0,6.0254,6.0616,6.0781,6.0781,6.0781,6.0896,6.1127,6.2551,6.3435,6.3628,6.5166,6.5897,6.5897,6.5897,6.5897,6.5936,6.6744,6.759,6.8475,6.9321,7.0167,7.0898,7.0898,7.0898,7.0898,7.0898,7.0898,7.1129,7.286,7.3514,7.3745,0.0,0.0,0.0,0.0,7.6015,7.6015,0.0,0.0,7.7015,7.7246,7.7746,7.84,7.9246,7.9477,7.9631,8.0285,8.0592,8.0785,8.0785,8.0939,8.1093,0.0,0.0,0.0,8.1093,8.1093,0.0,8.1093,8.1093,0.0,8.19,0.0,8.2554,8.3208,8.4593,0.0,0.0,8.5324,8.6209,8.794,8.8594,8.9133,8.9594,9.0864,9.1633,9.1825,9.2633,9.3287,9.371,9.4364,9.4672,9.4672,9.5326,9.5634,9.5634,9.5634,9.5749,9.598,9.598,9.6095,9.6325,9.6487,9.6545,9.6537,9.6771,9.681,9.681,0.0,0.0,0.0,0.0,0.0,0.0,0.0,0.0,0.0,0.0,0.0,0.0,0.0,0.0,0.0,0.0,0.0,0.0,0.0,6.0576,6.0856,6.0781,6.0781,6.0973,6.1358,6.2281,6.3128,6.3858,6.4859,6.5513,6.5897,6.5897,6.5897,6.5897,6.6359,6.7244,6.8436,6.8936,6.9821,0.0,0.0,7.0898,7.0898,7.0898,7.0898,7.1129,7.286,7.3976,7.4745,7.5668,0.0,7.6015,7.6015,7.6015,7.6092,7.6476,0.0,7.7438,7.8207,7.8746,7.9285,8.0169,8.0362,8.0516,8.0977,8.1093,8.1093,8.1093,8.1093,0.0,8.1093,8.1093,0.0,0.0,0.0,0.0,8.1093,8.14,8.1785,0.0,8.2978,0.0,8.4632,8.5901,8.6978,0.0,8.744,8.7825,8.9171,9.0017,9.0671,9.1018,9.2326,9.321,9.3595,9.4018,9.4441,9.4864,9.5326,9.5557,9.5595,9.6095,9.6288,9.6288,0.0,9.6288,9.6288,9.6288,9.6288,9.6325,9.642,9.6487,9.6519,9.6667,9.6704,9.6773,0.0,0.0,0.0,0.0,0.0,0.0,0.0,0.0,0.0,0.0,0.0,0.0,0.0,0.0,0.0,0.0,0.0,0.0,0.0,0.0,6.0943,6.0804,6.0781,6.1127,6.1897,6.205,6.2858,6.4436,6.4551,6.5051,6.5897,6.5897,6.5897,6.5897,6.6013,6.6859,6.8244,6.8475,6.9398,7.0744,7.086,7.0898,7.0898,0.0,0.0,7.1129,7.286,7.4591,7.6015,7.6015,7.6015,7.6015,7.6015,7.6092,7.6322,7.7092,7.7438,7.7938,7.94,7.99,8.0169,8.09,8.1093,8.1093,8.1093,8.1093,8.1093,8.1093,0.0,8.1093,8.1093,8.1093,8.1093,8.1093,0.0,8.1131,8.1246,8.1862,8.2401,8.2631,8.4055,8.5401,8.6209,8.7171,8.8363,8.994,8.9517,8.9517,9.021,9.0979,9.1825,9.2787,9.3518,9.4287,9.5172,9.5172,9.5557,9.6288,9.6288,9.6288,9.6288,9.6288,9.6288,9.6288,0.0,0.0,9.6288,9.6288,9.6288,9.6288,9.6288,9.6288,9.6288,9.6288,9.6326,9.6403,0.0,0.0,0.0,0.0,0.0,0.0,0.0,0.0,0.0,0.0,5.4888,5.5786,0.0,0.0,0.0,0.0,0.0,0.0,0.0,0.0,0.0,6.0804,6.0781,6.0858,6.1012,6.1704,6.2551,6.3551,6.4243,6.5051,6.5897,6.5897,6.5897,6.5936,6.659,6.7051,6.7398,6.8859,6.9629,6.9975,7.0629,7.0898,7.0898,7.0898,0.0,0.0,7.286,7.4591,7.6015,7.6015,7.6015,7.6015,7.6015,7.6476,7.7092,7.7246,7.8284,7.9438,7.9708,8.0323,8.09,8.1054,8.1093,8.1093,8.1093,8.1093,0.0,0.0,8.1093,8.1093,8.1093,8.1093,8.1093,8.1093,8.1093,8.1323,8.2016,8.2208,8.2824,0.0,8.5286,8.6247,8.7094,0.0,0.0,0.0,0.0,9.1902,9.2056,9.2172,9.2979,9.4518,9.4711,9.5172,9.6057,9.6057,9.6134,9.6288,9.6288,9.6288,9.6288,9.6288,9.6288,9.6288,0.0,0.0,9.6288,9.6288,9.6288,9.6288,9.6288,9.6288,9.6288,9.6288,9.6326,9.6326,0.0,0.0,0.0,0.0,0.0,0.0,0.0,5.1765,5.2511,5.381,5.4359,5.5134,5.645,5.6606,0.0,0.0,0.0,0.0,0.0,0.0,0.0,0.0,0.0,0.0,6.0781,6.1204,0.0,0.0,0.0,6.4359,6.5243,0.0,6.5897,6.5897,6.6282,6.6705,6.7128,6.7975,6.8859,6.9744,7.0129,7.0514,0.0,0.0,0.0,0.0,0.0,7.4284,7.5399,7.5861,7.6015,7.6092,7.6515,7.6938,7.7476,7.8361,7.9169,7.99,8.0362,8.0785,8.1093,8.1093,8.1093,8.1093,8.1093,0.0,0.0,0.0,8.1093,8.1093,8.1093,8.1439,8.1708,8.1708,8.2093,8.2554,8.2901,8.3362,8.4132,8.5401,8.6286,8.7286,0.0,8.9863,0.0,0.0,0.0,9.3133,9.3133,9.3557,9.4364,9.5634,9.5672,9.5865,9.6288,9.6288,9.6288,9.6288,9.6288,9.6288,9.6288,9.6288,9.6288,9.6288,9.6288,0.0,9.6288,9.6288,9.6288,9.6288,9.6288,9.6288,9.6365,9.6749,9.6903,9.698,0.0,0.0,0.0,0.0,0.0,0.0,0.0,5.1414,5.2046,5.3781,5.4015,5.4677,5.6419,5.661,5.661,0.0,0.0,0.0,0.0,0.0,0.0,0.0,0.0,0.0,0.0,0.0,0.0,0.0,0.0,0.0,0.0,0.0,0.0,0.0,0.0,0.0,6.6859,6.7013,6.7898,0.0,0.0,0.0,0.0,0.0,0.0,0.0,0.0,7.4014,7.4822,7.5707,7.613,7.6438,7.7284,7.7553,7.7861,7.9361,7.9939,8.0246,8.09,8.1093,8.1093,8.1093,8.1093,8.1093,8.1093,8.1093,0.0,8.1093,8.1093,8.1131,8.1323,8.1862,8.2362,8.2554,8.3131,8.367,8.3862,8.4632,8.5478,8.6286,8.7286,0.0,8.9787,9.0864,0.0,0.0,0.0,0.0,9.398,9.4788,9.5595,9.6288,9.6288,9.6288,9.6288,9.6288,9.6288,9.6288,9.6288,9.6288,9.6288,9.6288,9.6288,9.6288,9.6288,0.0,0.0,9.6557,9.6673,9.6826,9.6826,9.6826,9.6903,9.7556,9.7787,9.7865,0.0,0.0,0.0,0.0,0.0,0.0,0.0,5.1414,5.2046,5.3781,5.4015,5.4679,5.6395,5.6588,5.6582,0.0,0.0,0.0,0.0,0.0,0.0,0.0,0.0,0.0,0.0,0.0,0.0,0.0,0.0,0.0,0.0,0.0,0.0,0.0,0.0,0.0,0.0,6.6782,0.0,0.0,0.0,0.0,0.0,0.0,0.0,0.0,0.0,7.4014,7.4822,7.5707,7.6515,7.7323,7.813,7.84,7.8592,7.9515,0.0,0.0,8.1093,8.1093,8.1093,8.1093,8.1093,8.1093,8.1093,0.0,8.1093,8.1093,8.1093,8.1323,8.2054,8.2247,8.2554,8.3362,8.3555,8.3862,8.467,8.5478,8.6324,8.7171,8.8709,8.9748,8.9902,9.1402,0.0,0.0,0.0,0.0,9.4903,9.5711,9.6211,9.6288,9.6288,9.6288,9.6288,9.6288,9.6288,9.6288,9.6288,9.6288,9.6288,9.6288,9.6288,9.6288,0.0,0.0,0.0,9.7403,9.7865,9.8557,9.8557,9.8557,9.8595,9.8634,9.8673,9.8673,0.0,0.0,0.0,0.0,0.0,0.0,5.1414,5.1385,5.2021,5.3787,5.3983,5.4647,5.6405,5.6599,5.6595,0.0,0.0,0.0,0.0,0.0,0.0,0.0,0.0,0.0,0.0,0.0,0.0,0.0,0.0,0.0,0.0,0.0,0.0,0.0,0.0,0.0,0.0,0.0,0.0,0.0,0.0,0.0,0.0,0.0,0.0,0.0,0.0,0.0,7.4168,7.5553,7.6592,7.7438,7.8246,7.8861,7.9438,8.0323,8.0823,8.1093,8.1093,8.1093,8.1093,8.1093,8.1093,8.1093,8.1093,0.0,8.1093,8.1093,8.1477,8.19,8.2247,8.317,8.3978,8.4324,8.4786,8.5401,8.6286,8.6671,8.7401,8.8748,8.9479,9.0325,0.0,0.0,0.0,0.0,0.0,0.0,9.5788,9.6095,9.6288,9.6288,9.6288,9.6288,9.6288,9.6288,9.6288,9.6288,9.6288,9.6288,9.6288,9.6288,9.6557,9.7019,0.0,0.0,0.0,9.8288,9.8481,9.8788,9.8788,9.8788,9.8827,9.9403,9.9596,9.9673,0.0,0.0,0.0,0.0,0.0,5.1414,5.1414,5.1385,5.2023,5.3789,5.3984,5.4648,5.6406,5.6601,5.6599,5.6618,5.661,0.0,0.0,0.0,0.0,0.0,0.0,0.0,0.0,0.0,0.0,0.0,0.0,0.0,0.0,0.0,0.0,0.0,0.0,0.0,0.0,0.0,0.0,0.0,0.0,0.0,0.0,0.0,0.0,0.0,0.0,0.0,0.0,0.0,0.0,7.7746,7.8323,7.9285,8.0323,8.0939,8.1093,8.1093,8.1093,8.1093,8.1093,8.1093,8.1093,8.1093,8.1093,8.1093,8.117,8.14,8.19,8.2439,8.2978,8.4055,8.4978,8.5209,8.5747,8.6401,8.7286,8.7632,8.8325,8.9748,9.0364,9.1171,0.0,9.3441,0.0,0.0,0.0,0.0,0.0,9.6288,9.6288,9.6288,9.6288,9.6288,9.6288,9.6288,9.6288,9.6288,9.6288,9.6442,9.6634,9.6634,9.7096,9.7865,0.0,0.0,0.0,9.9173,9.9327,9.9558,9.9558,9.9558,9.9596,10.0211,10.0519,10.0519,0.0,0.0,0.0,0.0,0.0,0.0,5.1414,5.1414,5.2013,5.3789,5.3984,5.4648,5.6406,5.6601,5.6601,5.6593,5.6618,0.0,0.0,0.0,0.0,0.0,0.0,0.0,0.0,0.0,6.0781,6.0781,6.0819,6.1243,0.0,0.0,0.0,0.0,0.0,0.0,0.0,0.0,0.0,0.0,0.0,0.0,0.0,0.0,0.0,0.0,0.0,0.0,0.0,0.0,0.0,0.0,0.0,7.9669,8.1093,8.1093,8.1093,8.1093,8.1093,8.1093,8.1093,8.1093,8.1093,8.1093,8.1093,8.1093,8.1323,8.2131,8.2285,8.2824,8.4555,8.4901,8.517,8.5978,8.6094,8.6401,8.7286,8.8132,8.8979,8.9825,9.1441,9.2479,9.2479,9.4018,0.0,0.0,0.0,0.0,0.0,9.6288,9.6288,9.6288,9.6288,9.6288,9.6288,9.6288,9.6288,9.6288,9.6288,9.6711,9.748,9.748,9.7942,0.0,0.0,0.0,0.0,10.0096,10.0596,10.1289,10.1289,10.1289,10.1289,10.1289,10.1289,10.1289,0.0,0.0,0.0,0.0,0.0,0.0,0.0,5.1313,5.1984,5.3789,5.3984,5.4648,5.6406,5.6601,5.6601,5.6593,5.6618,0.0,0.0,0.0,0.0,0.0,0.0,0.0,0.0,0.0,6.0781,6.0781,6.0781,6.0935,6.1204,6.1204,0.0,0.0,0.0,0.0,0.0,0.0,0.0,0.0,0.0,0.0,0.0,0.0,0.0,0.0,0.0,0.0,0.0,0.0,0.0,0.0,0.0,0.0,0.0,8.0939,8.1093,8.1093,8.1093,8.1093,8.1093,8.1093,8.1093,8.1093,8.1093,8.1093,8.1323,8.2131,8.2747,8.3555,8.4709,8.5363,8.5786,8.6055,8.6094,8.6594,8.8055,8.8517,8.921,9.0633,9.2287,9.3557,0.0,0.0,0.0,0.0,0.0,0.0,0.0,9.6288,9.6288,9.6288,9.6288,9.6288,9.6288,9.6288,9.6288,9.6326,9.6865,9.725,9.7519,9.8134,0.0,0.0,0.0,0.0,0.0,10.0904,10.1096,10.1289,10.1289,10.1289,10.1289,10.1289,10.1289,10.1289,0.0,0.0,0.0,0.0,0.0,0.0,0.0,5.1271,5.199,5.3789,5.3984,5.4648,5.6406,5.6601,5.6601,5.6593,5.6618,0.0,0.0,0.0,0.0,0.0,0.0,0.0,0.0,6.0781,6.0781,6.0781,6.0781,6.0781,6.0781,6.0781,6.1089,6.1627,0.0,0.0,0.0,0.0,0.0,0.0,0.0,0.0,6.8513,0.0,0.0,0.0,0.0,0.0,0.0,0.0,0.0,0.0,0.0,0.0,0.0,0.0,8.1093,8.1093,8.1093,8.1093,8.1093,8.1093,8.1093,8.1093,8.1093,8.1093,8.14,8.2554,8.3208,8.3939,8.5132,8.5747,8.6094,8.6094,8.6363,8.7094,8.8479,8.894,8.9902,9.1902,9.3364,0.0,0.0,0.0,0.0,0.0,0.0,0.0,0.0,9.6288,9.6288,9.6288,9.6288,9.6288,9.6288,9.6596,9.6749,9.6749,9.7596,9.8173,9.8481,9.9019,0.0,0.0,0.0,0.0,0.0,10.1289,10.1289,10.1289,10.1289,10.1289,10.1289,10.1289,10.1289,10.1289,0.0,0.0,0.0,0.0,0.0,0.0,0.0,5.1352,5.203,5.3789,5.3984,5.4648,5.6406,5.6601,5.6601,5.6593,0.0,0.0,0.0,0.0,0.0,0.0,0.0,0.0,0.0,6.0804,6.0781,6.0781,6.0781,6.0781,6.0781,6.0781,6.0781,6.0819,6.1704,6.2589,6.3512,0.0,0.0,0.0,0.0,0.0,0.0,0.0,0.0,0.0,0.0,0.0,0.0,0.0,0.0,0.0,0.0,0.0,0.0,0.0,0.0,0.0,0.0,8.1124,8.1093,8.1093,8.1093,8.1093,8.1093,8.1131,0.0,8.3247,8.3632,8.417,8.5786,8.6094,8.6094,8.6094,8.6824,8.7709,8.8556,8.9517,9.0979,9.3403,9.448,0.0,0.0,0.0,0.0,0.0,0.0,0.0,0.0,9.6288,9.6288,9.6288,9.6288,9.6288,9.6288,9.7096,9.7519,9.7519,9.8442,9.9327,10.0096,10.0173,0.0,0.0,0.0,0.0,0.0,10.1289,10.1289,10.1289,10.1289,10.1289,10.1289,10.1289,10.1289,10.1289,0.0,0.0,0.0,0.0,0.0,0.0,0.0,0.0,0.0,0.0,5.3984,5.4648,5.6406,5.6601,5.6601,0.0,0.0,0.0,0.0,0.0,0.0,0.0,0.0,0.0,0.0,6.0834,6.0781,6.0781,6.0781,6.0781,6.0781,6.0781,6.0781,6.0819,6.1704,6.2897,6.4359,6.5436,0.0,0.0,0.0,0.0,0.0,0.0,0.0,0.0,7.1898,7.2745,0.0,0.0,0.0,0.0,0.0,0.0,0.0,0.0,8.1224,0.0,8.1269,0.0,8.1093,8.1093,8.1093,8.1093,0.0,8.1593,8.2324,8.3362,8.4132,8.4901,8.5901,8.6094,8.6094,8.6094,8.6824,8.7709,8.8556,9.0556,9.2326,9.3557,9.448,9.5326,0.0,0.0,0.0,0.0,0.0,0.0,0.0,9.6288,9.6288,9.6288,9.6288,9.6288,9.6288,9.7096,9.7519,9.7519,9.9058,9.9904,10.0096,10.0712,0.0,0.0,0.0,0.0,10.1289,10.1289,10.1289,10.1289,10.1289,10.1289,10.1289,10.1289,10.1289,10.1289,0.0,0.0,0.0,0.0,0.0,0.0,0.0,0.0,0.0,0.0,0.0,0.0,0.0,0.0,0.0,0.0,0.0,0.0,0.0,0.0,0.0,0.0,0.0,6.0716,6.0902,6.085,6.0781,6.0781,6.0781,6.0781,6.0781,6.0781,6.0781,6.0819,6.1704,6.282,6.4051,6.4936,6.5513,6.5897,6.5897,0.0,0.0,0.0,0.0,0.0,7.1437,7.2437,0.0,7.4043,7.5033,7.6342,0.0,0.0,0.0,0.0,8.1263,8.1184,8.128,8.1205,8.1093,8.1093,8.1093,8.1093,8.1093,8.1708,8.2554,8.3401,8.4286,8.517,8.594,8.6094,8.6094,8.6094,8.7171,8.844,8.9671,9.171,9.321,9.3633,9.4826,9.5788,0.0,0.0,0.0,0.0,0.0,0.0,0.0,9.6288,9.6288,9.6288,9.6673,9.6865,9.6865,9.7673,9.8288,9.8711,9.9981,10.0712,10.0712,10.1096,0.0,0.0,0.0,0.0,10.1289,10.1289,10.1289,10.1289,10.1289,10.1289,10.1289,10.1289,10.1289,10.1289,0.0,0.0,0.0,0.0,0.0,0.0,0.0,0.0,0.0,0.0,0.0,0.0,0.0,0.0,0.0,0.0,0.0,0.0,0.0,0.0,0.0,0.0,0.0,6.0256,6.0811,6.0804,6.0781,6.0781,6.0781,6.0781,6.0781,6.0781,6.0781,6.0819,6.182,6.2666,6.3358,6.4359,6.5205,6.5897,6.5897,0.0,0.0,0.0,0.0,0.0,0.0,0.0,0.0,7.3559,7.4703,7.6426,7.8139,0.0,0.0,0.0,0.0,0.0,8.1234,8.1146,8.1093,8.1093,8.1093,8.1093,8.1093,8.1823,8.2708,8.3439,8.4401,8.5286,8.5978,8.6094,8.6132,8.6286,8.7748,8.9479,9.1171,9.271,9.3749,9.3864,9.5326,0.0,0.0,0.0,0.0,0.0,0.0,0.0,0.0,9.6288,9.6288,9.6288,9.7096,9.7557,9.7711,9.8557,9.9365,10.0096,10.0904,10.1289,10.1289,10.1289,10.1289,0.0,0.0,0.0,10.1289,10.1289,10.1289,10.1289,10.1289,10.1289,10.1289,10.1289,10.1289,10.1289,0.0,0.0,0.0,0.0,0.0,0.0,0.0,0.0,0.0,0.0,0.0,0.0,0.0,0.0,0.0,0.0,0.0,0.0,0.0,0.0,0.0,5.8501,5.9483,6.0321,6.0964,6.0856,6.0781,6.0781,6.0781,6.0781,6.0781,6.0781,6.0781,6.0858,6.2435,6.3166,6.3435,6.5013,6.5782,6.5897,6.5897,0.0,0.0,0.0,0.0,0.0,0.0,0.0,0.0,7.3559,7.4703,7.6426,7.8139,0.0,0.0,0.0,0.0,0.0,8.1401,8.128,8.1093,8.1093,8.1093,8.1093,8.1093,8.2285,8.3439,8.3555,8.4824,8.594,8.6094,8.6094,8.6324,0.0,0.0,9.0325,0.0,0.0,9.398,9.4711,0.0,0.0,0.0,0.0,0.0,0.0,0.0,0.0,0.0,9.6288,9.6288,9.6288,9.7096,9.7865,9.8596,9.9442,9.9981,10.0096,10.0904,10.1289,10.1289,10.1289,10.1289,0.0,0.0,10.1289,10.1289,10.1289,10.1289,10.1289,10.1289,10.1289,10.1289,10.1289,10.1289,10.1289,0.0,0.0,0.0,0.0,0.0,0.0,0.0,0.0,0.0,0.0,0.0,0.0,0.0,0.0,0.0,0.0,0.0,0.0,0.0,0.0,0.0,5.8488,5.937,6.0187,6.0882,6.085,6.0781,6.0781,6.0781,6.0781,6.0781,6.0781,6.0781,6.0858,6.2089,6.2897,6.3397,6.4666,6.5474,6.5897,0.0,0.0,0.0,0.0,0.0,0.0,0.0,0.0,0.0,0.0,7.481,7.6533,7.8284,0.0,0.0,0.0,0.0,0.0,8.144,8.128,8.1154,8.1154,8.1124,8.1093,8.1093,8.2401,8.3593,8.3593,8.4939,8.6094,8.6094,0.0,8.6555,8.7863,0.0,9.0517,9.2249,0.0,0.0,0.0,0.0,0.0,0.0,0.0,0.0,0.0,0.0,0.0,0.0,0.0,9.6519,9.6942,9.775,9.8634,9.9481,10.0289,10.0712,10.0789,10.1096,10.1289,10.1289,10.1289,10.1289,10.1289,0.0,10.1289,10.1289,10.1289,10.1289,10.1289,10.1289,10.1289,10.1289,10.1289,10.1289,10.1289,0.0,0.0,0.0,0.0,0.0,0.0,0.0,0.0,0.0,0.0,0.0,0.0,0.0,0.0,0.0,0.0,0.0,0.0,0.0,0.0,5.7986,5.8684,5.9534,6.0226,6.0781,6.0781,6.0781,6.0781,6.0781,6.0781,6.0781,6.0781,6.0896,6.1127,6.2012,6.282,6.3666,6.4551,6.5282,6.5897,0.0,0.0,0.0,0.0,0.0,0.0,0.0,0.0,0.0,0.0,0.0,0.0,0.0,0.0,0.0,8.1039,8.1542,8.1556,8.1465,8.1291,8.1214,8.1214,0.0,8.1093,8.1093,0.0,0.0,0.0,0.0,0.0,8.6094,8.644,0.0,8.8709,8.9671,0.0,0.0,0.0,0.0,0.0,0.0,0.0,0.0,0.0,0.0,0.0,0.0,0.0,0.0,0.0,9.6673,9.748,9.8365,9.9211,10.0096,10.0904,10.1289,10.1289,10.1289,10.1289,10.1289,10.1289,10.1289,10.1289,10.1289,10.1289,10.1289,10.1289,10.1289,10.1289,10.1289,10.1289,10.1289,10.1289,10.1289,10.1289,0.0,0.0,0.0,0.0,0.0,0.0,0.0,0.0,0.0,0.0,0.0,0.0,0.0,0.0,0.0,0.0,0.0,0.0,0.0,0.0,5.8723,5.938,6.0265,6.0766,6.0781,6.0781,6.0781,6.0781,6.0781,6.0781,6.0781,6.0781,6.1243,6.205,6.2858,6.3705,6.4551,6.5436,6.582,6.5974,6.6705,0.0,0.0,0.0,0.0,0.0,0.0,0.0,0.0,0.0,0.0,0.0,0.0,0.0,7.9516,8.1039,8.1542,8.1556,8.1465,8.1291,8.1214,8.1214,8.1154,0.0,8.1093,8.2401,0.0,8.3593,0.0,0.0,0.0,8.7401,8.8786,8.9671,9.0556,0.0,0.0,0.0,0.0,0.0,0.0,0.0,0.0,0.0,0.0,0.0,0.0,0.0,0.0,0.0,0.0,9.748,9.8365,9.9211,10.0096,10.0904,10.1289,10.1289,10.1289,10.1289,10.1289,10.1289,10.1289,10.1289,10.1289,10.1289,10.1289,10.1289,10.1289,10.1289,10.1289,10.1289,10.1289,10.1289,10.1289,10.1289,0.0,0.0,0.0,0.0,0.0,0.0,0.0,0.0,0.0,0.0,0.0,0.0,0.0,0.0,0.0,0.0,0.0,0.0,0.0,5.7929,5.8715,5.9473,6.0319,6.0781,6.0781,6.0781,6.0781,6.0781,6.0781,6.0781,6.0781,6.0781,6.1281,6.2127,6.2935,6.3782,6.4666,6.5513,6.5897,6.5974,6.6782,6.7628,0.0,0.0,0.0,0.0,0.0,0.0,0.0,0.0,7.5615,7.6683,7.8448,7.9105,7.9492,8.1039,8.1581,8.1658,8.1517,8.1347,8.1234,8.1234,8.1184,0.0,0.0,8.2401,8.3593,8.3593,0.0,0.0,0.0,0.0,8.894,8.9787,9.1095,0.0,0.0,0.0,0.0,0.0,0.0,0.0,0.0,0.0,0.0,0.0,0.0,0.0,0.0,0.0,0.0,9.8288,9.9135,9.9981,10.0789,10.1096,10.1289,10.1289,10.1289,10.1289,10.1289,10.1289,10.1289,10.1289,10.1289,10.1289,10.1289,10.1289,10.1289,10.1289,10.1289,10.1289,10.1289,10.1289,10.1289,10.1289,0.0,0.0,0.0,0.0,0.0,0.0,0.0,0.0,0.0,0.0,0.0,0.0,0.0,0.0,0.0,0.0,0.0,0.0,5.7487,5.8252,5.905,5.9858,6.0473,6.0781,6.0781,6.0781,6.0781,6.0781,6.0781,6.0781,6.0819,6.1089,6.1666,6.2512,6.3358,6.4205,6.5051,6.5628,6.6051,6.6359,6.7167,6.8013,0.0,0.0,0.0,0.0,0.0,0.0,0.0,0.0,7.6088,7.7055,7.8525,7.926,7.984,8.1117,8.1594,8.1646,8.1491,8.1374,8.1263,0.0,0.0,0.0,8.14,8.2593,8.3593,8.3593,8.5132,0.0,0.0,0.0,0.0,0.0,0.0,0.0,0.0,0.0,0.0,0.0,0.0,0.0,0.0,0.0,0.0,0.0,0.0,0.0,0.0,0.0,0.0,0.0,9.9635,10.0481,10.1289,10.1289,10.1289,10.1289,10.1289,10.1289,10.1289,10.1289,10.1289,10.1289,10.1289,10.1289,10.1289,10.1289,10.1289,10.1289,10.1289,10.1289,10.1289,10.1289,10.1289,10.1289,0.0,0.0,0.0,0.0,0.0,0.0,0.0,0.0,0.0,0.0,0.0,0.0,0.0,0.0,0.0,0.0,0.0,0.0,5.828,5.905,5.9896,6.0742,6.0781,6.0781,6.0781,6.0781,6.0781,6.0781,6.0781,6.0781,6.0819,6.1666,6.2512,6.3358,6.4205,6.5089,6.5897,6.5897,6.6359,6.7167,6.8052,6.8936,6.9783,0.0,0.0,0.0,0.0,0.0,0.0,0.0,7.6978,7.7829,7.8718,7.9647,8.0536,8.1271,8.1543,8.1567,8.1439,8.1291,8.1214,8.1214,0.0,0.0,8.2131,8.2978,8.3593,8.3593,0.0,0.0,0.0,0.0,0.0,0.0,0.0,0.0,0.0,0.0,0.0,0.0,0.0,0.0,0.0,0.0,0.0,0.0,0.0,0.0,0.0,0.0,0.0,0.0,9.9635,10.0481,10.1289,10.1289,10.1289,10.1289,10.1289,10.1289,10.1289,10.1289,10.1289,10.1289,10.1289,10.1289,10.1289,10.1289,10.1289,10.1289,10.1289,10.1289,10.1289,10.1289,10.1289,10.1289,0.0,0.0,0.0,0.0,0.0,0.0,0.0,0.0,0.0,0.0,0.0,0.0,0.0,0.0,0.0,0.0,0.0,0.0,5.905,5.9358,5.9896,6.0742,6.0781,6.0781,6.0781,6.0781,6.0781,6.0781,6.0781,6.0781,6.0819,6.1666,6.2512,6.3358,6.4205,6.5089,6.5936,6.6513,6.6859,6.7244,6.8706,6.9475,6.9783,0.0,0.0,0.0,0.0,0.0,0.0,0.0,0.0,0.0,7.8718,7.9569,8.042,8.1271,8.1491,8.1478,8.14,8.1291,8.1214,8.1214,0.0,0.0,0.0,8.2978,0.0,0.0,8.644,8.7671,0.0,0.0,0.0,0.0,0.0,0.0,0.0,0.0,0.0,0.0,0.0,0.0,0.0,0.0,0.0,0.0,0.0,0.0,0.0,0.0,0.0,0.0,10.0481,10.1096,10.1289,10.1289,10.1289,10.1289,10.1289,10.1289,10.1289,10.1289,10.1289,10.1289,10.1289,10.1289,10.1289,10.1289,10.1289,10.1289,10.1289,10.1289,10.1289,10.1289,10.1289,10.1289,0.0,0.0,0.0,0.0,0.0,0.0,0.0,0.0,0.0,0.0,5.6089,0.0,0.0,0.0,0.0,0.0,0.0,0.0,0.0,5.9819,6.0242,6.0781,6.0781,6.0781,6.0781,6.0781,6.0781,6.0781,6.0781,6.0973,6.132,6.2166,6.3012,6.3858,6.4743,6.559,6.6397,6.6898,6.7513,6.8205,6.9283,6.9898,7.0283,0.0,0.0,0.0,0.0,0.0,0.0,0.0,0.0,0.0,7.8834,7.9801,8.0807,8.1298,8.14,8.1347,8.1319,8.1234,8.1154,8.1154,8.1124,8.14,8.2554,0.0,0.0,0.0,0.0,8.8171,0.0,0.0,0.0,0.0,0.0,0.0,0.0,0.0,0.0,0.0,0.0,0.0,0.0,0.0,0.0,0.0,0.0,0.0,0.0,0.0,0.0,0.0,10.0904,10.1289,10.1289,10.1289,10.1289,10.1289,10.1289,10.1289,10.1289,10.1289,10.1289,10.1289,10.1289,10.1289,10.1289,10.1289,10.1289,10.1289,10.1289,10.1289,10.1289,10.1289,10.1289,10.1289,0.0,0.0,0.0,0.0,0.0,0.0,0.0,0.0,0.0,0.0,5.6012,5.5995,0.0,0.0,0.0,0.0,0.0,0.0,0.0,0.0,6.0781,6.0781,6.0781,6.0781,6.0781,6.0781,6.0781,6.0781,6.0781,6.1243,6.2127,6.2935,6.3782,6.4628,6.5513,6.6359,6.709,6.7167,6.8167,6.9706,6.9783,7.0283,7.1091,7.1898,0.0,0.0,0.0,0.0,0.0,0.0,0.0,0.0,7.9105,8.0227,8.1478,8.1427,8.1347,8.1263,8.1244,8.1154,8.1093,8.1093,8.1208,8.1747,8.3247,8.4324,8.5478,8.7055,0.0,8.894,8.9748,0.0,0.0,0.0,0.0,0.0,0.0,0.0,0.0,0.0,0.0,0.0,0.0,0.0,0.0,0.0,0.0,0.0,0.0,0.0,0.0,10.0173,10.0904,10.1289,10.1289,10.1289,10.1289,0.0,10.1289,10.1289,10.1289,10.1289,10.1289,10.1289,10.1289,10.1289,10.1289,10.1289,10.1289,10.1289,10.1289,10.1289,10.1289,10.1289,10.1289,10.1289,0.0,0.0,0.0,0.0,0.0,0.0,0.0,0.0,0.0,0.0,0.0,0.0,0.0,0.0,0.0,0.0,0.0,0.0,0.0,0.0,6.0781,6.0781,6.0781,6.0781,6.0781,6.0781,6.0781,6.0781,6.0781,6.1243,6.2127,6.2935,6.3782,6.4628,6.5513,6.6359,6.7128,6.7821,6.8744,6.9744,7.0398,7.1168,7.1937,7.2184,7.315,0.0,0.0,0.0,0.0,0.0,0.0,0.0,7.9724,8.0653,8.1504,8.1478,8.14,8.1291,8.1263,8.1214,8.1093,8.1093,8.2093,8.317,8.3516,8.4747,8.6132,8.7171,8.8094,8.894,8.9748,0.0,0.0,0.0,0.0,0.0,0.0,0.0,0.0,0.0,0.0,0.0,0.0,0.0,0.0,0.0,0.0,0.0,0.0,0.0,0.0,10.1019,10.1212,10.1289,10.1289,10.1289,10.1289,0.0,10.1289,10.1289,10.1289,10.1289,10.1289,10.1289,10.1289,10.1289,10.1289,10.1289,10.1289,10.1289,10.1289,10.1289,10.1289,10.1289,10.1289,10.1289,0.0,0.0,0.0,0.0,0.0,0.0,0.0,0.0,0.0,0.0,0.0,0.0,0.0,0.0,0.0,0.0,0.0,0.0,0.0,0.0,6.0781,6.0781,6.0781,6.0781,6.0781,6.0781,6.0781,6.0781,6.1204,6.1858,6.2704,6.3551,6.4397,6.5243,6.609,6.6936,6.7782,6.8667,6.9513,7.036,7.1206,7.1811,7.2338,7.3201,7.4128,7.5015,7.549,0.0,0.0,0.0,0.0,0.0,0.0,0.0,8.1504,8.1453,8.1374,8.1291,8.1234,8.1184,8.1208,8.1593,8.2631,8.3708,8.4132,8.5517,8.6978,8.7825,8.8363,8.9056,9.0287,0.0,0.0,0.0,0.0,0.0,0.0,0.0,0.0,0.0,0.0,0.0,0.0,0.0,0.0,0.0,0.0,0.0,0.0,9.8788,9.9558,10.1212,10.1289,10.1289,10.1289,10.1289,10.1289,10.1289,10.1289,10.1289,10.1289,10.1289,10.1289,10.1289,10.1289,10.1289,10.1289,10.1289,10.1289,10.1289,10.1289,10.1289,10.1289,10.1289,10.1289,10.1289,0.0,0.0,0.0,0.0,0.0,0.0,0.0,0.0,0.0,0.0,0.0,0.0,0.0,0.0,0.0,0.0,0.0,0.0,0.0,0.0,0.0,6.0781,6.0781,6.0781,6.0781,6.0781,6.0858,6.1012,6.1897,6.2704,6.3551,6.4282,6.5128,6.6128,6.6782,6.7667,6.8667,6.9398,7.0244,7.1206,7.1898,7.2388,7.2866,7.4279,7.4976,7.531,7.6224,0.0,0.0,0.0,0.0,0.0,0.0,0.0,8.1478,8.1427,8.1347,8.1263,8.1205,8.1154,8.1285,8.2093,8.2939,8.3824,8.4709,8.6209,8.7632,8.8517,8.8786,8.9363,9.0902,9.2018,0.0,0.0,0.0,0.0,0.0,0.0,0.0,0.0,0.0,0.0,0.0,0.0,0.0,0.0,0.0,0.0,9.8711,9.8942,9.9712,10.1289,10.1289,10.1289,10.1289,10.1289,10.1289,10.1289,10.1289,10.1289,10.1289,10.1289,10.1289,10.1289,10.1289,10.1289,10.1289,10.1289,10.1289,10.1289,10.1289,10.1289,10.1289,10.1289,10.1289,10.1289,0.0,0.0,0.0,0.0,0.0,0.0,0.0,0.0,0.0,0.0,5.6634,0.0,0.0,0.0,0.0,0.0,0.0,0.0,0.0,0.0,0.0,6.0781,6.0781,6.0781,6.0781,6.0781,6.1166,6.1935,6.2743,6.3589,6.4436,6.4551,6.5436,6.6936,6.7051,6.8013,6.9513,6.9667,7.0591,7.2052,7.2129,7.3091,7.4427,7.4676,7.5335,7.6186,0.0,0.0,0.0,0.0,7.9995,0.0,0.0,0.0,8.1504,8.1478,8.14,8.1291,8.1263,8.1214,8.1285,8.2093,8.2939,8.3824,8.4709,8.6209,8.7632,8.8517,8.9248,9.0056,9.1018,9.2479,0.0,0.0,0.0,0.0,0.0,0.0,0.0,0.0,0.0,0.0,0.0,0.0,0.0,0.0,0.0,0.0,9.875,9.9519,10.0289,10.1289,10.1289,10.1289,10.1289,10.1289,10.1289,10.1289,10.1289,10.1289,10.1289,10.1289,10.1289,10.1289,10.1289,10.1289,10.1289,10.1289,10.1289,10.1289,10.1289,10.1289,10.1289,10.1289,10.1289,10.1289,0.0,0.0,0.0,0.0,0.0,0.0,0.0,0.0,0.0,0.0,0.0,0.0,0.0,0.0,0.0,0.0,0.0,0.0,0.0,0.0,0.0,6.0781,6.0781,6.0781,6.0781,6.1281,6.1704,6.2089,6.3397,6.4205,0.0,6.5551,6.6397,6.7128,6.7628,6.8513,6.9744,7.0706,7.1514,7.2283,7.3206,7.4081,7.4802,0.0,0.0,0.0,0.0,0.0,0.0,0.0,0.0,0.0,8.1285,0.0,0.0,0.0,8.1374,8.1263,8.1214,8.1462,8.1977,8.2824,8.367,8.4555,8.5401,8.6901,8.8248,8.8632,8.9748,9.0748,9.1133,9.2556,9.371,0.0,0.0,0.0,0.0,0.0,0.0,0.0,0.0,0.0,0.0,0.0,0.0,0.0,0.0,9.7865,9.875,9.9635,10.0481,10.1289,10.1289,10.1289,10.1289,10.1289,10.1289,10.1289,10.1289,10.1289,10.1289,10.1289,10.1289,10.1289,10.1289,10.1289,10.1289,10.1289,10.1289,10.1289,10.1289,10.1289,10.1289,10.1289,10.1289,10.1289,0.0,0.0,0.0,0.0,0.0,0.0,0.0,0.0,0.0,0.0,0.0,0.0,0.0,0.0,0.0,0.0,0.0,0.0,0.0,0.0,0.0,6.0781,6.0781,6.0896,6.1127,6.1781,6.232,6.2743,6.3974,6.4705,6.4974,6.6397,6.7205,0.0,6.8359,6.9321,7.0437,7.1668,7.2437,7.2937,7.4207,7.4851,0.0,0.0,0.0,0.0,0.0,0.0,0.0,0.0,0.0,0.0,0.0,0.0,0.0,0.0,0.0,8.1311,8.1354,8.1823,8.2554,8.367,8.4439,8.5132,8.594,8.744,8.8709,8.8709,9.0017,9.1287,9.1479,9.271,9.3749,9.398,0.0,0.0,0.0,0.0,0.0,0.0,0.0,0.0,0.0,0.0,0.0,0.0,9.725,9.8096,9.875,9.9827,10.0712,10.1289,10.1289,10.1289,10.1289,10.1289,10.1289,10.1289,10.1289,10.1289,10.1289,10.1289,10.1289,10.1289,10.1289,10.1289,10.1289,10.1289,10.1289,10.1289,10.1289,10.1289,10.1289,10.1289,10.1289,10.1289,0.0,0.0,0.0,0.0,0.0,0.0,0.0,0.0,0.0,0.0,0.0,0.0,0.0,0.0,6.0742,6.0781,6.0781,6.0781,6.0781,6.0781,6.0781,6.0781,6.0781,0.0,6.2012,6.2089,6.2858,6.4474,6.4551,6.5013,6.5859,6.6705,6.7552,6.8359,6.9244,7.0552,7.2091,0.0,0.0,0.0,0.0,0.0,0.0,0.0,0.0,0.0,0.0,0.0,0.0,0.0,0.0,0.0,0.0,0.0,0.0,0.0,0.0,0.0,8.2047,8.2285,8.2708,8.4401,8.4863,8.5132,8.594,8.744,8.8709,8.8709,9.0017,9.1441,9.2287,9.3133,9.398,9.4788,9.5711,0.0,0.0,0.0,0.0,0.0,0.0,0.0,0.0,0.0,0.0,0.0,9.7827,9.875,9.8788,10.0289,10.1289,10.1289,10.1289,10.1289,10.1289,10.1289,10.1289,10.1289,10.1289,10.1289,10.1289,10.1289,10.1289,10.1289,10.1289,10.1289,10.1289,10.1289,10.1289,10.1289,10.1289,10.1289,10.1289,10.1289,10.1289,10.1404,0.0,0.0,0.0,0.0,0.0,0.0,0.0,0.0,0.0,0.0,0.0,0.0,0.0,6.065,6.0781,6.0781,6.0781,6.0781,6.0781,6.132,6.1627,6.1627,6.2127,6.2551,6.2858,6.3435,6.4012,6.4589,6.5166,6.5859,6.6667,6.7552,6.8398,6.9244,6.9552,7.0629,7.2245,7.2783,0.0,0.0,0.0,0.0,0.0,0.0,0.0,0.0,0.0,0.0,0.0,0.0,0.0,0.0,0.0,0.0,0.0,0.0,8.1244,8.1338,8.2124,8.2708,8.3401,8.4593,8.5286,8.5747,8.6017,8.744,8.8709,8.8709,9.0017,9.1479,9.2326,9.3172,9.398,9.4864,9.5711,9.6288,0.0,0.0,0.0,0.0,0.0,0.0,0.0,0.0,0.0,0.0,0.0,9.8788,9.8788,10.0404,10.1289,10.1289,10.1289,10.1289,10.1289,10.1289,10.1289,10.1289,10.1289,10.1289,10.1289,10.1289,10.1289,10.1289,10.1289,10.1289,10.1289,10.1289,10.1289,10.1289,10.1289,10.1289,10.1289,10.1289,10.1712,10.2212,0.0,0.0,0.0,0.0,0.0,0.0,0.0,0.0,0.0,0.0,0.0,0.0,0.0,0.0,6.0935,6.1204,6.1243,6.1358,6.1627,6.2166,6.2512,6.2512,6.3012,6.3435,6.3743,6.4012,6.4436,6.5051,6.5628,6.632,6.7128,6.8282,6.9283,7.0129,7.0398,7.1321,0.0,0.0,0.0,7.563,0.0,0.0,7.7707,0.0,0.0,0.0,0.0,0.0,0.0,0.0,0.0,0.0,0.0,0.0,0.0,0.0,0.0,8.1732,8.2547,8.3362,8.4247,8.5093,8.5709,8.6094,8.6094,8.744,8.8709,8.8709,9.0017,9.1479,9.2326,9.3172,9.398,9.4864,9.5711,9.6288,9.6288,0.0,0.0,0.0,0.0,0.0,0.0,0.0,0.0,0.0,0.0,0.0,9.8788,10.0096,10.1019,10.1289,10.1289,10.1289,10.1289,10.1289,10.1289,10.1289,10.1289,10.1289,10.1289,10.1289,10.1289,10.1289,10.1289,10.1289,10.1289,10.1289,10.1289,10.1289,10.1289,10.1289,10.1289,10.1597,10.2097,10.2712,0.0,0.0,0.0,0.0,0.0,0.0,0.0,0.0,0.0,0.0,0.0,0.0,0.0,0.0,0.0,6.205,6.2127,6.2474,6.3243,6.332,6.3358,6.3358,6.3358,6.3782,6.4628,6.382,6.4243,6.5936,6.5974,6.6397,6.7205,6.8898,7.0129,7.0975,7.186,7.2706,7.3591,0.0,7.5707,7.7284,0.0,7.7784,7.8631,0.0,0.0,0.0,8.0785,8.1093,0.0,0.0,0.0,0.0,0.0,0.0,0.0,0.0,0.0,0.0,0.0,0.0,0.0,8.5901,8.6094,8.6094,8.6132,8.7478,8.8709,8.8709,9.0056,9.1479,9.2326,9.3133,9.398,9.4826,9.5711,9.6288,9.6288,0.0,0.0,0.0,0.0,0.0,0.0,0.0,0.0,0.0,9.7057,9.7865,9.875,9.9635,10.0481,10.1289,10.1289,10.1289,10.1289,10.1289,10.1289,10.1289,10.1289,10.1289,10.1289,10.1289,10.1289,10.1289,10.1289,10.1289,10.1289,10.1289,10.1289,10.1289,10.1289,10.1289,10.1404,10.2328,10.2597,10.2905,0.0,0.0,0.0,0.0,0.0,0.0,0.0,0.0,0.0,0.0,0.0,0.0,0.0,0.0,6.2704,6.2935,6.2974,6.3051,6.3281,6.3897,6.4243,6.4243,6.4859,6.5282,6.5551,6.5859,6.6282,6.6782,6.7398,6.8129,6.8975,6.9475,7.0475,0.0,7.2745,7.3591,7.4399,7.463,0.0,0.0,7.7284,7.8169,0.0,0.0,0.0,0.0,0.0,8.1093,0.0,0.0,8.1093,8.1093,0.0,0.0,0.0,0.0,0.0,0.0,8.3362,0.0,0.0,0.0,0.0,0.0,8.6901,8.7902,8.8863,8.944,9.0441,9.1287,9.1518,9.271,9.3787,9.4018,9.5326,9.6288,9.6288,9.6288,0.0,0.0,0.0,0.0,0.0,0.0,0.0,0.0,9.7057,9.7865,9.875,10.0212,10.1096,10.1289,10.1289,10.1289,10.1289,10.1289,10.1289,10.1289,10.1289,10.1289,10.1289,10.1289,10.1289,10.1289,10.1289,10.1289,10.1289,10.1289,10.1289,10.1289,10.1289,10.1712,10.2327,10.252,10.3405,10.448,0.0,0.0,0.0,0.0,0.0,0.0,0.0,0.0,0.0,0.0,0.0,0.0,0.0,0.0,6.3474,6.382,6.3858,6.4012,6.4359,6.4859,6.5282,6.5628,6.6128,6.6551,6.6936,6.7051,6.7282,0.0,0.0,0.0,0.0,0.0,0.0,0.0,0.0,0.0,0.0,0.0,0.0,0.0,7.8207,0.0,0.0,8.0323,8.0669,0.0,0.0,0.0,8.1093,8.1093,8.1093,0.0,0.0,0.0,0.0,0.0,0.0,0.0,0.0,0.0,0.0,0.0,0.0,0.0,8.6748,8.7825,8.8825,8.9286,9.0364,9.121,9.121,9.2556,9.371,9.371,9.5172,9.6288,9.6288,9.6288,0.0,0.0,0.0,0.0,0.0,9.6288,9.6288,9.6288,9.6749,9.7519,9.875,10.0404,10.1289,10.1289,10.1289,10.1289,10.1289,10.1289,10.1289,10.1289,10.1289,10.1289,10.1289,10.1289,10.1289,10.1289,10.1289,10.1289,10.1289,10.1289,10.1289,10.1289,10.1289,10.1827,10.2597,10.302,10.402,10.5213,0.0,0.0,0.0,0.0,0.0,0.0,0.0,0.0,0.0,0.0,0.0,0.0,0.0,0.0,0.0,0.0,6.4974,6.5359,6.6128,6.6167,6.6513,6.7205,6.7244,6.7628,6.8398,6.7744,6.7782,0.0,0.0,0.0,0.0,0.0,0.0,0.0,0.0,0.0,0.0,0.0,0.0,7.8707,7.9477,8.0323,0.0,0.0,8.1093,0.0,8.1093,8.1093,8.1093,8.1093,8.1093,0.0,0.0,0.0,0.0,0.0,8.2978,0.0,0.0,0.0,0.0,0.0,0.0,0.0,8.6324,8.7594,8.8748,8.894,9.0171,9.121,9.121,9.2556,9.371,9.371,9.5172,9.6288,9.6288,9.6288,9.6288,0.0,0.0,0.0,9.6288,9.6288,9.6288,9.6288,9.6365,9.7134,9.8711,10.0289,10.1212,10.1289,10.1289,10.1289,10.1289,10.1289,10.1289,10.1289,10.1289,10.1289,10.1289,10.1289,10.1289,10.1289,10.1289,10.1289,10.1289,10.1289,10.1289,10.1289,10.1289,10.1904,10.2789,10.3597,10.4482,10.5407,0.0,0.0,0.0,0.0,0.0,0.0,0.0,0.0,0.0,0.0,0.0,0.0,0.0,0.0,0.0,0.0,6.7244,6.7744,6.7898,6.7898,6.7975,6.8129,6.8167,6.8244,6.8398,6.8936,6.9283,0.0,0.0,0.0,0.0,0.0,0.0,0.0,0.0,0.0,0.0,0.0,0.0,7.9554,7.9746,0.0,8.1093,8.1093,8.1093,8.1093,8.1093,8.1093,8.1093,0.0,8.1093,8.1093,0.0,0.0,0.0,0.0,0.0,0.0,0.0,0.0,0.0,0.0,0.0,0.0,8.7863,8.844,8.9094,9.0441,9.0979,9.121,9.121,9.2556,9.371,9.371,9.5172,9.6288,9.6288,9.6288,9.6288,9.6288,0.0,0.0,9.6288,9.6288,9.6288,9.6288,9.6903,9.7711,9.875,9.9788,10.0596,10.1289,10.1289,10.1289,10.1289,10.1289,10.1289,10.1289,10.1289,10.1289,10.1289,10.1289,10.1289,10.1289,10.1289,10.1289,10.1289,10.1289,10.1289,10.1289,10.1289,10.2289,10.3712,10.3789,10.4905,10.6213,0.0,0.0,0.0,0.0,0.0,0.0,0.0,0.0,0.0,0.0,0.0,0.0,0.0,0.0,0.0,0.0,0.0,6.8398,0.0,6.8398,6.859,6.9052,6.9052,6.9244,6.9629,7.009,7.0514,7.0937,0.0,0.0,0.0,0.0,0.0,0.0,0.0,0.0,0.0,0.0,8.0054,8.0439,8.0439,0.0,8.1093,8.1093,8.1093,8.1093,8.1093,8.1093,8.1093,8.1093,8.1093,0.0,0.0,8.1977,8.2477,0.0,8.4209,8.4978,0.0,0.0,0.0,8.6094,0.0,0.0,0.0,8.8709,8.9556,9.0402,9.0902,9.121,9.121,9.2249,9.321,9.3633,9.4788,9.5788,9.6249,9.6288,9.6288,9.6288,0.0,0.0,9.6288,9.6288,9.6288,9.6288,9.7057,9.7865,9.875,9.9635,10.0481,10.1289,10.1289,10.1289,10.1289,10.1289,10.1289,10.1289,10.1289,10.1289,10.1289,10.1289,10.1289,10.1289,10.1289,10.1289,10.1289,10.1289,10.1289,10.1289,10.1289,10.2404,10.3905,10.3905,10.502,10.6405,0.0,0.0,0.0,0.0,0.0,0.0,0.0,0.0,0.0,0.0,0.0,0.0,0.0,0.0,0.0,0.0,0.0,0.0,0.0,0.0,6.9513,7.0398,7.0437,7.0744,7.1398,7.1398,7.1745,7.2437,0.0,0.0,0.0,0.0,0.0,0.0,0.0,0.0,0.0,0.0,0.0,8.1093,0.0,8.1093,8.1093,8.1093,8.1093,8.1093,8.1093,8.1093,8.1093,8.1093,0.0,8.1439,8.2093,8.2516,0.0,0.0,0.0,0.0,0.0,0.0,0.0,0.0,0.0,8.744,0.0,0.0,0.0,9.0133,9.071,9.121,9.121,9.1902,0.0,0.0,0.0,0.0,0.0,9.598,0.0,9.6288,0.0,0.0,0.0,9.6288,9.6288,9.6288,9.6903,9.7634,9.8481,9.9365,10.0212,10.1019,10.1212,10.1289,10.1289,10.1289,10.1289,10.1289,10.1289,10.1289,10.1289,10.1289,10.1289,10.1289,10.1289,10.1289,10.1289,10.1289,10.1289,10.1289,10.1289,10.2404,10.3905,10.3905,10.502,10.6405,6.3012,6.3012,0.0,0.0,0.0,0.0,0.0,0.0,0.0,6.6474,0.0,0.0,0.0,0.0,0.0,0.0,0.0,0.0,7.1706,0.0,0.0,7.3053,7.3091,7.3129,7.3206,7.3206,7.3245,7.336,7.4091,0.0,0.0,0.0,0.0,0.0,7.8823,0.0,0.0,0.0,8.1016,0.0,8.1093,8.1093,0.0,8.1093,8.1093,8.1093,8.1093,8.1093,8.1093,0.0,8.1554,8.217,0.0,8.3362,0.0,0.0,0.0,0.0,0.0,0.0,0.0,0.0,8.6748,0.0,0.0,0.0,9.0133,9.0902,0.0,0.0,0.0,0.0,0.0,0.0,0.0,0.0,9.3133,9.4864,9.6288,9.6288,0.0,0.0,0.0,9.6288,9.6288,9.6288,9.6365,9.6788,9.7596,9.8481,9.9327,10.0212,10.0904,10.1289,10.1289,10.1289,10.1289,10.1289,10.1289,10.1289,10.1289,10.1289,10.1289,10.1289,10.1289,10.1289,10.1289,10.1289,10.1289,10.1289,10.1289,10.2404,10.3905,10.3905,10.4982,10.6405,6.3397,6.332,0.0,0.0,0.0,0.0,0.0,0.0,0.0,6.7744,0.0,0.0,0.0,0.0,0.0,0.0,0.0,0.0,0.0,0.0,0.0,7.3476,7.3514,0.0,7.3514,7.3514,7.3745,7.4207,7.5053,7.5707,0.0,0.0,0.0,0.0,7.9477,0.0,8.0592,0.0,8.1093,0.0,0.0,0.0,0.0,8.1093,8.1093,8.1093,8.1093,8.1093,8.117,0.0,8.2016,0.0,0.0,0.0,0.0,0.0,0.0,0.0,0.0,0.0,0.0,0.0,0.0,0.0,0.0,0.0,9.0748,0.0,0.0,0.0,0.0,0.0,0.0,0.0,9.2595,0.0,0.0,0.0,9.5711,0.0,0.0,0.0,0.0,0.0,0.0,0.0,9.6288,9.6634,9.7442,9.8327,9.9211,10.0096,10.0904,10.1289,10.1289,10.1289,10.1289,10.1289,10.1289,10.1289,10.1289,10.1289,10.1289,10.1289,10.1289,10.1289,10.1289,10.1289,10.1289,10.1289,10.1289,10.2404,10.3905,10.3866,10.4982,10.6405,0.0,0.0,0.0,0.0,0.0,0.0,0.0,0.0,0.0,0.0,0.0,0.0,7.1514,7.2168,0.0,0.0,0.0,7.3591,0.0,0.0,7.3937,0.0,0.0,0.0,0.0,0.0,7.4822,7.5399,7.6284,7.7015,0.0,0.0,0.0,0.0,0.0,8.0516,8.1093,0.0,0.0,8.1093,8.1093,8.1246,8.14,8.117,8.1246,8.1439,8.1439,8.1593,8.1862,8.2439,8.2824,0.0,8.4516,0.0,0.0,0.0,0.0,0.0,8.6094,0.0,0.0,0.0,0.0,0.0,0.0,0.0,0.0,0.0,0.0,0.0,0.0,0.0,0.0,0.0,0.0,9.2749,0.0,9.4403,0.0,0.0,0.0,0.0,0.0,0.0,0.0,9.6288,9.6288,9.6557,9.7134,9.798,9.8827,9.9712,10.0481,10.1096,10.1289,10.1289,10.1289,10.1289,10.1289,10.1289,10.1289,10.1289,10.1289,10.1289,10.1289,10.1289,10.1289,10.1289,10.1289,10.1289,10.1289,10.2212,10.3597,10.3789,10.4789,10.6097,6.8244,6.7552,0.0,0.0,0.0,0.0,0.0,0.0,0.0,0.0,0.0,0.0,0.0,0.0,0.0,0.0,0.0,7.3822,7.463,0.0,7.5053,0.0,0.0,0.0,0.0,0.0,0.0,7.7207,7.8015,7.8438,7.8477,7.9361,0.0,0.0,8.0669,8.1054,8.1093,8.1093,8.1093,8.1093,8.1093,8.1554,8.217,0.0,8.1593,8.2247,8.2247,0.0,0.0,8.3555,8.4132,0.0,0.0,0.0,0.0,0.0,0.0,0.0,0.0,0.0,0.0,0.0,0.0,0.0,0.0,0.0,9.121,0.0,0.0,0.0,0.0,0.0,0.0,0.0,0.0,0.0,0.0,0.0,0.0,0.0,0.0,0.0,0.0,0.0,0.0,9.6288,9.6288,9.6326,9.6326,9.7096,9.7942,9.8788,9.9673,10.0481,10.1289,10.1289,10.1289,10.1289,10.1289,10.1289,10.1289,10.1289,10.1289,10.1289,10.1289,10.1289,10.1289,10.1289,10.1289,10.1289,10.1289,10.1789,10.2712,10.3595,10.4403,10.5287,0.0,0.0,0.0,0.0,0.0,0.0,0.0,7.0783,0.0,0.0,0.0,0.0,0.0,0.0,7.4553,0.0,0.0,7.5284,7.5553,7.6092,0.0,0.0,0.0,7.763,0.0,0.0,0.0,0.0,0.0,7.9361,7.9361,8.0246,8.0669,8.0669,0.0,8.1093,0.0,0.0,0.0,0.0,0.0,8.2054,8.2285,0.0,0.0,8.317,8.317,8.3362,0.0,8.4286,8.467,8.5093,8.6209,8.6748,8.7055,8.7632,8.7825,0.0,0.0,0.0,8.8248,8.8248,0.0,0.0,0.0,0.0,0.0,0.0,0.0,0.0,0.0,0.0,0.0,0.0,0.0,0.0,0.0,0.0,0.0,0.0,0.0,0.0,0.0,0.0,0.0,9.6288,9.6288,9.6288,9.6288,9.7057,9.7904,9.875,9.9635,10.0481,10.1289,10.1289,10.1289,10.1289,10.1289,10.1289,10.1289,10.1289,10.1289,10.1289,10.1289,10.1289,10.1289,10.1289,10.1289,10.1289,10.1289,10.152,10.1789,10.2712,10.3905,10.521,6.9744,0.0,0.0,0.0,0.0,0.0,0.0,0.0,0.0,0.0,7.3937,0.0,7.5091,0.0,7.5861,0.0,7.6707,7.6899,7.6899,7.74,0.0,7.7707,7.8207,0.0,0.0,0.0,0.0,0.0,0.0,8.0246,8.0285,8.0823,8.1093,8.1093,8.1093,8.1093,8.1093,8.1093,8.1093,0.0,0.0,8.267,0.0,0.0,8.3824,0.0,0.0,8.467,8.5093,8.594,8.6247,8.644,8.7517,8.7863,8.7979,8.8517,8.8709,8.8709,8.8709,8.8902,0.0,0.0,8.9748,0.0,0.0,0.0,0.0,0.0,0.0,0.0,0.0,0.0,0.0,0.0,0.0,0.0,0.0,9.3672,0.0,0.0,0.0,0.0,0.0,0.0,9.6288,9.6288,9.6288,9.6288,0.0,0.0,9.7596,9.875,9.9327,10.0212,10.1289,10.1289,10.1289,10.1289,10.1289,10.1289,10.1289,10.1289,10.1289,10.1289,10.1289,10.1289,10.1289,10.1289,10.1289,10.1289,10.1289,10.1289,10.1404,10.2289,10.3712,10.521,0.0,0.0,0.0,0.0,7.1245,0.0,0.0,0.0,7.386,0.0,7.4822,7.513,7.5976,7.6823,7.7361,7.7361,7.8054,0.0,7.8477,7.8554,0.0,0.0,7.8592,7.8631,7.8631,0.0,0.0,0.0,0.0,0.0,8.1093,8.1093,8.1093,8.1093,8.1093,0.0,8.1093,8.1131,8.117,8.1285,8.2093,8.3439,8.5055,8.5863,0.0,8.5209,8.594,8.6748,8.7594,8.8402,8.8709,8.8709,8.8748,8.8748,8.8748,8.8786,8.8825,8.8825,8.8825,8.9363,8.9979,8.9979,0.0,0.0,0.0,0.0,9.121,0.0,0.0,0.0,0.0,0.0,0.0,0.0,0.0,0.0,0.0,0.0,0.0,0.0,0.0,0.0,0.0,9.6288,9.6288,9.6288,9.6288,9.6288,0.0,0.0,9.7057,9.8673,9.8788,9.9596,10.1212,10.1289,10.1289,10.1289,10.1289,10.1289,10.1289,10.1289,10.1289,10.1289,10.1289,10.1289,10.1289,10.1289,10.1289,10.1289,10.1289,10.1289,10.1404,10.2289,10.3635,10.5018,7.3168,7.336,7.3476,0.0,7.3283,7.3437,0.0,0.0,0.0,0.0,7.6245,7.6707,7.6938,7.7707,7.8169,7.8169,7.8339,0.0,0.0,0.0,0.0,7.9477,8.0092,8.0439,8.0439,8.0631,0.0,8.0785,0.0,0.0,8.1093,8.1093,8.1093,8.1093,8.1093,8.1093,8.1131,8.1747,8.2362,8.3016,8.3901,8.4863,0.0,0.0,8.7325,8.7748,8.794,8.8171,8.8402,8.8632,8.8709,8.8786,8.9402,8.9594,8.971,9.0364,9.0556,9.0556,9.0556,9.071,9.0864,9.0864,9.1018,9.121,0.0,0.0,0.0,0.0,0.0,0.0,0.0,0.0,0.0,0.0,0.0,0.0,0.0,0.0,0.0,0.0,0.0,0.0,0.0,9.6288,9.6288,9.6288,9.6288,0.0,0.0,0.0,0.0,9.7788,9.8442,9.9327,10.0404,10.1019,10.1289,10.1289,10.1289,10.1289,10.1289,10.1289,10.1289,10.1289,10.1289,10.1289,10.1289,10.1289,10.1289,10.1289,10.1289,10.1289,10.1404,10.2289,10.2904,10.3289,7.4014,0.0,0.0,7.5745,0.0,0.0,7.5822,0.0,0.0,7.6976,7.7515,0.0,7.7823,7.8554,7.9054,7.9031,7.9307,0.0,0.0,0.0,0.0,8.0362,8.0823,8.1093,8.1093,8.1093,0.0,8.1093,0.0,0.0,8.1093,8.1093,8.1093,8.1093,8.1093,8.1285,8.167,8.2516,8.3555,8.4747,8.5247,0.0,0.0,8.8171,8.8786,8.9286,8.9671,8.9556,8.9286,8.9671,8.9787,8.9863,9.0325,9.0479,9.0556,9.1056,9.121,9.121,9.121,9.1479,9.1787,9.1787,9.2018,9.2287,9.2287,9.2287,9.2287,0.0,0.0,0.0,0.0,0.0,0.0,0.0,0.0,0.0,0.0,0.0,0.0,0.0,0.0,0.0,0.0,0.0,9.6288,9.6288,0.0,0.0,0.0,0.0,0.0,9.748,9.8365,9.9211,10.0096,10.0904,10.1289,10.1289,10.1289,10.1289,10.1289,10.1289,10.1289,10.1289,10.1289,10.1289,10.1289,10.1289,10.1289,10.1289,10.1289,10.1289,10.1404,10.1904,10.2289,10.2674,0.0,0.0,0.0,0.0,0.0,0.0,0.0,7.7455,0.0,7.8369,0.0,7.8538,7.8538,7.9236,7.9709,0.0,0.0,8.0681,8.0681,8.0681,8.0716,8.0855,8.0926,8.0959,8.0959,8.1061,0.0,0.0,0.0,0.0,8.1093,8.1093,8.1093,8.1093,8.1208,8.1785,8.2708,8.3555,8.4824,8.6286,8.6401,8.7401,8.894,8.9633,8.9979,9.0171,9.1056,9.0825,9.021,9.0941,9.1287,9.1364,9.1364,9.1441,9.1518,9.1518,9.1518,9.1518,9.1518,9.2095,9.2672,9.2672,9.3172,9.371,9.371,9.371,9.371,9.371,9.3787,0.0,0.0,0.0,0.0,0.0,0.0,0.0,0.0,0.0,0.0,0.0,0.0,0.0,0.0,0.0,0.0,0.0,0.0,0.0,0.0,0.0,0.0,9.7326,9.8288,0.0,9.9904,0.0,10.1289,10.1289,10.1289,10.1289,10.1289,10.1289,10.1289,10.1289,10.1289,10.1289,10.1289,10.1289,10.1289,10.1289,10.1289,10.1289,10.1289,10.1289,10.1789,10.2404,0.0,0.0,0.0,0.0,0.0,7.8448,7.8594,7.8352,7.8179,7.8333,7.8517,0.0,7.8676,7.9043,7.9324,7.928,7.9343,0.0,0.0,0.0,0.0,7.9513,7.9926,8.0201,8.0201,8.0681,8.0959,0.0,0.0,0.0,8.1093,8.1093,8.1093,8.1131,8.1785,8.2978,8.4516,8.5324,0.0,8.7248,8.794,8.8825,8.971,8.9863,9.0364,9.1095,9.1979,9.171,9.1018,9.1171,9.1672,9.2287,9.2287,9.271,9.3249,9.3249,9.3249,9.3249,9.3249,9.3364,9.348,9.348,9.3595,9.371,9.371,9.371,9.371,9.371,9.4249,9.4749,9.4749,0.0,0.0,0.0,0.0,0.0,0.0,0.0,0.0,0.0,0.0,0.0,0.0,0.0,0.0,0.0,0.0,0.0,0.0,0.0,0.0,0.0,9.798,0.0,0.0,0.0,10.1289,10.1289,10.1289,10.1289,10.1289,10.1289,10.1289,10.1289,10.1289,10.1289,10.1289,10.1289,10.1289,10.1289,10.1289,10.1289,10.1289,10.1289,10.1404,10.152,0.0,0.0,0.0,0.0,0.0,0.0,0.0,7.8765,0.0,7.8747,7.8887,7.8988,7.8988,7.9109,7.9198,7.9143,7.9133,7.9133,7.9143,7.9133,7.9095,7.9198,7.9718,0.0,8.0005,0.0,8.0888,8.0888,0.0,0.0,0.0,0.0,8.1708,8.1785,8.3054,8.4362,0.0,0.0,0.0,8.8748,8.9133,8.9825,9.0633,9.1095,9.1518,9.1979,9.2826,9.2864,9.2518,9.2518,9.2787,9.3133,9.3133,9.3403,9.371,9.371,9.371,9.371,9.371,9.4018,9.4364,9.4364,9.4711,9.5057,9.5057,9.5057,9.5057,9.5057,9.5365,9.5672,9.5672,9.6019,0.0,0.0,0.0,0.0,0.0,0.0,0.0,0.0,0.0,0.0,0.0,0.0,0.0,0.0,0.0,0.0,0.0,0.0,0.0,0.0,0.0,0.0,0.0,0.0,0.0,10.1289,10.1289,10.1289,10.1289,10.1289,10.1289,10.1289,10.1289,10.1289,10.1289,10.1289,10.1289,10.1289,10.1289,10.1289,10.1289,10.1289,10.1289,10.1289,0.0,7.922,0.0,0.0,7.9426,0.0,0.0,7.8791,7.8841,7.9105,7.901,7.8962,7.8962,7.8865,7.8804,7.8741,7.869,7.869,7.869,7.869,7.8704,7.8766,7.9328,7.9589,7.9589,8.0354,8.0769,0.0,0.0,0.0,0.0,0.0,0.0,0.0,0.0,0.0,0.0,0.0,8.8709,8.994,9.0094,9.071,9.1556,9.2249,9.2595,9.2864,9.3672,9.398,9.398,9.4172,9.4134,9.398,9.398,9.4095,9.4249,9.4249,9.4249,9.4249,9.4249,9.4749,9.5288,9.5288,9.5788,9.6288,9.6288,9.6288,9.6288,9.6288,9.6288,9.6288,9.6288,9.6288,0.0,0.0,0.0,0.0,0.0,0.0,0.0,0.0,0.0,0.0,0.0,0.0,0.0,0.0,0.0,0.0,0.0,0.0,0.0,0.0,0.0,9.8788,9.8788,0.0,10.1289,0.0,10.1289,10.1289,10.1289,10.1289,10.1289,10.1289,10.1289,10.1289,10.1289,10.1289,10.1289,10.1289,10.1289,10.1289,10.1289,10.1289,10.1289,10.1289,0.0,0.0,0.0,0.0,0.0,0.0,0.0,7.8255,7.8363,7.8891,7.8484,7.82,7.82,7.7768,7.745,7.745,7.745,7.745,7.745,7.745,7.745,7.745,7.8016,7.8309,7.8309,7.9604,8.0358,0.0,0.0,0.0,0.0,0.0,0.0,0.0,0.0,0.0,0.0,8.9325,8.9748,8.9979,9.0748,9.1595,9.2402,9.2479,9.2941,9.371,9.4557,9.4864,9.498,9.5788,9.5518,9.4864,9.4864,9.5403,9.6057,9.6057,9.6057,9.6057,9.6057,9.6134,9.6172,9.6172,9.6249,9.6288,9.6288,9.6288,9.6288,9.6288,9.6288,9.6288,9.6288,9.6288,9.6288,0.0,0.0,0.0,0.0,0.0,0.0,0.0,0.0,0.0,0.0,0.0,0.0,0.0,0.0,0.0,0.0,0.0,0.0,9.6288,0.0,9.8788,9.8788,10.0519,0.0,10.1289,10.1289,10.1289,10.1289,10.1289,10.1289,10.1289,10.1289,10.1289,10.1289,10.1289,10.1289,10.1289,10.1289,10.1289,10.1289,10.1289,10.1289,10.1289,0.0,0.0,0.0,0.0,0.0,0.0,0.0,7.7651,7.7894,7.8607,7.81,7.7629,7.7629,7.7867,7.8075,7.8075,7.8516,7.8809,7.8809,7.8809,7.8809,7.8809,7.9305,7.9614,7.9614,8.0526,8.1031,0.0,0.0,0.0,0.0,0.0,0.0,0.0,0.0,8.8037,8.9406,8.9419,8.9726,9.0263,9.078,9.1438,9.2141,9.3136,9.3908,9.4595,9.548,9.5788,9.5826,9.6172,9.6057,9.5788,9.5788,9.6019,9.6288,9.6288,9.6288,9.6288,9.6288,9.6288,9.6288,9.6288,9.6288,9.6288,9.6288,9.6288,9.6288,9.6288,9.6288,9.6288,9.6288,9.6288,9.6288,0.0,0.0,0.0,0.0,0.0,0.0,0.0,0.0,0.0,0.0,0.0,0.0,0.0,0.0,0.0,0.0,0.0,0.0,9.6288,0.0,9.8788,9.8788,10.0519,10.1289,10.1289,10.1289,10.1289,10.1289,10.1289,10.1289,10.1289,10.1289,10.1289,10.1289,10.1289,10.1289,10.1289,10.1289,10.1289,10.1289,10.1289,10.1289,10.1289,7.8653,0.0,7.8588,0.0,7.8202,7.8253,7.7733,7.7892,7.8259,7.8883,7.8405,7.8038,7.8038,7.8589,7.8956,7.8956,7.947,7.98,7.98,7.98,7.98,7.98,8.0161,0.0,8.0363,8.1028,8.1489,8.1697,8.2308,0.0,0.0,0.0,0.0,0.0,8.8138,8.88,8.9803,8.9668,8.9958,9.0606,9.1216,9.1757,9.2328,9.3683,9.4505,9.4978,9.575,9.602,9.6059,9.6251,9.6288,9.6288,9.6288,9.6288,9.6288,9.6288,9.6288,9.6288,9.6288,9.6288,9.6288,9.6288,9.6288,9.6288,9.6288,9.6288,9.6288,9.6288,9.6288,9.6288,9.6288,9.6288,9.6288,0.0,0.0,0.0,0.0,0.0,0.0,0.0,0.0,9.6288,9.6288,0.0,0.0,0.0,0.0,0.0,0.0,0.0,0.0,0.0,0.0,0.0,0.0,10.0519,10.1289,10.1289,10.1289,10.1289,10.1289,10.1289,10.1289,10.1289,10.1289,10.1289,10.1289,10.1289,10.1289,10.1289,10.1289,10.1289,10.1289,10.1289,10.1289,10.1289,7.7643,7.7584,7.7524,7.7341,7.8002,7.8589,7.8589,7.925,7.9764,7.9764,7.9764,7.9764,7.9764,7.9764,7.9764,7.9764,7.9764,7.98,7.98,7.98,7.98,0.0,0.0,7.98,7.98,8.0571,8.1379,8.2215,0.0,0.0,8.4286,0.0,8.686,8.8116,8.8714,8.9254,8.9687,9.051,9.0889,9.1014,9.2322,9.303,9.3365,9.4006,9.4363,9.4706,9.5189,9.5407,9.5495,9.6098,9.6288,9.6288,9.6288,9.6288,9.6288,9.6288,9.6288,9.6288,9.6288,9.6288,9.6288,9.6288,9.6288,9.6288,9.6288,9.6288,9.6288,9.6288,9.6288,9.6288,9.6288,9.6288,9.6288,9.6288,0.0,0.0,0.0,0.0,0.0,0.0,9.6288,9.6288,9.6288,0.0,0.0,0.0,0.0,0.0,0.0,0.0,0.0,9.6288,9.7942,0.0,9.8788,10.0519,10.1289,10.1289,10.1289,10.1289,10.1289,10.1289,10.1289,10.1289,10.1289,10.1289,10.1289,10.1289,10.1289,10.1289,10.1289,10.1289,10.1289,10.1289,10.1289,10.1289,7.9154,7.9092,7.9092,7.8993,7.9213,7.9396,7.9396,7.9617,7.9984,8.0534,8.1085,8.1636,8.2186,8.1269,8.0828,0.0,8.1929,8.248,0.0,8.3067,8.3067,8.3067,8.3067,8.3067,8.3067,8.3324,8.3581,8.3838,0.0,0.0,0.0,8.65,8.7448,8.8609,8.8662,8.9376,9.0461,9.0404,9.0604,9.1057,9.1808,9.2296,9.273,9.3574,9.4167,9.4604,9.4806,9.4855,9.4953,9.549,9.57,9.5741,9.6174,9.6288,9.6288,9.6288,9.6288,9.6288,9.6288,9.6288,9.6288,9.6288,9.6288,9.6288,9.6288,9.6288,9.6288,9.6288,9.6288,9.6288,9.6288,9.6288,9.6288,9.6288,0.0,0.0,0.0,0.0,0.0,0.0,0.0,9.6288,0.0,9.6288,0.0,0.0,0.0,0.0,0.0,0.0,0.0,0.0,9.7942,0.0,9.8788,10.0519,10.1289,10.1289,10.1289,10.1289,10.1289,10.1289,10.1289,10.1289,10.1289,10.1289,10.1289,10.1289,10.1289,10.1289,10.1289,10.1289,10.1289,10.1289,10.1289,10.1289,7.98,7.98,7.98,7.98,8.0021,8.0351,8.0645,8.0938,8.1452,8.226,8.2774,8.3287,8.3801,8.2957,0.0,8.3067,8.3581,8.4058,8.4572,8.4609,8.4609,8.4609,8.4609,8.4609,8.4609,0.0,0.0,8.5049,8.5478,8.6016,8.673,8.7192,8.7869,8.8652,8.8832,8.9515,9.0531,9.0558,9.0764,9.1224,9.2082,9.248,9.2642,9.3492,9.3914,9.3991,9.4215,9.4287,9.4394,9.4904,9.5096,9.518,9.5533,9.5657,9.578,9.6174,9.6288,9.6288,9.6288,9.6288,9.6288,9.6288,9.6288,9.6288,9.6288,9.6288,9.6288,9.6288,9.6288,9.6288,9.6288,9.6288,9.6288,9.6288,0.0,0.0,0.0,0.0,0.0,0.0,0.0,0.0,0.0,9.6288,0.0,0.0,0.0,0.0,0.0,0.0,0.0,9.6288,9.7942,0.0,9.8788,10.0519,10.1289,10.1289,10.1289,10.1289,10.1289,10.1289,10.1289,10.1289,10.1289,10.1289,10.1289,10.1289,10.1289,10.1289,10.1289,10.1289,10.1289,10.1289,10.1289,10.1289,7.9947,7.9947,0.0,0.0,8.0681,0.0,8.2223,8.2994,8.3765,8.4499,8.4646,8.4682,8.4682,8.4719,8.4756,8.4756,0.0,0.0,0.0,8.4756,8.4756,8.4756,8.4756,0.0,8.4756,8.4756,8.5123,8.5857,8.6628,8.7031,8.7105,8.7665,8.8174,8.8625,8.9145,8.9692,9.012,9.0895,9.1364,9.1609,9.2953,9.3226,9.2951,9.3475,9.3389,9.3054,9.3536,9.3739,9.3798,9.4341,9.4552,9.4552,9.4604,9.4604,9.4806,9.5862,9.6213,9.6251,9.6251,9.6251,9.6251,9.6251,9.6213,9.6174,9.6174,9.6213,9.6251,9.6251,9.6251,9.6288,9.6288,9.6288,9.6288,9.6288,9.6288,9.6288,9.6288,0.0,0.0,0.0,0.0,0.0,0.0,9.6288,9.6288,0.0,0.0,0.0,0.0,0.0,9.6326,9.6365,9.7942,9.8827,9.8904,10.0519,10.1289,10.1289,10.1289,10.1289,10.1289,10.1289,10.1289,10.1289,10.1289,10.1289,10.1289,10.1289,10.1289,10.1289,10.1289,10.1289,10.1289,10.1289,10.1289,10.1289,0.0,0.0,8.1819,8.2443,8.27,8.3104,8.3911,8.4205,8.4389,8.4572,8.5123,8.5527,8.5527,8.6077,8.6444,8.6444,8.5857,8.5783,8.6407,8.6444,8.6444,8.6444,8.6444,8.6444,8.6444,8.6444,8.6554,8.6738,8.6921,8.7394,8.812,8.8151,8.8662,8.9646,8.9609,9.012,9.0932,9.1253,9.1629,9.2045,9.264,9.2647,9.2303,9.261,9.2647,9.2616,9.2847,9.2979,9.3072,9.3739,9.3991,9.4048,9.4447,9.4604,9.4655,9.4904,9.5273,9.5619,9.5619,9.5619,9.5619,9.5619,9.5318,9.5039,9.5039,9.5318,9.5619,9.5619,9.5981,9.6288,9.6288,9.6288,9.6288,9.6288,9.6288,9.6288,9.6288,0.0,0.0,0.0,9.6288,9.6288,9.6288,9.6288,9.6288,0.0,0.0,0.0,0.0,0.0,9.6596,9.7211,9.825,9.9096,9.9788,10.0789,10.1289,10.1289,10.1289,10.1289,10.1289,10.1289,10.1289,10.1289,10.1289,10.1289,10.1289,10.1289,10.1289,10.1289,10.1289,10.1289,10.1289,10.1289,10.1289,10.1289,8.3214,8.3287,8.3434,8.3875,8.3948,8.4242,8.5013,8.5159,8.527,8.5637,8.6077,8.6334,8.6334,8.6738,8.6995,8.6995,8.6591,8.6518,8.6995,8.6995,8.6995,8.6995,8.6995,8.6995,8.6995,8.6995,8.7178,8.7545,8.7949,8.8423,8.8897,8.8827,8.9268,9.025,9.018,9.0622,9.1465,9.1606,9.1864,9.2091,9.234,9.2303,9.2233,9.2409,9.2409,9.2409,9.2547,9.2616,9.2751,9.3136,9.3389,9.3513,9.3798,9.3856,9.3856,9.3856,9.4394,9.5048,9.5048,9.5048,9.5048,9.5048,9.4806,9.4604,9.4604,9.4806,9.5096,9.5363,9.5661,9.5981,9.6251,9.6288,9.6288,9.6288,9.6288,9.6288,9.6288,9.6288,0.0,9.6288,9.6288,9.6288,9.6288,9.6288,9.6288,9.6288,0.0,0.0,9.6288,9.6634,9.7057,9.748,9.8365,9.9211,10.0096,10.0904,10.1289,10.1289,10.1289,10.1289,10.1289,10.1289,10.1289,10.1289,10.1289,10.1289,10.1289,10.1289,10.1289,10.1289,10.1289,10.1289,10.1289,10.1289,10.1289,10.1289,8.4462,8.4609,8.4646,8.4756,8.4792,8.5049,8.5857,8.5967,8.6224,8.6921,8.6995,8.7068,8.7178,8.7178,8.7252,8.7362,8.7362,8.7325,8.7215,8.7178,8.7252,8.7362,8.7362,8.7362,8.7362,8.7362,8.7692,8.839,8.9087,8.9491,8.9601,8.9601,9.0005,9.0776,9.0776,9.1179,9.1803,9.1803,9.1948,9.2091,9.2091,9.2162,9.2303,9.2303,9.2303,9.2303,9.2303,9.2479,9.2616,9.2616,9.2788,9.2922,9.2922,9.2988,9.2988,9.2988,9.3657,9.4341,9.4447,9.45,9.4447,9.4394,9.4341,9.4341,9.4341,9.4394,9.4604,9.5048,9.5318,9.5576,9.6059,9.6251,9.6288,9.6288,9.6288,9.6288,9.6288,0.0,9.6288,9.6288,9.6288,9.6288,9.6288,9.6288,9.6288,9.6288,9.6288,0.0,0.0,9.7134,9.7634,9.7865,9.8596,9.9404,10.0289,10.0981,10.1289,10.1289,10.1289,10.1289,10.1289,10.1289,10.1289,10.1289,10.1289,10.1289,10.1289,10.1289,10.1289,10.1289,10.1289,10.1289,10.1289,10.1289,10.1289,10.1289,8.4572,8.4609,8.4792,8.549,8.56,8.5894,8.6701,8.6811,8.6885,8.6995,8.6995,8.7252,8.7949,8.8023,8.828,8.8977,8.905,8.8757,8.8059,8.8023,8.8316,8.9014,8.905,8.905,8.905,8.905,8.9124,8.9234,8.9344,8.9784,9.0408,9.0408,9.0849,9.162,9.162,9.1693,9.1803,9.1948,9.1948,9.1876,9.202,9.202,9.1876,9.1876,9.1876,9.1948,9.2091,9.2162,9.2233,9.2409,9.2547,9.2788,9.2788,9.2855,9.2988,9.2988,9.3082,9.3364,9.3798,9.3877,9.3798,9.3326,9.3237,9.3237,9.3237,9.3597,9.3972,9.4048,9.4756,9.5407,9.5533,9.5981,9.6288,9.6288,9.6288,9.6288,0.0,0.0,9.6288,9.6288,9.6288,9.6288,9.6288,9.6288,9.6288,9.6288,9.6288,9.6596,9.7288,9.7442,9.8173,9.9635,9.9827,10.0289,10.1096,10.1212,10.1289,10.1289,10.1289,10.1289,10.1289,10.1289,10.1289,10.1289,10.1289,10.1289,10.1289,10.1289,10.1289,10.1289,10.1289,10.1289,10.1289,10.1289,10.1289,10.1289,8.582,8.5894,8.6004,8.6371,8.6444,8.6591,8.6958,8.6995,8.7178,8.7582,8.7655,8.7949,8.8757,8.8867,8.9014,8.9381,8.9417,8.9454,8.9491,8.9087,8.9014,8.9381,8.9417,8.9417,8.9417,8.9821,9.0078,9.0078,9.0482,9.0886,9.1253,9.1253,9.1436,9.1803,9.1803,9.1803,9.1803,9.1876,9.1876,9.1803,9.1876,9.1876,9.1803,9.1803,9.1803,9.1803,9.1876,9.202,9.2091,9.2303,9.2547,9.2684,9.2855,9.2922,9.2988,9.2988,9.2988,9.3054,9.3301,9.3326,9.3301,9.3054,9.2988,9.2988,9.2988,9.3211,9.3536,9.4104,9.4604,9.518,9.5741,9.6136,9.6288,9.6288,9.6288,0.0,0.0,9.6288,9.6288,9.6288,9.6288,9.6288,9.6288,9.6288,9.6288,9.6288,9.6711,9.7096,9.748,9.8404,9.925,10.0096,10.0481,10.0904,10.1289,10.1289,10.1289,10.1289,10.1289,10.1289,10.1289,10.1289,10.1289,10.1289,10.1289,10.1289,10.1289,10.1289,10.1289,10.1289,10.1289,10.1289,10.1289,10.1289,10.1289,10.1289,8.6885,8.6995,8.6995,8.6995,8.7142,8.7288,8.7288,8.7435,8.7802,8.839,8.85,8.8793,8.9601,8.9711,8.9784,8.9968,8.9968,9.0225,9.0849,9.0298,8.9968,8.9968,8.9968,8.9968,8.9968,9.0555,9.0886,9.0886,9.151,9.1803,9.1803,9.1803,9.1803,9.1803,9.1803,9.1803,9.1803,9.1803,9.1803,9.1803,9.1803,9.1803,9.1803,9.1803,9.1803,9.1803,9.1803,9.1876,9.202,9.2233,9.2409,9.2684,9.2855,9.2922,9.2988,9.2988,9.2988,9.2988,9.2988,9.2988,9.2988,9.2988,9.2988,9.2988,9.2988,9.2988,9.3237,9.4048,9.4394,9.4855,9.5738,9.6136,9.6288,9.6288,0.0,0.0,0.0,9.6288,9.6288,9.6288,9.6288,9.6288,9.6288,9.6288,9.6365,9.6557,9.7134,9.7673,9.8096,9.9365,10.0173,10.0404,10.1019,10.1289,10.1289,10.1289,10.1289,10.1289,10.1289,10.1289,10.1289,10.1289,10.1289,10.1289,10.1289,10.1289,10.1289,10.1289,10.1289,10.1289,10.1289,10.1289,10.1289,10.1289,10.1289,10.1289,8.6995,8.6995,8.6995,8.6995,8.7619,8.8096,8.8096,8.8757,8.9271,8.9307,8.9344,8.9638,9.0445,9.0519,9.0812,9.1546,9.162,9.1657,9.1693,9.1657,9.162,9.162,9.162,9.162,9.162,9.1693,9.1693,9.1693,9.1767,9.1803,9.1803,9.1803,9.1803,9.1803,9.1803,9.1803,9.1803,9.1803,9.1803,9.1803,9.1803,9.1803,9.1803,9.1803,9.1803,9.1803,9.1803,9.1803,9.1803,9.1876,9.2091,9.2409,9.2479,9.2684,9.2988,9.2988,9.2988,9.2988,9.2988,9.2988,9.2988,9.2988,9.2988,9.2988,9.2988,9.2988,9.3054,9.3082,9.3914,9.4604,9.4706,9.5615,9.6288,9.6288,0.0,0.0,9.6288,9.6288,9.6288,9.6288,9.6288,9.6288,9.6288,9.6288,9.6596,9.7365,9.748,9.8211,9.9827,9.9981,10.0404,10.1212,10.1289,10.1289,10.1289,10.1289,10.1289,10.1289,10.1289,10.1289,10.1289,10.1289,10.1289,10.1289,10.1289,10.1289,10.1289,10.1289,10.1289,10.1289,10.1289,10.1289,10.1289,10.1289,10.1289,10.1289,8.7655,8.7729,8.7912,8.8426,8.8757,8.894,8.894,8.9234,8.9601,9.0078,9.0152,9.0445,9.1253,9.1326,9.1473,9.1767,9.1803,9.1803,9.1803,9.1803,9.1803,9.1803,9.1803,9.1803,9.1803,9.1803,9.1803,9.1803,9.1803,9.1803,9.1803,9.1803,9.1803,9.1803,9.1803,9.1803,9.1803,9.1803,9.1803,9.1803,9.1803,9.1803,9.1803,9.1803,9.1803,9.1803,9.1803,9.1803,9.1803,9.1948,9.2091,9.2233,9.2373,9.2616,9.2855,9.2988,9.2988,9.2988,9.2988,9.2988,9.2988,9.2988,9.2988,9.2988,9.2988,9.2988,9.3082,9.3451,9.3798,9.4287,9.4953,9.5446,9.5862,9.6251,0.0,9.6288,9.6288,9.6288,9.6288,9.6288,9.6288,9.6288,9.6288,9.6749,9.7173,9.748,9.8481,9.9404,10.0096,10.0596,10.1019,10.1289,10.1289,10.1289,10.1289,10.1289,10.1289,10.1289,10.1289,10.1289,10.1289,10.1289,10.1289,10.1289,10.1289,10.1289,10.1289,10.1289,10.1289,10.1289,10.1289,10.1289,10.1289,10.1289,10.1289,10.1289,8.8463,8.8573,8.8757,8.9307,8.9638,8.9784,8.9784,9.0005,9.0372,9.0922,9.0996,9.1179,9.173,9.1803,9.1803,9.1803,9.1803,9.1803,9.1803,9.1803,9.1803,9.1803,9.1803,9.1803,9.1803,9.1803,9.1803,9.1803,9.1803,9.1803,9.1803,9.1803,9.1803,9.1803,9.1803,9.1803,9.1803,9.1803,9.1803,9.1803,9.1803,9.1803,9.1803,9.1803,9.1803,9.1803,9.1803,9.1803,9.1803,9.1948,9.202,9.2091,9.2233,9.2479,9.2684,9.2855,9.2922,9.2988,9.2988,9.2988,9.2988,9.2988,9.2988,9.2988,9.2988,9.2988,9.3082,9.3451,9.3717,9.4048,9.5001,9.5318,9.5576,9.6174,9.6288,9.6288,9.6288,9.6288,9.6288,9.6288,9.6519,9.6673,9.6673,9.7403,9.8019,9.8288,9.9404,10.0212,10.0481,10.1019,10.1289,10.1289,10.1289,10.1289,10.1289,10.1289,10.1289,10.1289,10.1289,10.1289,10.1289,10.1289,10.1289,10.1289,10.1289,10.1289,10.1289,10.1289,10.1289,10.1289,10.1289,10.1289,10.1289,10.1289,10.1289,10.1289,8.9417,8.9417,8.9417,8.9454,9.0078,9.0629,9.0629,9.1289,9.1803,9.1803,9.1803,9.1803,9.1803,9.1803,9.1803,9.1803,9.1803,9.1803,9.1803,9.1803,9.1803,9.1803,9.1803,9.1803,9.1803,9.1803,9.1803,9.1803,9.1803,9.1803,9.1803,9.1803,9.1803,9.1803,9.1803,9.1803,9.1803,9.1803,9.1803,9.1803,9.1803,9.1803,9.1803,9.1803,9.1803,9.1803,9.1803,9.1803,9.1803,9.1803,9.1948,9.2091,9.2091,9.2373,9.2684,9.2684,9.2855,9.2988,9.2988,9.2988,9.2988,9.2988,9.2988,9.2988,9.2988,9.2988,9.2988,9.2988,9.3389,9.3934,9.45,9.5048,9.5576,9.6174,9.6288,9.6288,9.6288,9.6326,9.6326,9.6326,9.7019,9.7519,9.7519,9.8288,9.9173,9.9981,10.0096,10.0481,10.1289,10.1289,10.1289,10.1289,10.1289,10.1289,10.1289,10.1289,10.1289,10.1289,10.1289,10.1289,10.1289,10.1289,10.1289,10.1289,10.1289,10.1289,10.1289,10.1289,10.1289,10.1289,10.1289,10.1289,10.1289,10.1289,10.1289,10.1289,9.0152,9.0262,9.0445,9.0996,9.1289,9.1436,9.1436,9.1657,9.1803,9.1803,9.1803,9.1803,9.1803,9.1803,9.1803,9.1803,9.1803,9.1803,9.1803,9.1803,9.1803,9.1803,9.1803,9.1803,9.1803,9.1803,9.1803,9.1803,9.1803,9.1803,9.1803,9.1803,9.1803,9.1803,9.1803,9.1803,9.1803,9.1803,9.1803,9.1803,9.1803,9.1803,9.1803,9.1803,9.1803,9.1803,9.1803,9.1803,9.1803,9.1803,9.1876,9.1948,9.202,9.2162,9.234,9.2479,9.2547,9.2547,9.2547,9.2547,9.2616,9.2922,9.2988,9.2988,9.2988,9.2988,9.2988,9.2988,9.3146,9.3389,9.3934,9.4447,9.5001,9.5576,9.602,9.6288,9.6288,9.6788,9.7134,9.7134,9.7904,9.8404,9.8404,9.9211,9.9827,10.0096,10.0596,10.1019,10.1289,10.1289,10.1289,10.1289,10.1289,10.1289,10.1289,10.1289,10.1289,10.1289,10.1289,10.1289,10.1289,10.1289,10.1289,10.1289,10.1289,10.1289,10.1289,10.1289,10.1289,10.1289,10.1289,10.1289,10.1289,10.1289,10.1289,10.1289,9.0996,9.1069,9.1216,9.173,9.1803,9.1803,9.1803,9.1803,9.1803,9.1803,9.1803,9.1803,9.1803,9.1803,9.1803,9.1803,9.1803,9.1803,9.1803,9.1803,9.1803,9.1803,9.1803,9.1803,9.1803,9.1803,9.1803,9.1803,9.1803,9.1803,9.1803,9.1803,9.1803,9.1803,9.1803,9.1803,9.1803,9.1803,9.1803,9.1803,9.1803,9.1803,9.1803,9.1803,9.1803,9.1803,9.1803,9.1803,9.1803,9.1803,9.1803,9.1803,9.1948,9.202,9.2091,9.2233,9.234,9.2409,9.2409,9.2409,9.2479,9.2684,9.2855,9.2922,9.2988,9.2988,9.2988,9.2988,9.2988,9.3146,9.3717,9.4048,9.4552,9.5273,9.5968,9.6519,9.6712,9.748,9.8019,9.8019,9.8788,9.9288,9.9288,10.0096,10.0596,10.0596,10.1019,10.1289,10.1289,10.1289,10.1289,10.1289,10.1289,10.1289,10.1289,10.1289,10.1289,10.1289,10.1289,10.1289,10.1289,10.1289,10.1289,10.1289,10.1289,10.1289,10.1289,10.1289,10.1289,10.1289,10.1289,10.1289,10.1289,10.1289,10.1289,10.1289,9.1803,9.1803,9.1803,9.1803,9.1803,9.1803,9.1803,9.1803,9.1803,9.1803,9.1803,9.1803,9.1803,9.1803,9.1803,9.1803,9.1803,9.1803,9.1803,9.1803,9.1803,9.1803,9.1803,9.1803,9.1803,9.1803,9.1803,9.1803,9.1803,9.1803,9.1803,9.1803,9.1803,9.1803,9.1803,9.1803,9.1803,9.1803,9.1803,9.1803,9.1803,9.1803,9.1803,9.1803,9.1803,9.1803,9.1803,9.1803,9.1803,9.1803,9.1803,9.1803,9.1803,9.1948,9.2091,9.2091,9.2162,9.234,9.234,9.234,9.2303,9.2409,9.2547,9.2684,9.2922,9.2988,9.2988,9.2988,9.2988,9.3146,9.3657,9.3814,9.4217,9.521,9.6203,9.6997,9.7481,9.8327,9.8904,9.8904,9.9673,10.0212,10.0212,10.0904,10.1289,10.1289,10.1289,10.1289,10.1289,10.1289,10.1289,10.1289,10.1289,10.1289,10.1289,10.1289,10.1289,10.1289,10.1289,10.1289,10.1289,10.1289,10.1289,10.1289,10.1289,10.1289,10.1289,10.1289,10.1289,10.1289,10.1289,10.1289,10.1289,10.1289,10.1289,10.1289,9.1803,9.1803,9.1803,9.1803,9.1803,9.1803,9.1803,9.1803,9.1803,9.1803,9.1803,9.1803,9.1803,9.1803,9.1803,9.1803,9.1803,9.1803,9.1803,9.1803,9.1803,9.1803,9.1803,9.1803,9.1803,9.1803,9.1803,9.1803,9.1803,9.1803,9.1803,9.1803,9.1803,9.1803,9.1803,9.1803,9.1803,9.1803,9.1803,9.1803,9.1803,9.1803,9.1803,9.1803,9.1803,9.1803,9.1803,9.1803,9.1803,9.1803,9.1803,9.1803,9.1803,9.1803,9.1876,9.1876,9.1876,9.1948,9.1948,9.1948,9.1948,9.2091,9.2162,9.2303,9.2479,9.2616,9.2788,9.2788,9.2922,9.3054,9.3146,9.3999,9.4796,9.5046,9.6527,9.7707,9.7795,9.8976,9.9827,9.9827,10.0481,10.1019,10.1019,10.1212,10.1289,10.1289,10.1289,10.1289,10.1289,10.1289,10.1289,10.1289,10.1289,10.1289,10.1289,10.1289,10.1289,10.1289,10.1289,10.1289,10.1289,10.1289,10.1289,10.1289,10.1289,10.1289,10.1289,10.1289,10.1289,10.1289,10.1289,10.1289,10.1289,10.1289,10.1289,10.1289,9.1803,9.1803,9.1803,9.1803,9.1803,9.1803,9.1803,9.1803,9.1803,9.1803,9.1803,9.1803,9.1803,9.1803,9.1803,9.1803,9.1803,9.1803,9.1803,9.1803,9.1803,9.1803,9.1803,9.1803,9.1803,9.1803,9.1803,9.1803,9.1803,9.1803,9.1803,9.1803,9.1803,9.1803,9.1803,9.1803,9.1803,9.1803,9.1803,9.1803,9.1803,9.1803,9.1803,9.1803,9.1803,9.1803,9.1803,9.1803,9.1803,9.1803,9.1803,9.1803,9.1803,9.1803,9.1803,9.1803,9.1803,9.1803,9.1803,9.1803,9.1803,9.1948,9.1948,9.202,9.2303,9.2547,9.2684,9.2684,9.3152,9.3582,9.3582,9.4505,9.5271,9.554,9.7036,9.822,9.8495,9.9738,10.0712,10.0712,10.1019,10.1289,10.1289,10.1289,10.1289,10.1289,10.1289,10.1289,10.1289,10.1289,10.1289,10.1289,10.1289,10.1289,10.1289,10.1289,10.1289,10.1289,10.1289,10.1289,10.1289,10.1289,10.1289,10.1289,10.1289,10.1289,10.1289,10.1289,10.1289,10.1289,10.1289,10.1289,10.1289,10.1289,10.1289,10.1289,9.1803,9.1803,9.1803,9.1803,9.1803,9.1803,9.1803,9.1803,9.1803,9.1803,9.1803,9.1803,9.1803,9.1803,9.1803,9.1803,9.1803,9.1803,9.1803,9.1803,9.1803,9.1803,9.1803,9.1803,9.1803,9.1803,9.1803,9.1803,9.1803,9.1803,9.1803,9.1803,9.1803,9.1803,9.1803,9.1803,9.1803,9.1803,9.1803,9.1803,9.1803,9.1803,9.1803,9.1803,9.1803,9.1803,9.1803,9.1803,9.1803,9.1803,9.1803,9.1803,9.1803,9.1803,9.1803,9.1803,9.1803,9.1803,9.1803,9.1803,9.1803,9.1803,9.1803,9.1876,9.2233,9.2479,9.2653,9.2801,9.3492,9.4251,9.4362,9.5068,9.5752,9.6156,9.7496,9.8637,9.9193,10.0377,10.121,10.1327,10.1289,10.1289,10.1289,10.1289,10.1289,10.1289,10.1289,10.1289,10.1289,10.1289,10.1289,10.1289,10.1289,10.1289,10.1289,10.1289,10.1289,10.1289,10.1289,10.1289,10.1289,10.1289,10.1289,10.1289,10.1289,10.1289,10.1289,10.1289,10.1289,10.1289,10.1289,10.1289,10.1289,10.1289,10.1289,10.1289,9.1803,9.1803,9.1803,9.1803,9.1803,9.1803,9.1803,9.1803,9.1803,9.1803,9.1803,9.1803,9.1803,9.1803,9.1803,9.1803,9.1803,9.1803,9.1803,9.1803,9.1803,9.1803,9.1803,9.1803,9.1803,9.1803,9.1803,9.1803,9.1803,9.1803,9.1803,9.1803,9.1803,9.1803,9.1803,9.1803,9.1803,9.1803,9.1803,9.1803,9.1803,9.1803,9.1803,9.1803,9.1803,9.1803,9.1803,9.1803,9.1803,9.1803,9.1803,9.1803,9.1803,9.1803,9.1803,9.1803,9.1803,9.1803,9.1803,9.1803,9.1803,9.1803,9.1803,9.1803,9.1876,9.202,9.2454,9.3296,9.3726,9.4197,9.5105,9.5886,9.6443,9.6541,9.7728,9.8853,9.9471,10.0223,10.0798,10.1211,10.1289,10.1289,10.1289,10.1289,10.1289,10.1289,10.1289,10.1289,10.1289,10.1289,10.1289,10.1289,10.1289,10.1289,10.1289,10.1289,10.1289,10.1289,10.1289,10.1289,10.1289,10.1289,10.1289,10.1289,10.1289,10.1289,10.1289,10.1289,10.1289,10.1289,10.1289,10.1289,10.1289,10.1289,10.1289,10.1289,9.1803,9.1803,9.1803,9.1803,9.1803,9.1803,9.1803,9.1803,9.1803,9.1803,9.1803,9.1803,9.1803,9.1803,9.1803,9.1803,9.1803,9.1803,9.1803,9.1803,9.1803,9.1803,9.1803,9.1803,9.1803,9.1803,9.1803,9.1803,9.1803,9.1803,9.1803,9.1803,9.1803,9.1803,9.1803,9.1803,9.1803,9.1803,9.1803,9.1803,9.1803,9.1803,9.1803,9.1803,9.1803,9.1803,9.1803,9.1803,9.1803,9.1803,9.1803,9.1803,9.1803,9.1803,9.1803,9.1803,9.1803,9.1803,9.1803,9.1803,9.1803,9.1803,9.1803,9.1803,9.1803,9.2243,9.2757,9.3305,9.433,9.5281,9.5791,9.6602,9.7158,9.7334,9.8086,9.8922,9.9552,10.0075,10.071,10.1211,10.1289,10.1289,10.1289,10.1289,10.1289,10.1289,10.1289,10.1289,10.1289,10.1289,10.1289,10.1289,10.1289,10.1289,10.1289,10.1289,10.1289,10.1289,10.1289,10.1289,10.1289,10.1289,10.1289,10.1289,10.1289,10.1289,10.1289,10.1289,10.1289,10.1289,10.1289,10.1289,10.1289,10.1289,10.1289,10.1289]},{"header":{"parameterUnit":"m.s-1","parameterCategory":1,"la1":30.6,"la2":28.766,"lo1":-90.7593,"lo2":-88.6598,"dy":0.0162,"dx":0.0183,"nx":116,"ny":114,"refTime":"2023-03-08T18:00:00:Z","depth":0,"parameterNumber":3,"parameterNumberName":"V-component_of_WINDS"},"data":[0.0,0.0,0.0,0.0,0.0,0.0,0.0,0.0,0.0,0.0,0.0,0.0,0.0,0.0,0.0,0.0,0.0,0.0,0.0,0.0,0.0,0.0,0.0,0.0,0.0,0.0,0.0,0.0,0.0,0.0,0.0,0.0,0.0,0.0,0.0,0.0,0.0,0.0,0.0,0.0,0.0,0.0,0.0,0.0,0.0,0.0,0.0,0.0,0.0,0.0,0.0,0.0,0.0,0.0,0.0,0.0,0.0,0.0,0.0,0.0,0.0,0.0,0.0,0.0,0.0,0.0,0.0,0.0,0.0,0.0,0.0,0.0,0.0,0.0,0.0,0.0,0.0,0.0,0.0,0.0,0.0,0.0,0.0,0.0,0.0,0.0,0.0,0.0,0.0,0.0,0.0,0.0,0.0,0.0,0.0,0.0,0.0,0.0,0.0,0.0,0.0,0.0,0.0,0.0,0.0,0.0,0.0,0.0,0.0,0.0,0.0,0.0,0.0,0.0,0.0,0.0,0.0,0.0,0.0,0.0,0.0,0.0,0.0,0.0,0.0,0.0,0.0,0.0,0.0,0.0,0.0,0.0,0.0,0.0,0.0,0.0,0.0,0.0,0.0,0.0,0.0,0.0,0.0,0.0,0.0,0.0,0.0,0.0,0.0,0.0,0.0,0.0,0.0,0.0,0.0,0.0,0.0,0.0,0.0,0.0,0.0,0.0,0.0,0.0,0.0,0.0,0.0,0.0,0.0,0.0,0.0,0.0,0.0,0.0,0.0,0.0,0.0,0.0,0.0,0.0,0.0,0.0,0.0,0.0,0.0,0.0,0.0,0.0,0.0,0.0,0.0,0.0,0.0,0.0,0.0,0.0,0.0,0.0,0.0,0.0,0.0,0.0,0.0,0.0,0.0,0.0,0.0,0.0,0.0,0.0,0.0,0.0,0.0,0.0,0.0,0.0,0.0,0.0,0.0,0.0,0.0,0.0,0.0,0.0,0.0,0.0,0.0,0.0,0.0,0.0,0.0,0.0,0.0,0.0,0.0,0.0,0.0,0.0,0.0,0.0,0.0,0.0,0.0,0.0,0.0,0.0,0.0,0.0,0.0,0.0,0.0,0.0,0.0,0.0,0.0,0.0,0.0,0.0,0.0,0.0,0.0,0.0,0.0,0.0,0.0,0.0,0.0,0.0,0.0,0.0,0.0,0.0,0.0,0.0,0.0,0.0,0.0,0.0,0.0,0.0,0.0,0.0,0.0,0.0,0.0,0.0,0.0,0.0,0.0,0.0,0.0,0.0,0.0,0.0,0.0,0.0,0.0,0.0,0.0,0.0,0.0,0.0,0.0,0.0,0.0,0.0,0.0,0.0,0.0,0.0,0.0,0.0,0.0,0.0,0.0,0.0,0.0,0.0,0.0,0.0,0.0,0.0,0.0,0.0,0.0,0.0,0.0,0.0,0.0,0.0,0.0,0.0,0.0,0.0,0.0,0.0,0.0,0.0,0.0,0.0,0.0,0.0,0.0,0.0,0.0,0.0,0.0,0.0,0.0,0.0,0.0,0.0,0.0,0.0,0.0,0.0,0.0,0.0,0.0,0.0,0.0,0.0,0.0,0.0,0.0,0.0,0.0,0.0,0.0,0.0,0.0,0.0,0.0,0.0,0.0,0.0,0.0,0.0,0.0,0.0,0.0,0.0,0.0,0.0,0.0,0.0,0.0,0.0,0.0,0.0,0.0,0.0,0.0,0.0,0.0,0.0,0.0,0.0,0.0,0.0,0.0,0.0,0.0,0.0,0.0,0.0,0.0,0.0,0.0,0.0,0.0,0.0,0.0,0.0,0.0,0.0,0.0,0.0,0.0,0.0,0.0,0.0,0.0,0.0,0.0,0.0,0.0,0.0,0.0,0.0,0.0,0.0,0.0,0.0,0.0,0.0,0.0,0.0,0.0,0.0,0.0,0.0,0.0,0.0,0.0,0.0,0.0,0.0,0.0,0.0,0.0,0.0,0.0,0.0,0.0,0.0,0.0,0.0,0.0,0.0,0.0,0.0,0.0,0.0,0.0,0.0,0.0,0.0,0.0,0.0,0.0,0.0,0.0,0.0,0.0,0.0,0.0,0.0,0.0,0.0,0.0,0.0,0.0,0.0,0.0,0.0,0.0,0.0,0.0,0.0,0.0,0.0,0.0,0.0,0.0,0.0,0.0,0.0,0.0,0.0,0.0,0.0,0.0,0.0,0.0,0.0,0.0,0.0,0.0,0.0,0.0,0.0,0.0,0.0,0.0,0.0,0.0,0.0,0.0,0.0,0.0,0.0,0.0,0.0,0.0,0.0,0.0,0.0,0.0,0.0,0.0,0.0,0.0,0.0,0.0,0.0,0.0,0.0,0.0,0.0,0.0,0.0,0.0,0.0,0.0,0.0,0.0,0.0,0.0,0.0,0.0,0.0,0.0,0.0,0.0,0.0,0.0,0.0,0.0,0.0,0.0,0.0,0.0,0.0,0.0,0.0,0.0,0.0,0.0,0.0,0.0,0.0,0.0,0.0,0.0,0.0,0.0,0.0,0.0,0.0,0.0,0.0,0.0,0.0,0.0,0.0,0.0,0.0,0.0,0.0,0.0,0.0,0.0,0.0,0.0,0.0,0.0,0.0,0.0,0.0,0.0,0.0,0.0,0.0,0.0,0.0,0.0,0.0,0.0,0.0,0.0,0.0,0.0,0.0,0.0,0.0,0.0,0.0,0.0,0.0,0.0,0.0,0.0,0.0,0.0,0.0,0.0,0.0,0.0,0.0,0.0,0.0,0.0,0.0,0.0,0.0,0.0,0.0,0.0,0.0,0.0,0.0,0.0,0.0,0.0,0.0,0.0,0.0,0.0,0.0,0.0,0.0,0.0,0.0,0.0,0.0,0.0,0.0,0.0,0.0,0.0,0.0,0.0,0.0,0.0,0.0,0.0,0.0,0.0,0.0,0.0,0.0,0.0,0.0,0.0,0.0,0.0,0.0,0.0,0.0,0.0,0.0,0.0,0.0,0.0,0.0,0.0,0.0,0.0,0.0,0.0,0.0,0.0,0.0,0.0,0.0,0.0,0.0,0.0,0.0,0.0,0.0,0.0,0.0,0.0,0.0,0.0,0.0,0.0,0.0,0.0,0.0,0.0,0.0,0.0,0.0,0.0,0.0,0.0,0.0,0.0,0.0,0.0,0.0,0.0,0.0,0.0,0.0,0.0,0.0,0.0,0.0,0.0,0.0,0.0,0.0,0.0,0.0,0.0,0.0,0.0,0.0,0.0,0.0,0.0,0.0,0.0,0.0,0.0,0.0,0.0,0.0,0.0,0.0,0.0,0.0,0.0,0.0,0.0,0.0,0.0,0.0,0.0,0.0,0.0,0.0,0.0,0.0,0.0,0.0,0.0,0.0,0.0,0.0,0.0,0.0,0.0,0.0,0.0,0.0,0.0,0.0,0.0,0.0,0.0,0.0,0.0,0.0,0.0,0.0,0.0,0.0,0.0,0.0,0.0,0.0,0.0,0.0,0.0,0.0,0.0,0.0,0.0,0.0,0.0,0.0,0.0,0.0,0.0,0.0,0.0,0.0,0.0,0.0,0.0,0.0,0.0,0.0,0.0,0.0,0.0,0.0,0.0,0.0,0.0,0.0,0.0,0.0,0.0,0.0,0.0,0.0,0.0,0.0,0.0,0.0,0.0,0.0,0.0,0.0,0.0,0.0,0.0,0.0,0.0,0.0,0.0,0.0,0.0,0.0,0.0,0.0,0.0,0.0,0.0,0.0,0.0,0.0,0.0,0.0,0.0,0.0,0.0,0.0,0.0,0.0,0.0,0.0,0.0,0.0,0.0,0.0,0.0,0.0,0.0,0.0,0.0,0.0,0.0,0.0,0.0,0.0,0.0,0.0,0.0,0.0,0.0,0.0,0.0,0.0,0.0,0.0,0.0,0.0,0.0,0.0,0.0,0.0,0.0,0.0,0.0,0.0,0.0,0.0,0.0,0.0,0.0,0.0,0.0,0.0,0.0,0.0,0.0,0.0,0.0,0.0,0.0,0.0,0.0,0.0,0.0,0.0,0.0,0.0,0.0,0.0,0.0,0.0,0.0,0.0,0.0,0.0,0.0,0.0,0.0,0.0,0.0,0.0,0.0,0.0,0.0,0.0,0.0,0.0,0.0,0.0,0.0,0.0,0.0,0.0,0.0,0.0,0.0,0.0,0.0,0.0,0.0,0.0,0.0,0.0,0.0,0.0,0.0,0.0,0.0,0.0,0.0,0.0,0.0,0.0,0.0,0.0,0.0,0.0,0.0,0.0,0.0,0.0,0.0,0.0,0.0,0.0,0.0,0.0,0.0,0.0,0.0,0.0,0.0,0.0,0.0,0.0,0.0,0.0,0.0,0.0,0.0,0.0,0.0,0.0,0.0,0.0,0.0,0.0,0.0,0.0,0.0,0.0,0.0,0.0,0.0,0.0,0.0,0.0,0.0,0.0,0.0,0.0,0.0,0.0,0.0,0.0,0.0,0.0,0.0,0.0,0.0,0.0,0.0,0.0,0.0,0.0,0.0,0.0,0.0,0.0,0.0,0.0,0.0,0.0,0.0,0.0,0.0,0.0,0.0,0.0,0.0,0.0,0.0,0.0,0.0,0.0,0.0,0.0,0.0,0.0,0.0,0.0,0.0,0.0,0.0,0.0,0.0,0.0,0.0,0.0,0.0,0.0,0.0,0.0,0.0,0.0,0.0,0.0,0.0,0.0,0.0,0.0,0.0,0.0,0.0,0.0,0.0,0.0,0.0,0.0,0.0,0.0,0.0,0.0,0.0,0.0,0.0,0.0,0.0,0.0,0.0,0.0,0.0,0.0,0.0,0.0,0.0,0.0,0.0,0.0,0.0,0.0,0.0,0.0,0.0,0.0,0.0,0.0,0.0,0.0,0.0,0.0,0.0,0.0,0.0,0.0,0.0,0.0,0.0,0.0,0.0,0.0,0.0,0.0,0.0,0.0,0.0,0.0,0.0,0.0,0.0,0.0,0.0,0.0,0.0,0.0,0.0,0.0,0.0,0.0,0.0,0.0,0.0,0.0,0.0,0.0,0.0,0.0,0.0,0.0,0.0,0.0,0.0,0.0,0.0,0.0,0.0,0.0,0.0,0.0,0.0,0.0,0.0,0.0,0.0,0.0,0.0,0.0,0.0,0.0,0.0,0.0,0.0,0.0,0.0,0.0,0.0,0.0,0.0,0.0,0.0,0.0,0.0,0.0,0.0,0.0,0.0,0.0,0.0,0.0,0.0,0.0,0.0,0.0,0.0,0.0,0.0,0.0,0.0,0.0,0.0,0.0,0.0,0.0,0.0,0.0,0.0,0.0,0.0,0.0,0.0,0.0,0.0,0.0,0.0,0.0,0.0,0.0,0.0,0.0,0.0,0.0,0.0,0.0,0.0,0.0,0.0,0.0,0.0,0.0,0.0,0.0,0.0,0.0,0.0,0.0,0.0,0.0,0.0,0.0,0.0,0.0,0.0,0.0,0.0,0.0,0.0,0.0,0.0,0.0,0.0,0.0,0.0,0.0,0.0,0.0,0.0,0.0,0.0,0.0,0.0,0.0,0.0,0.0,0.0,0.0,0.0,0.0,0.0,0.0,0.0,0.0,0.0,0.0,0.0,0.0,0.0,0.0,0.0,0.0,0.0,0.0,0.0,0.0,0.0,0.0,0.0,0.0,0.0,0.0,0.0,0.0,0.0,0.0,0.0,0.0,0.0,0.0,0.0,0.0,0.0,0.0,0.0,0.0,0.0,0.0,0.0,0.0,0.0,0.0,0.0,0.0,0.0,0.0,0.0,0.0,0.0,0.0,0.0,0.0,0.0,0.0,0.0,0.0,0.0,0.0,0.0,0.0,0.0,0.0,0.0,0.0,0.0,0.0,0.0,0.0,0.0,0.0,0.0,0.0,0.0,0.0,0.0,0.0,0.0,0.0,0.0,0.0,0.0,0.0,0.0,0.0,0.0,0.0,0.0,0.0,0.0,0.0,0.0,0.0,0.0,0.0,0.0,0.0,0.0,0.0,0.0,0.0,0.0,0.0,0.0,0.0,0.0,0.0,0.0,0.0,0.0,0.0,0.0,0.0,0.0,0.0,0.0,0.0,0.0,0.0,0.0,0.0,0.0,0.0,0.0,0.0,0.0,0.0,0.0,0.0,0.0,0.0,0.0,0.0,0.0,0.0,0.0,0.0,0.0,0.0,0.0,0.0,0.0,0.0,0.0,0.0,0.0,0.0,0.0,0.0,0.0,0.0,0.0,0.0,0.0,0.0,0.0,0.0,0.0,0.0,0.0,0.0,0.0,0.0,0.0,0.0,0.0,0.0,0.0,0.0,0.0,0.0,0.0,0.0,0.0,0.0,0.0,0.0,0.0,0.0,0.0,0.0,0.0,0.0,0.0,0.0,0.0,0.0,0.0,0.0,0.0,0.0,0.0,0.0,0.0,0.0,0.0,0.0,0.0,0.0,0.0,0.0,0.0,0.0,0.0,0.0,0.0,0.0,0.0,0.0,0.0,0.0,0.0,0.0,0.0,0.0,0.0,0.0,0.0,0.0,0.0,0.0,0.0,0.0,0.0,0.0,0.0,0.0,0.0,0.0,0.0,0.0,0.0,0.0,0.0,0.0,0.0,0.0,0.0,0.0,0.0,0.0,0.0,0.0,0.0,0.0,0.0,0.0,0.0,0.0,0.0,0.0,0.0,0.0,0.0,0.0,0.0,0.0,0.0,0.0,0.0,0.0,0.0,0.0,0.0,0.0,0.0,0.0,0.0,0.0,0.0,0.0,0.0,0.0,0.0,0.0,0.0,0.0,0.0,0.0,0.0,0.0,0.0,0.0,0.0,0.0,0.0,0.0,0.0,0.0,0.0,0.0,0.0,0.0,0.0,0.0,0.0,0.0,0.0,0.0,0.0,0.0,0.0,0.0,0.0,0.0,0.0,0.0,0.0,0.0,0.0,0.0,0.0,0.0,0.0,0.0,0.0,0.0,0.0,0.0,0.0,0.0,0.0,0.0,0.0,0.0,0.0,0.0,0.0,0.0,0.0,0.0,0.0,0.0,0.0,0.2364,0.239,0.2263,0.2274,0.1964,0.0724,0.0142,0.0,0.0,0.0,0.0,0.0,0.0,0.0,0.0,0.0,0.0,0.0,0.0,0.0,0.0,0.0,0.0,0.0,0.0,0.0,0.0,0.0,0.0,0.0,0.0,0.0,0.0,0.0,0.0,0.0,0.0,0.0,0.0,0.0,0.0,0.0,0.0,0.0,0.0,0.0,0.0,0.4681,0.4554,0.5355,0.6818,0.5338,0.0,0.0,0.0,0.0,0.0,0.0,0.0,0.0,0.0,0.0,0.0,0.0,0.0,0.0,0.0,0.0,0.0,0.0,0.0,0.0,0.0,0.0,0.0,0.0,0.0,0.0,0.0,0.0,0.0,0.0,0.0,0.0,0.0,0.0,0.0,0.0,0.0,0.0,0.0,0.0,0.0,0.0,0.0,0.1616,0.0135,0.0,0.0,0.0,0.0,0.0,0.0,0.0,0.0,0.0,0.0,0.0,0.0,0.0,0.0,0.2364,0.2238,0.2252,0.2406,0.241,0.2414,0.2418,0.2423,0.197,0.1362,0.1203,0.0,0.0,0.0,0.0,0.0,0.0,0.0,0.0,0.0,0.0,0.0,0.0,0.0,0.0,0.0,0.0,0.0,0.0,0.0,0.0,0.0,0.0,0.0,0.0,0.0,0.0,0.0,0.0,0.0,0.0,0.0,0.0,0.0,0.0,0.0,0.0,0.0,0.0,0.0,0.3047,0.3477,0.3499,0.4833,0.6038,0.7111,0.8041,0.859,0.875,0.7484,0.0,0.0,0.0,0.0,0.0,0.0,0.0,0.0,0.0,0.0,0.0,0.0,0.0,0.0,0.0,0.0,0.0,0.0,0.0,0.0,0.0,0.0,0.0,0.0,0.0,0.0,0.0,0.0,0.0,0.0,0.0,0.0,0.0,0.0,0.0,0.0,0.0,0.0,0.0,0.1356,0.2044,0.1363,0.0548,0.0,0.0,0.0,0.0,0.0,0.0,0.0,0.0,0.0,0.0,0.1478,0.208,0.2541,0.2405,0.2417,0.2575,0.2575,0.2442,0.2458,0.2476,0.2492,0.2353,0.1894,0.142,0.0789,0.0,0.0,0.0,0.0,0.0,0.0,0.0,0.0,0.0,0.0,0.0,0.0,0.0,0.0,0.0,0.0,0.0,0.0,0.0,0.0,0.0,0.0,0.0,0.0,0.0,0.1929,0.0,0.0,0.0,0.0,0.0,0.0,0.0,0.0,0.0,0.0,0.0,0.0,0.2944,0.3226,0.336,0.5767,0.7102,0.7636,0.9377,1.0339,1.0652,1.0378,0.9419,0.0,0.0,0.0,0.0,0.0,0.0,0.0,0.0,0.0,0.0,0.0,0.0,0.0,0.0,0.0,0.0,0.0,0.0,0.0,0.0,0.0,0.0,0.0,0.0,0.0,0.0,0.0,0.0,0.0,0.0,0.0,0.0,0.0,0.0,0.0,0.0,0.0,0.0,0.137,0.2349,0.2211,0.1115,0.0422,0.0,0.0,0.0,0.0,0.0,0.0,0.1622,0.21,0.2427,0.2435,0.2443,0.245,0.2458,0.2465,0.2469,0.247,0.2492,0.2515,0.2538,0.256,0.2583,0.2605,0.1953,0.1302,0.0649,0.0157,0.0,0.0,0.0,0.0,0.0,0.0,0.0,0.0,0.0,0.0,0.0,0.0,0.0,0.0,0.0,0.0,0.0,0.0,0.0,0.0,0.0,0.0,0.1929,0.2052,0.1958,0.1975,0.0,0.0,0.0,0.0,0.0,0.0,0.0,0.0,0.0,0.2153,0.483,0.6164,0.6164,0.7769,0.9244,1.0452,0.9244,0.951,1.0591,0.925,0.8706,0.844,0.0,0.0,0.0,0.0,0.0,0.0,0.0,0.0,0.0,0.0,0.0,0.0,0.0,0.0,0.0,0.0,0.0,0.0,0.0,0.0,0.0,0.0,0.0,0.0,0.0,0.0,0.0,0.0,0.0,0.0,0.0,0.0,0.0,0.0,0.0,0.0,0.0,0.0,0.0,0.2243,0.1543,0.0,0.0,0.0,0.0,0.1355,0.1964,0.2418,0.2418,0.2421,0.2438,0.2466,0.2495,0.2523,0.2553,0.2579,0.2594,0.2596,0.2596,0.2597,0.2601,0.26,0.2601,0.2605,0.2605,0.2605,0.2442,0.0649,0.0,0.0,0.0,0.0,0.0,0.0,0.0,0.0,0.0,0.0,0.0,0.0,0.0,0.0,0.0,0.0,0.0,0.0,0.0,0.0,0.0,0.1943,0.196,0.196,0.197,0.1977,0.1977,0.0,0.0,0.0,0.0,0.0,0.0,0.0,0.2692,0.3497,0.4565,0.5499,0.6431,0.7902,0.8839,0.9377,0.9782,1.018,1.0717,1.018,0.9915,0.9915,0.9377,0.9111,0.0,0.0,0.0,0.0,0.0,0.0,0.0,0.0,0.0,0.0,0.0,0.0,0.0,0.0,0.0,0.0,0.0,0.0,0.0,0.0,0.0,0.0,0.0,0.0,0.0,0.0,0.0,0.0,0.0,0.0,0.0,0.0,0.0,0.0,0.0,0.0,0.0,0.2301,0.1884,0.0,0.0,0.2243,0.2101,0.2119,0.2289,0.2461,0.2481,0.25,0.2525,0.2553,0.2564,0.2575,0.2586,0.2597,0.2602,0.2602,0.2602,0.2612,0.2632,0.2631,0.2653,0.2691,0.2691,0.2363,0.1869,0.1699,0.1003,0.0,0.0,0.0,0.0,0.0,0.0,0.0,0.0,0.0,0.0,0.0,0.0,0.0,0.0,0.0,0.0,0.0,0.0,0.1913,0.1943,0.1964,0.1977,0.1977,0.1977,0.1981,0.199,0.0,0.0,0.0,0.0,0.0,0.0,0.2692,0.3362,0.43,0.5235,0.6168,0.7236,0.8617,0.9308,0.9448,1.0437,1.0867,1.0867,1.0867,1.0812,1.0717,1.0717,1.0717,1.0717,0.0,0.0,0.0,0.0,0.0,0.0,0.0,0.0,0.0,0.0,0.0,0.0,0.0,0.0,0.0,0.0,0.0,0.0,0.0,0.0,0.0,0.0,0.0,0.0,0.0,0.0,0.0,0.0,0.0,0.0,0.0,0.0,0.0,0.0,0.0,0.2331,0.2363,0.2084,0.1954,0.2436,0.3058,0.3224,0.2623,0.3741,0.378,0.2542,0.3202,0.3227,0.2601,0.2612,0.2622,0.2632,0.2642,0.2653,0.2662,0.2662,0.2673,0.2692,0.2692,0.2716,0.2754,0.2754,0.2246,0.1391,0.2261,0.1709,0.0,0.0,0.0,0.0,0.0,0.0,0.0,0.0,0.0,0.0,0.0,0.0,0.0,0.0,0.0,0.0,0.0,0.1913,0.1943,0.1973,0.1977,0.1977,0.1977,0.1977,0.1989,0.2016,0.2048,0.0,0.0,0.0,0.0,0.2289,0.3631,0.43,0.4434,0.724,0.8573,0.8717,1.02,1.0948,1.0962,1.1097,1.1165,1.1165,1.1165,1.0995,1.0738,1.0738,1.0738,1.0738,0.0,0.0,0.0,0.0,0.0,0.0,0.0,0.0,0.0,0.0,0.0,0.0,0.0,0.0,0.0,0.0,0.0,0.0,0.0,0.0,0.0,0.0,0.0,0.0,0.0,0.0,0.0,0.0,0.0,0.0,0.0,0.0,0.0,0.2786,0.251,0.2391,0.2421,0.2425,0.2438,0.2623,0.4208,0.4574,0.2879,0.5805,0.6327,0.2765,0.4228,0.4392,0.2605,0.2635,0.2665,0.2695,0.2725,0.2754,0.2784,0.2784,0.2784,0.2784,0.2784,0.2784,0.2785,0.2785,0.2263,0.1567,0.2437,0.1741,0.0,0.0,0.0,0.0,0.0,0.0,0.0,0.0,0.0,0.0,0.0,0.0,0.0,0.0,0.0,0.0,0.0,0.1913,0.1943,0.1973,0.1977,0.1977,0.1977,0.1994,0.2009,0.2018,0.0,0.0,0.0,0.0,0.0,0.3765,0.4166,0.5369,0.7374,0.8174,0.9157,1.0341,1.0657,1.1002,1.1104,1.1145,1.1165,1.1165,1.1165,1.1118,1.1043,1.1043,1.1043,1.1043,0.0,0.0,0.0,0.0,0.0,0.0,0.0,0.0,0.0,0.0,0.0,0.0,0.0,0.0,0.0,0.0,0.0,0.0,0.0,0.0,0.0,0.0,0.0,0.0,0.0,0.0,0.0,0.0,0.0,0.0,0.0,0.0,0.3776,0.4798,0.3458,0.2423,0.2453,0.3554,0.4369,0.4421,0.4952,0.5153,0.4526,0.4214,0.3587,0.2632,0.3152,0.3179,0.2699,0.2729,0.275,0.2758,0.2766,0.2774,0.2784,0.2784,0.2784,0.2784,0.2784,0.2795,0.2816,0.2816,0.2652,0.2493,0.2671,0.2136,0.0889,0.035,0.0,0.0,0.0,0.0,0.0,0.0,0.0,0.0,0.0,0.0,0.0,0.0,0.0,0.0,0.0,0.1924,0.1956,0.1974,0.1977,0.1977,0.1977,0.2003,0.2023,0.2037,0.0,0.0,0.0,0.0,0.3763,0.5101,0.577,0.6973,0.8573,0.9297,1.0046,1.0955,1.1077,1.1179,1.126,1.1328,1.1355,1.1355,1.1355,1.1355,1.1355,1.1355,1.1274,1.1165,1.1165,1.1165,1.1165,1.1165,1.1165,1.1165,1.1165,0.0,0.0,0.0,0.0,0.0,0.0,0.0,0.0,0.0,0.0,0.0,0.0,0.0,0.0,0.0,0.0,0.0,0.0,0.0,0.0,0.0,0.0,0.0,0.0,0.5556,0.5111,0.6382,0.4946,0.355,0.3593,0.5212,0.6059,0.5299,0.6007,0.5733,0.4283,0.5292,0.5496,0.3879,0.5428,0.5975,0.5156,0.5189,0.4872,0.4022,0.4024,0.4032,0.405,0.3173,0.3173,0.4052,0.3173,0.2831,0.0,0.2848,0.2857,0.2874,0.2874,0.2515,0.0,0.0,0.0,0.0,0.0,0.0,0.0,0.0,0.0,0.0,0.0,0.0,0.0,0.0,0.0,0.0,0.0,0.0,0.1977,0.1977,0.1977,0.1977,0.1977,0.2005,0.2038,0.0,0.0,0.0,0.43,0.4434,0.5235,0.6564,0.7902,0.8712,0.8862,1.02,1.0968,1.1002,1.1267,1.1402,1.1423,1.1558,1.1619,1.1619,1.1619,1.1619,1.1619,1.1619,1.1457,1.1212,1.1212,1.1212,1.1212,1.1212,1.1212,1.1212,1.1212,0.0,0.0,0.0,0.0,0.0,0.0,0.0,0.0,0.0,0.0,0.0,0.0,0.0,0.0,0.0,0.0,0.0,0.0,0.0,0.0,0.0,0.0,0.0,0.0,0.7137,0.7684,0.7766,0.6539,0.5379,0.5268,0.6938,0.7313,0.57,0.7073,0.6822,0.3877,0.7977,0.9251,0.6067,0.0,0.0,0.0,0.0,0.769,0.6004,0.583,0.5681,0.5733,0.3769,0.3769,0.5378,0.359,0.2874,0.2874,0.2874,0.2874,0.2874,0.2874,0.2874,0.2515,0.0718,0.0,0.0,0.0,0.0,0.0,0.0,0.0,0.0,0.0,0.0,0.0,0.0,0.0,0.0,0.1885,0.1939,0.1977,0.1977,0.1977,0.1977,0.1977,0.2024,0.2079,0.0,0.0,0.4034,0.43,0.5366,0.6702,0.8169,0.844,0.9163,1.0496,1.0799,1.107,1.1307,1.1362,1.1457,1.1579,1.1606,1.1619,1.1619,1.1619,1.1619,1.1619,1.1619,1.1586,1.1531,1.1531,1.1531,1.1531,1.1531,1.1531,1.1531,1.1531,1.0662,0.9649,0.9649,0.0,0.0,0.0,0.0,0.0,0.0,0.0,0.0,0.0,0.0,0.0,0.0,0.0,0.0,0.0,0.0,0.0,0.0,0.0,0.0,0.8852,0.8393,0.7919,0.794,0.7649,0.6845,0.5506,0.6859,0.7917,0.7655,0.8072,0.8675,0.9455,0.9139,0.8641,0.7968,0.8561,0.0,0.8424,0.8497,0.8365,0.8029,0.6427,0.5722,0.5733,0.0,0.0,0.3411,0.3053,0.2874,0.2874,0.2874,0.2874,0.2874,0.2874,0.2335,0.1616,0.0359,0.0,0.0,0.0,0.0,0.0,0.0,0.0,0.0,0.0,0.0,0.0,0.0,0.0,0.0,0.0,0.1939,0.1977,0.1977,0.1977,0.1982,0.1996,0.2691,0.0,0.0,0.4565,0.5637,0.6439,0.7102,0.8174,0.9643,0.9716,1.0187,1.0948,1.1097,1.1246,1.1396,1.147,1.1545,1.1619,1.1619,1.1619,1.1619,1.1619,1.166,1.1728,1.1728,1.1769,1.1823,1.1674,1.166,1.1728,1.1728,1.1775,1.1843,1.1843,1.1397,1.0651,1.0651,1.0205,0.9481,0.0,0.0,0.0,0.0,0.0,0.0,0.0,0.0,0.0,0.0,0.0,0.0,0.0,0.0,0.7445,0.0,0.0,0.9532,0.8982,0.8341,0.8371,0.9288,0.9516,0.9179,0.8254,0.8824,0.9588,0.9695,0.9753,0.9831,0.9769,0.9947,0.9971,1.0029,1.0786,1.0993,0.9935,0.9983,0.9121,0.716,0.627,0.5733,0.5733,0.3769,0.342,0.4336,0.3256,0.2904,0.2917,0.2917,0.2917,0.2917,0.2919,0.2372,0.1459,0.1459,0.0906,0.0,0.0,0.0,0.0,0.0,0.0,0.0,0.0,0.0,0.0,0.0,0.0,0.0,0.0,0.1939,0.1977,0.1977,0.1977,0.199,0.0,0.0,0.0,0.4297,0.59,0.7369,0.8573,0.8839,0.951,1.0717,1.0867,1.0962,1.0989,1.126,1.1409,1.1436,1.1558,1.1619,1.1619,1.1619,1.1633,1.166,1.166,1.1742,1.1877,1.1877,1.1952,1.2033,1.1796,1.1775,1.1877,1.1877,1.1952,1.206,1.206,1.206,1.206,1.206,1.206,1.2067,1.1965,1.2135,0.0,0.0,0.0,0.0,0.0,0.0,0.0,0.0,0.0,0.7991,0.7991,0.8211,0.8756,0.9764,1.026,1.0135,0.9273,0.9127,0.9687,1.1238,1.1097,1.1075,1.1513,1.1227,1.0976,1.1274,1.1285,1.0814,0.9703,1.1116,1.2044,1.1971,1.3407,1.3584,1.1976,1.1976,1.0555,0.7359,0.7001,0.6832,0.6845,0.5051,0.4889,0.638,0.4381,0.367,0.4254,0.4261,0.39,0.3535,0.3165,0.2607,0.1862,0.2609,0.1844,0.0363,0.0,0.0,0.0,0.0,0.0,0.0,0.0,0.0,0.0,0.0,0.0,0.0,0.0,0.0,0.0,0.0,0.0,0.0,0.0,0.0,0.4234,0.4297,0.6836,0.844,0.8573,0.9782,1.0585,1.0717,1.0867,1.1009,1.1138,1.1307,1.1463,1.1592,1.1613,1.1619,1.1619,1.1619,1.1687,1.1809,1.1809,1.1898,1.2033,1.2033,1.2047,1.206,1.2026,1.202,1.2033,1.2033,1.2047,1.206,1.206,1.206,1.206,1.206,1.206,1.2088,1.223,0.0,1.1993,1.072,0.997,0.9864,1.0555,1.0543,1.034,0.0,0.0,0.7927,0.7927,0.9225,1.0233,1.0509,1.1836,1.2913,1.3023,1.2901,1.3121,1.3449,1.2093,1.1784,1.3461,1.2152,1.1279,1.14,1.1412,1.1992,1.3552,1.3918,1.3925,1.3945,1.4122,1.4122,1.3945,1.3945,1.382,1.3579,1.177,1.1102,1.1201,0.919,0.8461,0.8652,0.6635,0.6638,0.8305,0.8567,0.7521,0.5692,0.3793,0.3033,0.2844,0.304,0.2468,0.1323,0.0372,0.0,0.0,0.0,0.0,0.0,0.0,0.0,0.0,0.0,0.0,0.0,0.0,0.0,0.0,0.0,0.0,0.0,0.0,0.4204,0.5464,0.5499,0.8174,0.9782,0.9782,1.0452,1.0717,1.0717,1.0955,1.1104,1.1165,1.1402,1.1558,1.1619,1.1619,1.1619,1.1619,1.1619,1.1701,1.183,1.183,1.1972,1.2196,1.2196,1.2244,1.2318,1.2318,1.2318,1.2305,1.2223,1.225,0.0,0.0,1.2318,1.2318,1.2318,1.2379,1.2461,1.2528,1.261,0.0,1.1956,1.1811,1.1842,0.0,1.1943,1.1918,1.1974,1.1391,1.0958,1.0958,1.1734,1.2363,1.242,1.2997,1.36,0.0,1.2892,1.26,1.378,1.2403,1.2103,1.4008,1.3442,1.3073,1.3136,1.3136,1.3343,1.4292,1.4299,1.4299,1.4299,1.4299,1.38,1.2794,1.28,1.2321,1.1352,1.0436,1.0307,1.0416,0.949,0.9173,0.9274,0.833,0.8546,0.9357,0.9394,0.9052,0.8121,0.7343,0.6954,0.6761,0.5992,0.4448,0.2317,0.0569,0.0,0.0,0.0,0.0,0.0,0.0,0.0,0.0,0.0,0.0,0.0,0.0,0.0,0.0,0.0,0.0,0.0,0.2063,0.4735,0.6406,0.6431,0.9111,1.0717,1.0717,1.0717,1.0717,1.0717,1.1009,1.1165,1.1165,1.147,1.1619,1.1619,1.1619,1.1619,1.1619,1.166,1.1762,1.1898,1.1938,1.2108,1.2345,1.2345,1.2413,1.2501,1.2501,1.2501,1.2488,1.2386,1.2413,0.0,0.0,1.2562,1.2569,1.2617,1.2705,1.2793,1.2793,1.2874,1.2969,1.301,1.299,0.0,1.3064,1.3051,1.303,1.3071,1.3193,1.3302,1.3302,1.3505,1.3688,1.3688,1.377,1.3858,1.3899,1.2859,1.2564,1.3934,1.3073,1.2759,1.4108,1.4299,1.4299,1.4299,1.4299,1.4299,1.4299,1.4299,1.4319,1.4353,1.436,1.37,1.2566,1.2571,1.1919,1.0776,1.0776,1.085,1.0988,1.0988,1.1072,1.122,1.122,1.0505,0.9619,1.0792,1.1021,1.0487,1.0487,1.0501,1.0528,0.8929,0.6946,0.4957,0.2937,0.1168,0.0,0.0,0.0,0.0,0.0,0.0,0.0,0.0,0.0,0.0,0.0,0.0,0.0,0.0,0.0,0.2031,0.2061,0.4695,0.6345,0.6427,0.9111,1.0717,1.0717,1.0717,1.0717,1.0717,1.1009,1.1165,1.1165,1.147,1.1619,1.1619,1.1619,1.1619,1.1626,1.1762,1.1911,1.2067,1.221,1.2359,1.2494,1.2494,1.2501,1.2501,1.2501,1.2501,1.2501,1.2494,0.0,0.0,0.0,1.2725,1.2752,1.2901,1.2949,0.0,1.2956,1.2956,0.0,0.0,0.0,1.303,1.3315,1.3275,1.3207,1.3356,1.3505,1.3614,1.3614,1.3729,1.3831,1.3831,1.3838,1.3892,1.4041,1.4068,1.4116,1.4272,1.4292,1.4292,1.4299,1.4299,1.4299,0.0,1.4299,1.4299,1.4299,1.4299,1.436,1.4496,1.4502,1.4577,1.4544,1.4551,1.4691,1.4979,1.4979,1.5127,1.5421,1.5421,1.5428,1.5435,1.5435,1.3355,0.9913,1.3863,1.4607,1.3026,1.3026,1.3096,1.2995,1.0938,0.9906,0.97,0.8242,0.4438,0.0,0.0,0.0,0.0,0.0,0.0,0.0,0.0,0.0,0.0,0.0,0.0,0.0,0.0,0.0,0.0,0.0,0.4695,0.6341,0.6427,0.9111,1.0717,1.0717,1.0717,1.0717,1.0717,1.1009,1.1165,1.1165,1.147,1.1619,1.1619,1.1619,1.1619,1.1619,1.1667,1.183,1.2067,1.2115,1.2277,1.2501,1.2501,1.2501,1.2501,1.2501,1.2501,1.2515,0.0,1.2651,0.0,0.0,0.0,0.0,1.2942,0.0,0.0,1.322,0.0,0.0,0.0,0.0,1.3302,1.3505,1.3512,1.3512,1.3661,1.3736,1.377,1.377,1.3892,1.3994,1.3994,1.4075,1.4163,1.4211,1.4224,1.4238,1.4292,1.4299,1.4299,1.4299,1.4299,0.0,0.0,0.0,0.0,1.4434,1.4441,1.4509,1.4658,1.476,1.4882,1.5031,1.5133,1.5282,1.5486,1.5486,1.5588,1.5784,1.5988,1.6083,1.609,1.6178,1.5441,1.4262,1.5688,1.5943,1.5418,1.5418,1.545,1.5283,1.3016,1.1161,1.0132,1.057,0.8441,0.4689,0.0,0.0,0.0,0.0,0.0,0.0,0.0,0.0,0.0,0.0,0.0,0.0,0.0,0.0,0.0,0.0,0.0,0.6439,0.6423,0.9111,1.0717,1.0717,1.0717,1.0744,1.0799,1.1036,1.1192,1.1246,1.1497,1.1619,1.1619,1.1619,1.1619,1.1619,1.1674,1.183,1.2067,1.2121,1.2284,1.2501,1.2501,1.2501,1.2501,1.2501,1.2501,0.0,1.2739,1.2813,0.0,0.0,0.0,0.0,0.0,0.0,0.0,0.0,0.0,0.0,0.0,1.3485,1.3519,1.3668,1.3702,1.3729,1.3817,1.3885,1.3926,1.3926,1.4048,1.415,1.415,1.4231,1.4299,1.4299,1.4299,1.4299,1.4299,1.4299,1.4299,1.4299,1.4346,1.4373,0.0,0.0,0.0,1.4509,1.4563,1.4679,1.4889,1.4991,1.514,1.5337,1.5438,1.5567,1.5716,1.5771,1.5893,1.6096,1.6293,1.6388,1.6388,1.6476,1.6524,1.6524,1.6524,1.6551,1.6605,1.6605,1.6639,1.648,1.502,1.3559,1.2522,1.3598,1.2776,1.067,0.0,0.0,0.0,0.0,0.0,0.0,0.0,0.0,0.0,0.0,0.0,0.0,0.0,0.0,0.0,0.0,0.0,0.0,0.6415,0.9105,1.0717,1.0717,1.0717,1.0785,1.0934,1.1084,1.1233,1.1382,1.1538,1.1619,1.1619,1.1619,1.1619,1.1626,1.1769,1.1918,1.2074,1.2223,1.2372,1.2501,1.2501,1.2501,1.2501,1.2501,1.2501,1.2542,1.2847,1.2963,0.0,0.0,0.0,0.0,0.0,0.0,0.0,0.0,0.0,1.3444,1.3593,1.3634,1.3675,1.3817,1.3851,1.3858,1.3865,1.398,1.4082,1.4082,1.4197,1.4299,0.0,0.0,1.4299,1.4299,1.4299,1.4299,1.4299,1.4299,1.4306,0.0,0.0,0.0,0.0,0.0,0.0,1.4557,0.0,1.4889,1.5187,1.5215,1.535,1.5642,1.5662,1.5737,1.5879,1.6029,1.6246,1.6524,1.653,1.653,1.653,1.6537,1.6544,1.6544,1.6544,1.6625,1.6761,1.6761,1.6849,1.6978,1.6768,1.6768,1.6768,1.6768,1.6564,1.6551,0.0,0.0,0.0,0.0,0.0,0.0,0.0,0.0,0.0,0.0,0.0,0.0,0.0,0.0,0.0,0.0,0.0,0.0,0.6333,0.9059,1.0717,1.0717,1.0717,1.0738,1.0778,1.1029,1.1185,1.1219,1.1491,1.1619,1.1619,1.1619,1.1619,1.1626,1.1769,1.1918,1.2074,1.2223,1.2372,1.2501,1.2501,1.2501,1.2501,1.2501,1.2501,1.2542,1.2847,1.2963,1.3003,0.0,0.0,0.0,0.0,1.3403,1.3403,0.0,0.0,1.358,1.362,1.3709,1.3824,1.3973,1.4014,1.4041,1.4156,1.4211,1.4245,1.4245,1.4272,1.4299,0.0,0.0,0.0,1.4299,1.4299,0.0,1.4299,1.4299,0.0,1.4441,0.0,1.4557,1.4672,1.4916,0.0,0.0,1.5045,1.5201,1.5506,1.5622,1.5716,1.5798,1.6022,1.6157,1.6191,1.6334,1.6449,1.6524,1.6639,1.6693,1.6693,1.6809,1.6863,1.6863,1.6863,1.6883,1.6924,1.6924,1.6944,1.6768,1.5066,1.4429,1.4212,1.2525,1.1244,1.0175,0.0,0.0,0.0,0.0,0.0,0.0,0.0,0.0,0.0,0.0,0.0,0.0,0.0,0.0,0.0,0.0,0.0,0.0,0.0,0.8513,1.0047,1.0717,1.0717,1.0751,1.0819,1.0982,1.1131,1.126,1.1436,1.1552,1.1619,1.1619,1.1619,1.1619,1.1701,1.1857,1.2067,1.2155,1.2311,0.0,0.0,1.2501,1.2501,1.2501,1.2501,1.2542,1.2847,1.3044,1.318,1.3342,0.0,1.3403,1.3403,1.3403,1.3417,1.3485,0.0,1.3654,1.379,1.3885,1.398,1.4136,1.417,1.4197,1.4278,1.4299,1.4299,1.4299,1.4299,0.0,1.4299,1.4299,0.0,0.0,0.0,0.0,1.4299,1.4353,1.4421,0.0,1.4631,0.0,1.4923,1.5147,1.5337,0.0,1.5418,1.5486,1.5723,1.5872,1.5988,1.6049,1.6279,1.6435,1.6503,1.6578,1.6653,1.6727,1.6809,1.6849,1.6856,1.6944,1.6978,1.6978,0.0,1.6978,1.6978,1.6978,1.6978,1.6768,1.5487,1.5066,1.4856,1.3586,1.2731,1.1882,0.0,0.0,0.0,0.0,0.0,0.0,0.0,0.0,0.0,0.0,0.0,0.0,0.0,0.0,0.0,0.0,0.0,0.0,0.0,0.0,0.9244,1.0585,1.0717,1.0778,1.0914,1.0941,1.1084,1.1362,1.1382,1.147,1.1619,1.1619,1.1619,1.1619,1.164,1.1789,1.2033,1.2074,1.2237,1.2474,1.2494,1.2501,1.2501,0.0,0.0,1.2542,1.2847,1.3152,1.3403,1.3403,1.3403,1.3403,1.3403,1.3417,1.3458,1.3593,1.3654,1.3743,1.4,1.4089,1.4136,1.4265,1.4299,1.4299,1.4299,1.4299,1.4299,1.4299,0.0,1.4299,1.4299,1.4299,1.4299,1.4299,0.0,1.4306,1.4326,1.4434,1.4529,1.457,1.4821,1.5059,1.5201,1.5371,1.5581,1.5859,1.5784,1.5784,1.5906,1.6042,1.6191,1.6361,1.649,1.6625,1.6781,1.6781,1.6849,1.6978,1.6978,1.6978,1.6978,1.6978,1.6978,1.6978,0.0,0.0,1.6978,1.6978,1.6978,1.6978,1.6978,1.6978,1.6978,1.6978,1.6985,1.6998,0.0,0.0,0.0,0.0,0.0,0.0,0.0,0.0,0.0,0.0,0.1917,0.1948,0.0,0.0,0.0,0.0,0.0,0.0,0.0,0.0,0.0,1.0585,1.0717,1.0731,1.0758,1.088,1.1029,1.1206,1.1328,1.147,1.1619,1.1619,1.1619,1.1626,1.1742,1.1823,1.1884,1.2142,1.2277,1.2338,1.2454,1.2501,1.2501,1.2501,0.0,0.0,1.2847,1.3152,1.3403,1.3403,1.3403,1.3403,1.3403,1.3485,1.3593,1.362,1.3804,1.4007,1.4055,1.4163,1.4265,1.4292,1.4299,1.4299,1.4299,1.4299,0.0,0.0,1.4299,1.4299,1.4299,1.4299,1.4299,1.4299,1.4299,1.434,1.4462,1.4496,1.4604,0.0,1.5038,1.5208,1.5357,0.0,0.0,0.0,0.0,1.6205,1.6232,1.6252,1.6395,1.6666,1.67,1.6781,1.6937,1.6937,1.6951,1.6978,1.6978,1.6978,1.6978,1.6978,1.6978,1.6978,0.0,0.0,1.6978,1.6978,1.6978,1.6978,1.6978,1.6978,1.6978,1.6978,1.6985,1.6985,0.0,0.0,0.0,0.0,0.0,0.0,0.0,0.1808,0.1719,0.1409,0.1305,0.1564,0.1971,0.1977,0.0,0.0,0.0,0.0,0.0,0.0,0.0,0.0,0.0,0.0,1.0717,1.0792,0.0,0.0,0.0,1.1348,1.1504,0.0,1.1619,1.1619,1.1687,1.1762,1.1837,1.1986,1.2142,1.2298,1.2366,1.2433,0.0,0.0,0.0,0.0,0.0,1.3098,1.3295,1.3376,1.3403,1.3417,1.3492,1.3566,1.3661,1.3817,1.396,1.4089,1.417,1.4245,1.4299,1.4299,1.4299,1.4299,1.4299,0.0,0.0,0.0,1.4299,1.4299,1.4299,1.436,1.4407,1.4407,1.4475,1.4557,1.4618,1.4699,1.4835,1.5059,1.5215,1.5391,0.0,1.5845,0.0,0.0,0.0,1.6422,1.6422,1.6497,1.6639,1.6863,1.687,1.6904,1.6978,1.6978,1.6978,1.6978,1.6978,1.6978,1.6978,1.6978,1.6978,1.6978,1.6978,0.0,1.6978,1.6978,1.6978,1.6978,1.6978,1.6978,1.6992,1.706,1.7087,1.71,0.0,0.0,0.0,0.0,0.0,0.0,0.0,0.1795,0.159,0.0939,0.0943,0.1074,0.1724,0.1853,0.1853,0.0,0.0,0.0,0.0,0.0,0.0,0.0,0.0,0.0,0.0,0.0,0.0,0.0,0.0,0.0,0.0,0.0,0.0,0.0,0.0,0.0,1.1789,1.1816,1.1972,0.0,0.0,0.0,0.0,0.0,0.0,0.0,0.0,1.3051,1.3193,1.3349,1.3424,1.3478,1.3627,1.3675,1.3729,1.3994,1.4095,1.415,1.4265,1.4299,1.4299,1.4299,1.4299,1.4299,1.4299,1.4299,0.0,1.4299,1.4299,1.4306,1.434,1.4434,1.4523,1.4557,1.4658,1.4753,1.4787,1.4923,1.5072,1.5215,1.5391,0.0,1.5832,1.6022,0.0,0.0,0.0,0.0,1.6571,1.6714,1.6856,1.6978,1.6978,1.6978,1.6978,1.6978,1.6978,1.6978,1.6978,1.6978,1.6978,1.6978,1.6978,1.6978,1.6978,0.0,0.0,1.7026,1.7046,1.7073,1.7073,1.7073,1.7087,1.6982,1.7023,1.7256,0.0,0.0,0.0,0.0,0.0,0.0,0.0,0.1795,0.159,0.0939,0.0943,0.0954,0.1107,0.1235,0.1482,0.0,0.0,0.0,0.0,0.0,0.0,0.0,0.0,0.0,0.0,0.0,0.0,0.0,0.0,0.0,0.0,0.0,0.0,0.0,0.0,0.0,0.0,1.1775,0.0,0.0,0.0,0.0,0.0,0.0,0.0,0.0,0.0,1.3051,1.3193,1.3349,1.3492,1.3634,1.3777,1.3824,1.3858,1.4021,0.0,0.0,1.4299,1.4299,1.4299,1.4299,1.4299,1.4299,1.4299,0.0,1.4299,1.4299,1.4299,1.434,1.4468,1.4502,1.4557,1.4699,1.4733,1.4787,1.493,1.5072,1.5221,1.5371,1.5642,1.5825,1.5852,1.6117,0.0,0.0,0.0,0.0,1.6734,1.6876,1.6965,1.6978,1.6978,1.6978,1.6978,1.6978,1.6978,1.6978,1.6978,1.6978,1.6978,1.6978,1.6978,1.6978,0.0,0.0,0.0,1.7175,1.7256,1.7378,1.7378,1.7378,1.7163,1.717,1.7399,1.7843,0.0,0.0,0.0,0.0,0.0,0.0,0.1795,0.1458,0.1022,0.0469,0.0353,0.0358,0.0369,0.0494,0.0864,0.0,0.0,0.0,0.0,0.0,0.0,0.0,0.0,0.0,0.0,0.0,0.0,0.0,0.0,0.0,0.0,0.0,0.0,0.0,0.0,0.0,0.0,0.0,0.0,0.0,0.0,0.0,0.0,0.0,0.0,0.0,0.0,0.0,1.3078,1.3322,1.3505,1.3654,1.3797,1.3905,1.4007,1.4163,1.4251,1.4299,1.4299,1.4299,1.4299,1.4299,1.4299,1.4299,1.4299,0.0,1.4299,1.4299,1.4367,1.4441,1.4502,1.4665,1.4808,1.4869,1.495,1.5059,1.5215,1.5282,1.5411,1.5649,1.5778,1.5927,0.0,0.0,0.0,0.0,0.0,0.0,1.689,1.6944,1.6978,1.6978,1.6978,1.6978,1.6978,1.6978,1.6978,1.6978,1.6978,1.6978,1.6978,1.6978,1.7026,1.7107,0.0,0.0,0.0,1.7331,1.7365,1.7419,1.7419,1.7419,1.7426,1.7304,1.7337,1.7575,0.0,0.0,0.0,0.0,0.0,0.1795,0.1795,0.1458,0.0908,0.0117,0.0,0.0,0.0,0.0,0.0494,0.1606,0.1853,0.0,0.0,0.0,0.0,0.0,0.0,0.0,0.0,0.0,0.0,0.0,0.0,0.0,0.0,0.0,0.0,0.0,0.0,0.0,0.0,0.0,0.0,0.0,0.0,0.0,0.0,0.0,0.0,0.0,0.0,0.0,0.0,0.0,0.0,1.3709,1.381,1.398,1.4163,1.4272,1.4299,1.4299,1.4299,1.4299,1.4299,1.4299,1.4299,1.4299,1.4299,1.4299,1.4312,1.4353,1.4441,1.4536,1.4631,1.4821,1.4984,1.5025,1.512,1.5235,1.5391,1.5452,1.5574,1.5825,1.5934,1.6076,0.0,1.6476,0.0,0.0,0.0,0.0,0.0,1.6978,1.6978,1.6978,1.6978,1.6978,1.6978,1.6978,1.6978,1.6978,1.6978,1.7005,1.7039,1.7039,1.7121,1.7256,0.0,0.0,0.0,1.7487,1.7514,1.7555,1.7555,1.7555,1.7561,1.7445,1.7498,1.7498,0.0,0.0,0.0,0.0,0.0,0.0,0.1795,0.1795,0.1362,0.0117,0.0,0.0,0.0,0.0,0.0247,0.0988,0.1606,0.0,0.0,0.0,0.0,0.0,0.0,0.0,0.0,0.0,1.0717,1.0717,1.0724,1.0799,0.0,0.0,0.0,0.0,0.0,0.0,0.0,0.0,0.0,0.0,0.0,0.0,0.0,0.0,0.0,0.0,0.0,0.0,0.0,0.0,0.0,0.0,0.0,1.4048,1.4299,1.4299,1.4299,1.4299,1.4299,1.4299,1.4299,1.4299,1.4299,1.4299,1.4299,1.4299,1.434,1.4482,1.4509,1.4604,1.4909,1.497,1.5018,1.516,1.5181,1.5235,1.5391,1.554,1.5689,1.5839,1.6123,1.6307,1.6307,1.6578,0.0,0.0,0.0,0.0,0.0,1.6978,1.6978,1.6978,1.6978,1.6978,1.6978,1.6978,1.6978,1.6978,1.6978,1.7053,1.7188,1.7188,1.727,0.0,0.0,0.0,0.0,1.765,1.7738,1.786,1.786,1.786,1.786,1.786,1.786,1.786,0.0,0.0,0.0,0.0,0.0,0.0,0.0,0.1232,0.0907,0.0117,0.0,0.0,0.0,0.0,0.0247,0.0988,0.1606,0.0,0.0,0.0,0.0,0.0,0.0,0.0,0.0,0.0,1.0717,1.0717,1.0717,1.0744,1.0792,1.0792,0.0,0.0,0.0,0.0,0.0,0.0,0.0,0.0,0.0,0.0,0.0,0.0,0.0,0.0,0.0,0.0,0.0,0.0,0.0,0.0,0.0,0.0,0.0,1.4272,1.4299,1.4299,1.4299,1.4299,1.4299,1.4299,1.4299,1.4299,1.4299,1.4299,1.434,1.4482,1.459,1.4733,1.4936,1.5052,1.5126,1.5174,1.5181,1.5269,1.5527,1.5608,1.573,1.5981,1.6273,1.6497,0.0,0.0,0.0,0.0,0.0,0.0,0.0,1.6978,1.6978,1.6978,1.6978,1.6978,1.6978,1.6978,1.6978,1.6985,1.708,1.7148,1.7195,1.7304,0.0,0.0,0.0,0.0,0.0,1.7792,1.7826,1.786,1.786,1.786,1.786,1.786,1.786,1.786,0.0,0.0,0.0,0.0,0.0,0.0,0.0,0.1343,0.0454,0.0,0.0,0.0,0.0,0.0,0.0247,0.0988,0.1606,0.0,0.0,0.0,0.0,0.0,0.0,0.0,0.0,1.0717,1.0717,1.0717,1.0717,1.0717,1.0717,1.0717,1.0772,1.0867,0.0,0.0,0.0,0.0,0.0,0.0,0.0,0.0,1.2081,0.0,0.0,0.0,0.0,0.0,0.0,0.0,0.0,0.0,0.0,0.0,0.0,0.0,1.4299,1.4299,1.4299,1.4299,1.4299,1.4299,1.4299,1.4299,1.4299,1.4299,1.4353,1.4557,1.4672,1.4801,1.5011,1.512,1.5181,1.5181,1.5228,1.5357,1.5601,1.5683,1.5852,1.6205,1.6463,0.0,0.0,0.0,0.0,0.0,0.0,0.0,0.0,1.6978,1.6978,1.6978,1.6978,1.6978,1.6978,1.7032,1.706,1.706,1.7209,1.7311,1.7365,1.746,0.0,0.0,0.0,0.0,0.0,1.786,1.786,1.786,1.786,1.786,1.786,1.786,1.786,1.786,0.0,0.0,0.0,0.0,0.0,0.0,0.0,0.2354,0.0341,0.0,0.0,0.0,0.0,0.0,0.0247,0.0988,0.0,0.0,0.0,0.0,0.0,0.0,0.0,0.0,0.0,1.0585,1.0717,1.0717,1.0717,1.0717,1.0717,1.0717,1.0717,1.0724,1.088,1.1036,1.1199,0.0,0.0,0.0,0.0,0.0,0.0,0.0,0.0,0.0,0.0,0.0,0.0,0.0,0.0,0.0,0.0,0.0,0.0,0.0,0.0,0.0,0.0,1.4122,1.4299,1.4299,1.4299,1.4299,1.4299,1.4306,0.0,1.4679,1.4746,1.4841,1.5126,1.5181,1.5181,1.5181,1.5309,1.5466,1.5615,1.5784,1.6042,1.6469,1.6659,0.0,0.0,0.0,0.0,0.0,0.0,0.0,0.0,1.6978,1.6978,1.6978,1.6978,1.6978,1.6978,1.7121,1.7195,1.7195,1.7358,1.7514,1.765,1.7663,0.0,0.0,0.0,0.0,0.0,1.786,1.786,1.786,1.786,1.786,1.786,1.786,1.786,1.786,0.0,0.0,0.0,0.0,0.0,0.0,0.0,0.0,0.0,0.0,0.0,0.0,0.0,0.0,0.0247,0.0,0.0,0.0,0.0,0.0,0.0,0.0,0.0,0.0,0.0,1.018,1.0717,1.0717,1.0717,1.0717,1.0717,1.0717,1.0717,1.0724,1.088,1.109,1.1348,1.1538,0.0,0.0,0.0,0.0,0.0,0.0,0.0,0.0,1.2678,1.2827,0.0,0.0,0.0,0.0,0.0,0.0,0.0,0.0,1.3046,0.0,1.2509,0.0,1.4299,1.4299,1.4299,1.4299,0.0,1.4387,1.4516,1.4699,1.4835,1.497,1.5147,1.5181,1.5181,1.5181,1.5309,1.5466,1.5615,1.5967,1.6279,1.6497,1.6659,1.6809,0.0,0.0,0.0,0.0,0.0,0.0,0.0,1.6978,1.6978,1.6978,1.6978,1.6978,1.6978,1.7121,1.7195,1.7195,1.7467,1.7616,1.765,1.7758,0.0,0.0,0.0,0.0,1.786,1.786,1.786,1.786,1.786,1.786,1.786,1.786,1.786,1.786,0.0,0.0,0.0,0.0,0.0,0.0,0.0,0.0,0.0,0.0,0.0,0.0,0.0,0.0,0.0,0.0,0.0,0.0,0.0,0.0,0.0,0.0,0.0,0.7455,0.951,1.0319,1.0717,1.0717,1.0717,1.0717,1.0717,1.0717,1.0717,1.0724,1.088,1.1077,1.1294,1.145,1.1552,1.1619,1.1619,0.0,0.0,0.0,0.0,0.0,1.2596,1.2773,0.0,1.2889,1.2893,1.3118,0.0,0.0,0.0,0.0,1.3053,1.3768,1.2692,1.3407,1.4299,1.4299,1.4299,1.4299,1.4299,1.4407,1.4557,1.4706,1.4862,1.5018,1.5153,1.5181,1.5181,1.5181,1.5371,1.5594,1.5811,1.6171,1.6435,1.651,1.672,1.689,0.0,0.0,0.0,0.0,0.0,0.0,0.0,1.6978,1.6978,1.6978,1.7046,1.708,1.708,1.7222,1.7331,1.7405,1.7629,1.7758,1.7758,1.7826,0.0,0.0,0.0,0.0,1.786,1.786,1.786,1.786,1.786,1.786,1.786,1.786,1.786,1.786,0.0,0.0,0.0,0.0,0.0,0.0,0.0,0.0,0.0,0.0,0.0,0.0,0.0,0.0,0.0,0.0,0.0,0.0,0.0,0.0,0.0,0.0,0.0,0.7666,1.0313,1.0585,1.0717,1.0717,1.0717,1.0717,1.0717,1.0717,1.0717,1.0724,1.09,1.105,1.1172,1.1348,1.1497,1.1619,1.1619,0.0,0.0,0.0,0.0,0.0,0.0,0.0,0.0,1.2475,1.2501,1.2618,1.2551,0.0,0.0,0.0,0.0,0.0,1.323,1.3761,1.4299,1.4299,1.4299,1.4299,1.4299,1.4428,1.4584,1.4713,1.4882,1.5038,1.516,1.5181,1.5187,1.5215,1.5472,1.5778,1.6076,1.6347,1.653,1.6551,1.6809,0.0,0.0,0.0,0.0,0.0,0.0,0.0,0.0,1.6978,1.6978,1.6978,1.7121,1.7202,1.7229,1.7378,1.7521,1.765,1.7792,1.786,1.786,1.786,1.786,0.0,0.0,0.0,1.786,1.786,1.786,1.786,1.786,1.786,1.786,1.786,1.786,1.786,0.0,0.0,0.0,0.0,0.0,0.0,0.0,0.0,0.0,0.0,0.0,0.0,0.0,0.0,0.0,0.0,0.0,0.0,0.0,0.0,0.0,0.7832,0.6909,0.7139,0.8839,1.0047,1.0717,1.0717,1.0717,1.0717,1.0717,1.0717,1.0717,1.0731,1.1009,1.1138,1.1185,1.1463,1.1599,1.1619,1.1619,0.0,0.0,0.0,0.0,0.0,0.0,0.0,0.0,1.2475,1.2501,1.2618,1.2551,0.0,0.0,0.0,0.0,0.0,1.1621,1.2692,1.4299,1.4299,1.4299,1.4299,1.4299,1.4509,1.4713,1.4733,1.4957,1.5153,1.5181,1.5181,1.5221,0.0,0.0,1.5927,0.0,0.0,1.6571,1.67,0.0,0.0,0.0,0.0,0.0,0.0,0.0,0.0,0.0,1.6978,1.6978,1.6978,1.7121,1.7256,1.7385,1.7534,1.7629,1.765,1.7792,1.786,1.786,1.786,1.786,0.0,0.0,1.786,1.786,1.786,1.786,1.786,1.786,1.786,1.786,1.786,1.786,1.786,0.0,0.0,0.0,0.0,0.0,0.0,0.0,0.0,0.0,0.0,0.0,0.0,0.0,0.0,0.0,0.0,0.0,0.0,0.0,0.0,0.0,0.822,0.7816,0.8191,0.9643,1.0319,1.0717,1.0717,1.0717,1.0717,1.0717,1.0717,1.0717,1.0731,1.0948,1.109,1.1179,1.1402,1.1545,1.1619,0.0,0.0,0.0,0.0,0.0,0.0,0.0,0.0,0.0,0.0,1.1849,1.1951,1.1874,0.0,0.0,0.0,0.0,0.0,1.1627,1.2692,1.3945,1.3945,1.4122,1.4299,1.4299,1.4529,1.474,1.474,1.4977,1.5181,1.5181,0.0,1.5262,1.5493,0.0,1.5961,1.6266,0.0,0.0,0.0,0.0,0.0,0.0,0.0,0.0,0.0,0.0,0.0,0.0,0.0,1.7019,1.7093,1.7236,1.7392,1.7541,1.7684,1.7758,1.7772,1.7826,1.786,1.786,1.786,1.786,1.786,0.0,1.786,1.786,1.786,1.786,1.786,1.786,1.786,1.786,1.786,1.786,1.786,0.0,0.0,0.0,0.0,0.0,0.0,0.0,0.0,0.0,0.0,0.0,0.0,0.0,0.0,0.0,0.0,0.0,0.0,0.0,0.0,0.7248,0.877,0.8897,0.9539,1.0717,1.0717,1.0717,1.0717,1.0717,1.0717,1.0717,1.0717,1.0738,1.0778,1.0934,1.1077,1.1226,1.1382,1.1511,1.1619,0.0,0.0,0.0,0.0,0.0,0.0,0.0,0.0,0.0,0.0,0.0,0.0,0.0,0.0,0.0,1.1389,1.146,1.1643,1.1993,1.2875,1.3591,1.3591,0.0,1.4299,1.4299,0.0,0.0,0.0,0.0,0.0,1.5181,1.5242,0.0,1.5642,1.5811,0.0,0.0,0.0,0.0,0.0,0.0,0.0,0.0,0.0,0.0,0.0,0.0,0.0,0.0,0.0,1.7046,1.7188,1.7344,1.7494,1.765,1.7792,1.786,1.786,1.786,1.786,1.786,1.786,1.786,1.786,1.786,1.786,1.786,1.786,1.786,1.786,1.786,1.786,1.786,1.786,1.786,1.786,0.0,0.0,0.0,0.0,0.0,0.0,0.0,0.0,0.0,0.0,0.0,0.0,0.0,0.0,0.0,0.0,0.0,0.0,0.0,0.0,0.8776,1.0337,1.0491,1.0578,1.0717,1.0717,1.0717,1.0717,1.0717,1.0717,1.0717,1.0717,1.0799,1.0941,1.1084,1.1233,1.1382,1.1538,1.1606,1.1633,1.1762,0.0,0.0,0.0,0.0,0.0,0.0,0.0,0.0,0.0,0.0,0.0,0.0,0.0,1.0998,1.1389,1.146,1.1643,1.1993,1.2875,1.3591,1.3591,1.3945,0.0,1.4299,1.4529,0.0,1.474,0.0,0.0,0.0,1.5411,1.5655,1.5811,1.5967,0.0,0.0,0.0,0.0,0.0,0.0,0.0,0.0,0.0,0.0,0.0,0.0,0.0,0.0,0.0,0.0,1.7188,1.7344,1.7494,1.765,1.7792,1.786,1.786,1.786,1.786,1.786,1.786,1.786,1.786,1.786,1.786,1.786,1.786,1.786,1.786,1.786,1.786,1.786,1.786,1.786,1.786,0.0,0.0,0.0,0.0,0.0,0.0,0.0,0.0,0.0,0.0,0.0,0.0,0.0,0.0,0.0,0.0,0.0,0.0,0.0,0.9305,0.9825,1.0487,1.0636,1.0717,1.0717,1.0717,1.0717,1.0717,1.0717,1.0717,1.0717,1.0717,1.0806,1.0955,1.1097,1.1246,1.1402,1.1552,1.1619,1.1633,1.1775,1.1925,0.0,0.0,0.0,0.0,0.0,0.0,0.0,0.0,1.0964,1.0948,1.1025,1.1118,1.1172,1.1389,1.1465,1.1476,1.1638,1.252,1.323,1.323,1.3768,0.0,0.0,1.4529,1.474,1.474,0.0,0.0,0.0,0.0,1.5683,1.5832,1.6062,0.0,0.0,0.0,0.0,0.0,0.0,0.0,0.0,0.0,0.0,0.0,0.0,0.0,0.0,0.0,0.0,1.7331,1.748,1.7629,1.7772,1.7826,1.786,1.786,1.786,1.786,1.786,1.786,1.786,1.786,1.786,1.786,1.786,1.786,1.786,1.786,1.786,1.786,1.786,1.786,1.786,1.786,0.0,0.0,0.0,0.0,0.0,0.0,0.0,0.0,0.0,0.0,0.0,0.0,0.0,0.0,0.0,0.0,0.0,0.0,0.8848,0.9748,1.0412,1.0555,1.0663,1.0717,1.0717,1.0717,1.0717,1.0717,1.0717,1.0717,1.0724,1.0772,1.0873,1.1023,1.1172,1.1321,1.147,1.1572,1.1647,1.1701,1.1843,1.1993,0.0,0.0,0.0,0.0,0.0,0.0,0.0,0.0,1.0693,1.0829,1.1036,1.1139,1.1221,1.14,1.1649,1.1838,1.1816,1.2343,1.3053,0.0,0.0,0.0,1.4353,1.4563,1.474,1.474,1.5011,0.0,0.0,0.0,0.0,0.0,0.0,0.0,0.0,0.0,0.0,0.0,0.0,0.0,0.0,0.0,0.0,0.0,0.0,0.0,0.0,0.0,0.0,0.0,1.7568,1.7717,1.786,1.786,1.786,1.786,1.786,1.786,1.786,1.786,1.786,1.786,1.786,1.786,1.786,1.786,1.786,1.786,1.786,1.786,1.786,1.786,1.786,1.786,0.0,0.0,0.0,0.0,0.0,0.0,0.0,0.0,0.0,0.0,0.0,0.0,0.0,0.0,0.0,0.0,0.0,0.0,1.0276,1.0412,1.0561,1.0711,1.0717,1.0717,1.0717,1.0717,1.0717,1.0717,1.0717,1.0717,1.0724,1.0873,1.1023,1.1172,1.1321,1.1477,1.1619,1.1619,1.1701,1.1843,1.1999,1.2155,1.2305,0.0,0.0,0.0,0.0,0.0,0.0,0.0,1.0819,1.0938,1.1063,1.1194,1.1319,1.1422,1.2005,1.2372,1.2171,1.2875,1.3591,1.3591,0.0,0.0,1.4482,1.4631,1.474,1.474,0.0,0.0,0.0,0.0,0.0,0.0,0.0,0.0,0.0,0.0,0.0,0.0,0.0,0.0,0.0,0.0,0.0,0.0,0.0,0.0,0.0,0.0,0.0,0.0,1.7568,1.7717,1.786,1.786,1.786,1.786,1.786,1.786,1.786,1.786,1.786,1.786,1.786,1.786,1.786,1.786,1.786,1.786,1.786,1.786,1.786,1.786,1.786,1.786,0.0,0.0,0.0,0.0,0.0,0.0,0.0,0.0,0.0,0.0,0.0,0.0,0.0,0.0,0.0,0.0,0.0,0.0,1.0412,1.0466,1.0561,1.0711,1.0717,1.0717,1.0717,1.0717,1.0717,1.0717,1.0717,1.0717,1.0724,1.0873,1.1023,1.1172,1.1321,1.1477,1.1626,1.1728,1.1789,1.1857,1.2115,1.225,1.2305,0.0,0.0,0.0,0.0,0.0,0.0,0.0,0.0,0.0,1.1063,1.1183,1.1302,1.1422,1.1816,1.2177,1.2165,1.2875,1.3591,1.3591,0.0,0.0,0.0,1.4631,0.0,0.0,1.5242,1.5459,0.0,0.0,0.0,0.0,0.0,0.0,0.0,0.0,0.0,0.0,0.0,0.0,0.0,0.0,0.0,0.0,0.0,0.0,0.0,0.0,0.0,0.0,1.7717,1.7826,1.786,1.786,1.786,1.786,1.786,1.786,1.786,1.786,1.786,1.786,1.786,1.786,1.786,1.786,1.786,1.786,1.786,1.786,1.786,1.786,1.786,1.786,0.0,0.0,0.0,0.0,0.0,0.0,0.0,0.0,0.0,0.0,0.7883,0.0,0.0,0.0,0.0,0.0,0.0,0.0,0.0,1.0548,1.0622,1.0717,1.0717,1.0717,1.0717,1.0717,1.0717,1.0717,1.0717,1.0751,1.0812,1.0962,1.1111,1.126,1.1416,1.1565,1.1708,1.1796,1.1904,1.2026,1.2216,1.2325,1.2393,0.0,0.0,0.0,0.0,0.0,0.0,0.0,0.0,0.0,1.1079,1.1215,1.1357,1.1788,1.2165,1.252,1.2698,1.323,1.3945,1.3945,1.4122,1.4353,1.4557,0.0,0.0,0.0,0.0,1.5547,0.0,0.0,0.0,0.0,0.0,0.0,0.0,0.0,0.0,0.0,0.0,0.0,0.0,0.0,0.0,0.0,0.0,0.0,0.0,0.0,0.0,0.0,1.7792,1.786,1.786,1.786,1.786,1.786,1.786,1.786,1.786,1.786,1.786,1.786,1.786,1.786,1.786,1.786,1.786,1.786,1.786,1.786,1.786,1.786,1.786,1.786,0.0,0.0,0.0,0.0,0.0,0.0,0.0,0.0,0.0,0.0,0.7872,0.7994,0.0,0.0,0.0,0.0,0.0,0.0,0.0,0.0,1.0717,1.0717,1.0717,1.0717,1.0717,1.0717,1.0717,1.0717,1.0717,1.0799,1.0955,1.1097,1.1246,1.1396,1.1552,1.1701,1.183,1.1843,1.202,1.2291,1.2305,1.2393,1.2535,1.2678,0.0,0.0,0.0,0.0,0.0,0.0,0.0,0.0,1.1118,1.1275,1.1632,1.1988,1.252,1.3053,1.3413,1.3945,1.4299,1.4299,1.4319,1.4414,1.4679,1.4869,1.5072,1.535,0.0,1.5683,1.5825,0.0,0.0,0.0,0.0,0.0,0.0,0.0,0.0,0.0,0.0,0.0,0.0,0.0,0.0,0.0,0.0,0.0,0.0,0.0,0.0,1.7663,1.7792,1.786,1.786,1.786,1.786,0.0,1.786,1.786,1.786,1.786,1.786,1.786,1.786,1.786,1.786,1.786,1.786,1.786,1.786,1.786,1.786,1.786,1.786,1.786,0.0,0.0,0.0,0.0,0.0,0.0,0.0,0.0,0.0,0.0,0.0,0.0,0.0,0.0,0.0,0.0,0.0,0.0,0.0,0.0,1.0717,1.0717,1.0717,1.0717,1.0717,1.0717,1.0717,1.0717,1.0717,1.0799,1.0955,1.1097,1.1246,1.1396,1.1552,1.1701,1.1837,1.1959,1.2121,1.2298,1.2413,1.2549,1.2684,1.2403,1.2077,0.0,0.0,0.0,0.0,0.0,0.0,0.0,1.1204,1.1335,1.1455,1.1632,1.2165,1.2875,1.3053,1.3591,1.4299,1.4299,1.4475,1.4665,1.4726,1.4943,1.5187,1.5371,1.5533,1.5683,1.5825,0.0,0.0,0.0,0.0,0.0,0.0,0.0,0.0,0.0,0.0,0.0,0.0,0.0,0.0,0.0,0.0,0.0,0.0,0.0,0.0,1.7812,1.7846,1.786,1.786,1.786,1.786,0.0,1.786,1.786,1.786,1.786,1.786,1.786,1.786,1.786,1.786,1.786,1.786,1.786,1.786,1.786,1.786,1.786,1.786,1.786,0.0,0.0,0.0,0.0,0.0,0.0,0.0,0.0,0.0,0.0,0.0,0.0,0.0,0.0,0.0,0.0,0.0,0.0,0.0,0.0,1.0717,1.0717,1.0717,1.0717,1.0717,1.0717,1.0717,1.0717,1.0792,1.0907,1.1056,1.1206,1.1355,1.1504,1.1653,1.1803,1.1952,1.2108,1.2257,1.2406,1.2556,1.2501,1.243,1.225,1.1907,1.1546,1.1282,0.0,0.0,0.0,0.0,0.0,0.0,0.0,1.1455,1.181,1.2343,1.2875,1.323,1.3768,1.4319,1.4387,1.457,1.476,1.4835,1.5079,1.5337,1.5486,1.5581,1.5703,1.592,0.0,0.0,0.0,0.0,0.0,0.0,0.0,0.0,0.0,0.0,0.0,0.0,0.0,0.0,0.0,0.0,0.0,0.0,1.7419,1.7555,1.7846,1.786,1.786,1.786,1.786,1.786,1.786,1.786,1.786,1.786,1.786,1.786,1.786,1.786,1.786,1.786,1.786,1.786,1.786,1.786,1.786,1.786,1.786,1.786,1.786,0.0,0.0,0.0,0.0,0.0,0.0,0.0,0.0,0.0,0.0,0.0,0.0,0.0,0.0,0.0,0.0,0.0,0.0,0.0,0.0,0.0,1.0717,1.0717,1.0717,1.0717,1.0717,1.0731,1.0758,1.0914,1.1056,1.1206,1.1335,1.1484,1.166,1.1775,1.1932,1.2108,1.2237,1.2386,1.2556,1.2678,1.2601,1.2357,1.243,1.2043,1.1423,1.1392,0.0,0.0,0.0,0.0,0.0,0.0,0.0,1.1632,1.1988,1.252,1.3053,1.3407,1.3945,1.4333,1.4475,1.4624,1.478,1.4936,1.5201,1.5452,1.5608,1.5655,1.5757,1.6029,1.6225,0.0,0.0,0.0,0.0,0.0,0.0,0.0,0.0,0.0,0.0,0.0,0.0,0.0,0.0,0.0,0.0,1.7405,1.7446,1.7582,1.786,1.786,1.786,1.786,1.786,1.786,1.786,1.786,1.786,1.786,1.786,1.786,1.786,1.786,1.786,1.786,1.786,1.786,1.786,1.786,1.786,1.786,1.786,1.786,1.786,0.0,0.0,0.0,0.0,0.0,0.0,0.0,0.0,0.0,0.0,0.8212,0.0,0.0,0.0,0.0,0.0,0.0,0.0,0.0,0.0,0.0,1.0717,1.0717,1.0717,1.0717,1.0717,1.0785,1.0921,1.1063,1.1212,1.1362,1.1382,1.1538,1.1803,1.1823,1.1993,1.2257,1.2284,1.2447,1.2705,1.2718,1.2888,1.2956,1.2664,1.2269,1.1896,0.0,0.0,0.0,0.0,1.1243,0.0,0.0,0.0,1.1455,1.1632,1.2165,1.2875,1.3053,1.3591,1.4333,1.4475,1.4624,1.478,1.4936,1.5201,1.5452,1.5608,1.5737,1.5879,1.6049,1.6307,0.0,0.0,0.0,0.0,0.0,0.0,0.0,0.0,0.0,0.0,0.0,0.0,0.0,0.0,0.0,0.0,1.7412,1.7548,1.7684,1.786,1.786,1.786,1.786,1.786,1.786,1.786,1.786,1.786,1.786,1.786,1.786,1.786,1.786,1.786,1.786,1.786,1.786,1.786,1.786,1.786,1.786,1.786,1.786,1.786,0.0,0.0,0.0,0.0,0.0,0.0,0.0,0.0,0.0,0.0,0.0,0.0,0.0,0.0,0.0,0.0,0.0,0.0,0.0,0.0,0.0,1.0717,1.0717,1.0717,1.0717,1.0806,1.088,1.0948,1.1179,1.1321,0.0,1.1558,1.1708,1.1837,1.1925,1.2081,1.2298,1.2467,1.261,1.2745,1.2908,1.2896,1.2853,0.0,0.0,0.0,0.0,0.0,0.0,0.0,0.0,0.0,1.2148,0.0,0.0,0.0,1.2343,1.3053,1.3591,1.3998,1.4455,1.4604,1.4753,1.4909,1.5059,1.5323,1.556,1.5628,1.5825,1.6001,1.6069,1.632,1.6524,0.0,0.0,0.0,0.0,0.0,0.0,0.0,0.0,0.0,0.0,0.0,0.0,0.0,0.0,1.7256,1.7412,1.7568,1.7717,1.786,1.786,1.786,1.786,1.786,1.786,1.786,1.786,1.786,1.786,1.786,1.786,1.786,1.786,1.786,1.786,1.786,1.786,1.786,1.786,1.786,1.786,1.786,1.786,1.786,0.0,0.0,0.0,0.0,0.0,0.0,0.0,0.0,0.0,0.0,0.0,0.0,0.0,0.0,0.0,0.0,0.0,0.0,0.0,0.0,0.0,1.0717,1.0717,1.0738,1.0778,1.0894,1.0989,1.1063,1.128,1.1409,1.1457,1.1708,1.185,0.0,1.2054,1.2223,1.242,1.2637,1.2773,1.2861,1.3085,1.303,0.0,0.0,0.0,0.0,0.0,0.0,0.0,0.0,0.0,0.0,0.0,0.0,0.0,0.0,0.0,1.3242,1.4162,1.4428,1.4557,1.4753,1.4889,1.5011,1.5153,1.5418,1.5642,1.5642,1.5872,1.6096,1.613,1.6347,1.653,1.6571,0.0,0.0,0.0,0.0,0.0,0.0,0.0,0.0,0.0,0.0,0.0,0.0,1.7148,1.7297,1.7412,1.7602,1.7758,1.786,1.786,1.786,1.786,1.786,1.786,1.786,1.786,1.786,1.786,1.786,1.786,1.786,1.786,1.786,1.786,1.786,1.786,1.786,1.786,1.786,1.786,1.786,1.786,1.786,0.0,0.0,0.0,0.0,0.0,0.0,0.0,0.0,0.0,0.0,0.0,0.0,0.0,0.0,1.0711,1.0717,1.0717,1.0717,1.0717,1.0717,1.0717,1.0717,1.0717,0.0,1.0934,1.0948,1.1084,1.1369,1.1382,1.1463,1.1613,1.1762,1.1911,1.2054,1.221,1.244,1.2712,0.0,0.0,0.0,0.0,0.0,0.0,0.0,0.0,0.0,0.0,0.0,0.0,0.0,0.0,0.0,0.0,0.0,0.0,0.0,0.0,0.0,1.4283,1.4509,1.4584,1.4882,1.4964,1.5011,1.5153,1.5418,1.5642,1.5642,1.5872,1.6123,1.6273,1.6422,1.6571,1.6714,1.6876,0.0,0.0,0.0,0.0,0.0,0.0,0.0,0.0,0.0,0.0,0.0,1.7249,1.7412,1.7419,1.7684,1.786,1.786,1.786,1.786,1.786,1.786,1.786,1.786,1.786,1.786,1.786,1.786,1.786,1.786,1.786,1.786,1.786,1.786,1.786,1.786,1.786,1.786,1.786,1.786,1.786,1.788,0.0,0.0,0.0,0.0,0.0,0.0,0.0,0.0,0.0,0.0,0.0,0.0,0.0,1.0558,1.0717,1.0717,1.0717,1.0717,1.0717,1.0812,1.0867,1.0867,1.0955,1.1029,1.1084,1.1185,1.1287,1.1389,1.1491,1.1613,1.1755,1.1911,1.206,1.221,1.2264,1.2454,1.2739,1.2834,0.0,0.0,0.0,0.0,0.0,0.0,0.0,0.0,0.0,0.0,0.0,0.0,0.0,0.0,0.0,0.0,0.0,0.0,1.3413,1.3794,1.4296,1.4584,1.4706,1.4916,1.5038,1.512,1.5167,1.5418,1.5642,1.5642,1.5872,1.613,1.6279,1.6429,1.6571,1.6727,1.6876,1.6978,0.0,0.0,0.0,0.0,0.0,0.0,0.0,0.0,0.0,0.0,0.0,1.7419,1.7419,1.7704,1.786,1.786,1.786,1.786,1.786,1.786,1.786,1.786,1.786,1.786,1.786,1.786,1.786,1.786,1.786,1.786,1.786,1.786,1.786,1.786,1.786,1.786,1.786,1.786,1.7935,1.8023,0.0,0.0,0.0,0.0,0.0,0.0,0.0,0.0,0.0,0.0,0.0,0.0,0.0,0.0,1.0744,1.0792,1.0799,1.0819,1.0867,1.0962,1.1023,1.1023,1.1111,1.1185,1.124,1.1287,1.1362,1.147,1.1572,1.1694,1.1837,1.204,1.2216,1.2366,1.2413,1.2576,0.0,0.0,0.0,1.3336,0.0,0.0,1.3702,0.0,0.0,0.0,0.0,0.0,0.0,0.0,0.0,0.0,0.0,0.0,0.0,0.0,0.0,1.4044,1.437,1.4699,1.4855,1.5004,1.5113,1.5181,1.5181,1.5418,1.5642,1.5642,1.5872,1.613,1.6279,1.6429,1.6571,1.6727,1.6876,1.6978,1.6978,0.0,0.0,0.0,0.0,0.0,0.0,0.0,0.0,0.0,0.0,0.0,1.7419,1.765,1.7812,1.786,1.786,1.786,1.786,1.786,1.786,1.786,1.786,1.786,1.786,1.786,1.786,1.786,1.786,1.786,1.786,1.786,1.786,1.786,1.786,1.786,1.786,1.7914,1.8002,1.8111,0.0,0.0,0.0,0.0,0.0,0.0,0.0,0.0,0.0,0.0,0.0,0.0,0.0,0.0,0.0,1.0941,1.0955,1.1016,1.1151,1.1165,1.1172,1.1172,1.1172,1.1246,1.1396,1.1253,1.1328,1.1626,1.1633,1.1708,1.185,1.2149,1.2366,1.2515,1.2671,1.282,1.2976,0.0,1.3349,1.3627,0.0,1.3715,1.3865,0.0,0.0,0.0,1.4245,1.4299,0.0,0.0,0.0,0.0,0.0,0.0,0.0,0.0,0.0,0.0,0.0,0.0,0.0,1.5147,1.5181,1.5181,1.5187,1.5425,1.5642,1.5642,1.5879,1.613,1.6279,1.6422,1.6571,1.672,1.6876,1.6978,1.6978,0.0,0.0,0.0,0.0,0.0,0.0,0.0,0.0,0.0,1.7114,1.7256,1.7412,1.7568,1.7717,1.786,1.786,1.786,1.786,1.786,1.786,1.786,1.786,1.786,1.786,1.786,1.786,1.786,1.786,1.786,1.786,1.786,1.786,1.786,1.786,1.786,1.788,1.7813,1.786,1.7914,0.0,0.0,0.0,0.0,0.0,0.0,0.0,0.0,0.0,0.0,0.0,0.0,0.0,0.0,1.1056,1.1097,1.1104,1.1118,1.1158,1.1267,1.1328,1.1328,1.1436,1.1511,1.1558,1.1613,1.1687,1.1775,1.1884,1.2013,1.2162,1.225,1.2427,0.0,1.2827,1.2976,1.3119,1.3159,0.0,0.0,1.3627,1.3783,0.0,0.0,0.0,0.0,0.0,1.4299,0.0,0.0,1.4299,1.4299,0.0,0.0,0.0,0.0,0.0,0.0,1.4699,0.0,0.0,0.0,0.0,0.0,1.5323,1.5499,1.5669,1.5771,1.5947,1.6096,1.6137,1.6347,1.6537,1.6578,1.6809,1.6978,1.6978,1.6978,0.0,0.0,0.0,0.0,0.0,0.0,0.0,0.0,1.7114,1.7256,1.7412,1.767,1.7826,1.786,1.786,1.786,1.786,1.786,1.786,1.786,1.786,1.786,1.786,1.786,1.786,1.786,1.786,1.786,1.786,1.786,1.786,1.786,1.786,1.7935,1.8043,1.8077,1.8233,1.8658,0.0,0.0,0.0,0.0,0.0,0.0,0.0,0.0,0.0,0.0,0.0,0.0,0.0,0.0,1.1192,1.1253,1.126,1.1287,1.1348,1.1436,1.1511,1.1572,1.166,1.1735,1.1803,1.1823,1.1864,0.0,0.0,0.0,0.0,0.0,0.0,0.0,0.0,0.0,0.0,0.0,0.0,0.0,1.379,0.0,0.0,1.4163,1.4224,0.0,0.0,0.0,1.4299,1.4299,1.4299,0.0,0.0,0.0,0.0,0.0,0.0,0.0,0.0,0.0,0.0,0.0,0.0,0.0,1.5296,1.5486,1.5662,1.5744,1.5934,1.6083,1.6083,1.632,1.6524,1.6524,1.6781,1.6978,1.6978,1.6978,0.0,0.0,0.0,0.0,0.0,1.6978,1.6978,1.6978,1.706,1.7195,1.7412,1.7704,1.786,1.786,1.786,1.786,1.786,1.786,1.786,1.786,1.786,1.786,1.786,1.786,1.786,1.786,1.786,1.786,1.786,1.786,1.786,1.786,1.786,1.7955,1.8091,1.8165,1.8342,1.8552,0.0,0.0,0.0,0.0,0.0,0.0,0.0,0.0,0.0,0.0,0.0,0.0,0.0,0.0,0.0,0.0,1.1457,1.1525,1.166,1.1667,1.1728,1.185,1.1857,1.1925,1.206,1.1945,1.1952,0.0,0.0,0.0,0.0,0.0,0.0,0.0,0.0,0.0,0.0,0.0,0.0,1.3878,1.4014,1.4163,0.0,0.0,1.4299,0.0,1.4299,1.4299,1.4299,1.4299,1.4299,0.0,0.0,0.0,0.0,0.0,1.4631,0.0,0.0,0.0,0.0,0.0,0.0,0.0,1.5221,1.5445,1.5649,1.5683,1.59,1.6083,1.6083,1.632,1.6524,1.6524,1.6781,1.6978,1.6978,1.6978,1.6978,0.0,0.0,0.0,1.6978,1.6978,1.6978,1.6978,1.6992,1.7127,1.7405,1.7684,1.7846,1.786,1.786,1.786,1.786,1.786,1.786,1.786,1.786,1.786,1.786,1.786,1.786,1.786,1.786,1.786,1.786,1.786,1.786,1.786,1.786,1.7968,1.8124,1.8267,1.8423,1.8349,0.0,0.0,0.0,0.0,0.0,0.0,0.0,0.0,0.0,0.0,0.0,0.0,0.0,0.0,0.0,0.0,1.1857,1.1945,1.1972,1.1972,1.1986,1.2013,1.202,1.2033,1.206,1.2155,1.2216,0.0,0.0,0.0,0.0,0.0,0.0,0.0,0.0,0.0,0.0,0.0,0.0,1.4027,1.4061,0.0,1.4299,1.4299,1.4299,1.4299,1.4299,1.4299,1.4299,0.0,1.4299,1.4299,0.0,0.0,0.0,0.0,0.0,0.0,0.0,0.0,0.0,0.0,0.0,0.0,1.5493,1.5594,1.571,1.5947,1.6042,1.6083,1.6083,1.632,1.6524,1.6524,1.6781,1.6978,1.6978,1.6978,1.6978,1.6978,0.0,0.0,1.6978,1.6978,1.6978,1.6978,1.7087,1.7229,1.7412,1.7595,1.7738,1.786,1.786,1.786,1.786,1.786,1.786,1.786,1.786,1.786,1.786,1.786,1.786,1.786,1.786,1.786,1.786,1.786,1.786,1.786,1.786,1.8036,1.8287,1.8301,1.8498,1.8728,0.0,0.0,0.0,0.0,0.0,0.0,0.0,0.0,0.0,0.0,0.0,0.0,0.0,0.0,0.0,0.0,0.0,1.206,0.0,1.206,1.2094,1.2176,1.2176,1.221,1.2277,1.2359,1.2433,1.2508,0.0,0.0,0.0,0.0,0.0,0.0,0.0,0.0,0.0,0.0,1.4116,1.4183,1.4183,0.0,1.4299,1.4299,1.4299,1.4299,1.4299,1.4299,1.4299,1.4299,1.4299,0.0,0.0,1.4455,1.4543,0.0,1.4848,1.4984,0.0,0.0,0.0,1.5181,0.0,0.0,0.0,1.5642,1.5791,1.594,1.6029,1.6083,1.6083,1.6266,1.6435,1.651,1.6714,1.689,1.6971,1.6978,1.6978,1.6978,0.0,0.0,1.6978,1.6978,1.6978,1.6978,1.7114,1.7256,1.7412,1.7568,1.7717,1.786,1.786,1.786,1.786,1.786,1.786,1.786,1.786,1.786,1.786,1.786,1.786,1.786,1.786,1.786,1.786,1.786,1.786,1.786,1.786,1.8057,1.8321,1.8321,1.8518,1.8762,0.0,0.0,0.0,0.0,0.0,0.0,0.0,0.0,0.0,0.0,0.0,0.0,0.0,0.0,0.0,0.0,0.0,0.0,0.0,0.0,1.2257,1.2413,1.242,1.2474,1.2589,1.2589,1.2651,1.2773,0.0,0.0,0.0,0.0,0.0,0.0,0.0,0.0,0.0,0.0,0.0,1.4299,0.0,1.4299,1.4299,1.4299,1.4299,1.4299,1.4299,1.4299,1.4299,1.4299,0.0,1.436,1.4475,1.455,0.0,0.0,0.0,0.0,0.0,0.0,0.0,0.0,0.0,1.5418,0.0,0.0,0.0,1.5893,1.5995,1.6083,1.6083,1.6205,0.0,0.0,0.0,0.0,0.0,1.6924,0.0,1.6978,0.0,0.0,0.0,1.6978,1.6978,1.6978,1.7087,1.7216,1.7365,1.7521,1.767,1.7812,1.7846,1.786,1.786,1.786,1.786,1.786,1.786,1.786,1.786,1.786,1.786,1.786,1.786,1.786,1.786,1.786,1.786,1.786,1.786,1.8057,1.8321,1.8321,1.8518,1.8762,1.1111,1.1111,0.0,0.0,0.0,0.0,0.0,0.0,0.0,1.1721,0.0,0.0,0.0,0.0,0.0,0.0,0.0,0.0,1.2644,0.0,0.0,1.2881,1.2888,1.2895,1.2908,1.2908,1.2915,1.2935,1.3064,0.0,0.0,0.0,0.0,0.0,1.3899,0.0,0.0,0.0,1.4285,0.0,1.4299,1.4299,0.0,1.4299,1.4299,1.4299,1.4299,1.4299,1.4299,0.0,1.438,1.4489,0.0,1.4699,0.0,0.0,0.0,0.0,0.0,0.0,0.0,0.0,1.5296,0.0,0.0,0.0,1.5893,1.6029,0.0,0.0,0.0,0.0,0.0,0.0,0.0,0.0,1.6422,1.6727,1.6978,1.6978,0.0,0.0,0.0,1.6978,1.6978,1.6978,1.6992,1.7066,1.7209,1.7365,1.7514,1.767,1.7792,1.786,1.786,1.786,1.786,1.786,1.786,1.786,1.786,1.786,1.786,1.786,1.786,1.786,1.786,1.786,1.786,1.786,1.786,1.8057,1.8321,1.8321,1.8511,1.8762,1.1179,1.1165,0.0,0.0,0.0,0.0,0.0,0.0,0.0,1.1945,0.0,0.0,0.0,0.0,0.0,0.0,0.0,0.0,0.0,0.0,0.0,1.2956,1.2963,0.0,1.2963,1.2963,1.3003,1.3085,1.3234,1.3349,0.0,0.0,0.0,0.0,1.4014,0.0,1.4211,0.0,1.4299,0.0,0.0,0.0,0.0,1.4299,1.4299,1.4299,1.4299,1.4299,1.4312,0.0,1.4462,0.0,0.0,0.0,0.0,0.0,0.0,0.0,0.0,0.0,0.0,0.0,0.0,0.0,0.0,0.0,1.6001,0.0,0.0,0.0,0.0,0.0,0.0,0.0,1.6327,0.0,0.0,0.0,1.6876,0.0,0.0,0.0,0.0,0.0,0.0,0.0,1.6978,1.7039,1.7182,1.7338,1.7494,1.765,1.7792,1.786,1.786,1.786,1.786,1.786,1.786,1.786,1.786,1.786,1.786,1.786,1.786,1.786,1.786,1.786,1.786,1.786,1.786,1.8057,1.8321,1.8314,1.8511,1.8762,0.0,0.0,0.0,0.0,0.0,0.0,0.0,0.0,0.0,0.0,0.0,0.0,1.261,1.2725,0.0,0.0,0.0,1.2976,0.0,0.0,1.3037,0.0,0.0,0.0,0.0,0.0,1.3193,1.3295,1.3451,1.358,0.0,0.0,0.0,0.0,0.0,1.4197,1.4299,0.0,0.0,1.4299,1.4299,1.4326,1.4353,1.4312,1.4326,1.436,1.436,1.4387,1.4434,1.4536,1.4604,0.0,1.4903,0.0,0.0,0.0,0.0,0.0,1.5181,0.0,0.0,0.0,0.0,0.0,0.0,0.0,0.0,0.0,0.0,0.0,0.0,0.0,0.0,0.0,0.0,1.6354,0.0,1.6646,0.0,0.0,0.0,0.0,0.0,0.0,0.0,1.6978,1.6978,1.7026,1.7127,1.7277,1.7426,1.7582,1.7717,1.7826,1.786,1.786,1.786,1.786,1.786,1.786,1.786,1.786,1.786,1.786,1.786,1.786,1.786,1.786,1.786,1.786,1.786,1.8023,1.8267,1.8301,1.8477,1.8708,1.2033,1.1911,0.0,0.0,0.0,0.0,0.0,0.0,0.0,0.0,0.0,0.0,0.0,0.0,0.0,0.0,0.0,1.3017,1.3159,0.0,1.3234,0.0,0.0,0.0,0.0,0.0,0.0,1.3614,1.3756,1.3831,1.3838,1.3994,0.0,0.0,1.4224,1.4292,1.4299,1.4299,1.4299,1.4299,1.4299,1.438,1.4489,0.0,1.4387,1.4502,1.4502,0.0,0.0,1.4733,1.4835,0.0,0.0,0.0,0.0,0.0,0.0,0.0,0.0,0.0,0.0,0.0,0.0,0.0,0.0,0.0,1.6083,0.0,0.0,0.0,0.0,0.0,0.0,0.0,0.0,0.0,0.0,0.0,0.0,0.0,0.0,0.0,0.0,0.0,0.0,1.6978,1.6978,1.6985,1.6985,1.7121,1.727,1.7419,1.7575,1.7717,1.786,1.786,1.786,1.786,1.786,1.786,1.786,1.786,1.786,1.786,1.786,1.786,1.786,1.786,1.786,1.786,1.786,1.7948,1.8111,1.85,1.8644,1.8802,0.0,0.0,0.0,0.0,0.0,0.0,0.0,1.2481,0.0,0.0,0.0,0.0,0.0,0.0,1.3146,0.0,0.0,1.3275,1.3322,1.3417,0.0,0.0,0.0,1.3688,0.0,0.0,0.0,0.0,0.0,1.3994,1.3994,1.415,1.4224,1.4224,0.0,1.4299,0.0,0.0,0.0,0.0,0.0,1.4468,1.4509,0.0,0.0,1.4665,1.4665,1.4699,0.0,1.4862,1.493,1.5004,1.5201,1.5296,1.535,1.5452,1.5486,0.0,0.0,0.0,1.556,1.556,0.0,0.0,0.0,0.0,0.0,0.0,0.0,0.0,0.0,0.0,0.0,0.0,0.0,0.0,0.0,0.0,0.0,0.0,0.0,0.0,0.0,0.0,0.0,1.6978,1.6978,1.6978,1.6978,1.7114,1.7263,1.7412,1.7568,1.7717,1.786,1.786,1.786,1.786,1.786,1.786,1.786,1.786,1.786,1.786,1.786,1.786,1.786,1.786,1.786,1.786,1.786,1.7901,1.7948,1.8111,1.8321,1.8788,1.2298,0.0,0.0,0.0,0.0,0.0,0.0,0.0,0.0,0.0,1.3037,0.0,1.3241,0.0,1.3376,0.0,1.3526,1.3559,1.3559,1.3648,0.0,1.3702,1.379,0.0,0.0,0.0,0.0,0.0,0.0,1.415,1.4156,1.4251,1.4299,1.4299,1.4299,1.4299,1.4299,1.4299,1.4299,0.0,0.0,1.4577,0.0,0.0,1.478,0.0,0.0,1.493,1.5004,1.5153,1.5208,1.5242,1.5432,1.5493,1.5513,1.5608,1.5642,1.5642,1.5642,1.5676,0.0,0.0,1.5825,0.0,0.0,0.0,0.0,0.0,0.0,0.0,0.0,0.0,0.0,0.0,0.0,0.0,0.0,1.6517,0.0,0.0,0.0,0.0,0.0,0.0,1.6978,1.6978,1.6978,1.6978,0.0,0.0,1.7209,1.7412,1.7514,1.767,1.786,1.786,1.786,1.786,1.786,1.786,1.786,1.786,1.786,1.786,1.786,1.786,1.786,1.786,1.786,1.786,1.786,1.786,1.788,1.8036,1.8287,1.8788,0.0,0.0,0.0,0.0,1.2562,0.0,0.0,0.0,1.3024,0.0,1.3193,1.3247,1.3397,1.3546,1.3641,1.3641,1.3763,0.0,1.3838,1.3851,0.0,0.0,1.3858,1.3865,1.3865,0.0,0.0,0.0,0.0,0.0,1.4299,1.4299,1.4299,1.4299,1.4299,0.0,1.4299,1.4306,1.4312,1.4333,1.4475,1.4713,1.4997,1.514,0.0,1.5025,1.5153,1.5296,1.5445,1.5588,1.5642,1.5642,1.5649,1.5649,1.5649,1.5655,1.5662,1.5662,1.5662,1.5757,1.5866,1.5866,0.0,0.0,0.0,0.0,1.6083,0.0,0.0,0.0,0.0,0.0,0.0,0.0,0.0,0.0,0.0,0.0,0.0,0.0,0.0,0.0,0.0,1.6978,1.6978,1.6978,1.6978,1.6978,0.0,0.0,1.7114,1.7399,1.7419,1.7561,1.7846,1.786,1.786,1.786,1.786,1.786,1.786,1.786,1.786,1.786,1.786,1.786,1.786,1.786,1.786,1.786,1.786,1.786,1.788,1.8036,1.8274,1.8754,1.2901,1.2935,1.2956,0.0,1.2922,1.2949,0.0,0.0,0.0,0.0,1.3444,1.3526,1.3566,1.3702,1.3783,1.3783,1.4166,0.0,0.0,0.0,0.0,1.4014,1.4122,1.4183,1.4183,1.4217,0.0,1.4245,0.0,0.0,1.4299,1.4299,1.4299,1.4299,1.4299,1.4299,1.4306,1.4414,1.4523,1.4638,1.4794,1.4964,0.0,0.0,1.5398,1.5472,1.5506,1.5547,1.5588,1.5628,1.5642,1.5655,1.5764,1.5798,1.5818,1.5934,1.5967,1.5967,1.5967,1.5995,1.6022,1.6022,1.6049,1.6083,0.0,0.0,0.0,0.0,0.0,0.0,0.0,0.0,0.0,0.0,0.0,0.0,0.0,0.0,0.0,0.0,0.0,0.0,0.0,1.6978,1.6978,1.6978,1.6978,0.0,0.0,0.0,0.0,1.7243,1.7358,1.7514,1.7704,1.7812,1.786,1.786,1.786,1.786,1.786,1.786,1.786,1.786,1.786,1.786,1.786,1.786,1.786,1.786,1.786,1.786,1.788,1.8036,1.8145,1.8213,1.3051,0.0,0.0,1.3356,0.0,0.0,1.337,0.0,0.0,1.3573,1.3668,0.0,1.3722,1.3851,1.3939,1.4291,1.452,0.0,0.0,0.0,0.0,1.417,1.4251,1.4299,1.4299,1.4299,0.0,1.4299,0.0,0.0,1.4299,1.4299,1.4299,1.4299,1.4299,1.4333,1.4401,1.455,1.4733,1.4943,1.5031,0.0,0.0,1.5547,1.5655,1.5744,1.5811,1.5791,1.5744,1.5811,1.5832,1.5845,1.5927,1.5954,1.5967,1.6056,1.6083,1.6083,1.6083,1.613,1.6185,1.6185,1.6225,1.6273,1.6273,1.6273,1.6273,0.0,0.0,0.0,0.0,0.0,0.0,0.0,0.0,0.0,0.0,0.0,0.0,0.0,0.0,0.0,0.0,0.0,1.6978,1.6978,0.0,0.0,0.0,0.0,0.0,1.7188,1.7344,1.7494,1.765,1.7792,1.786,1.786,1.786,1.786,1.786,1.786,1.786,1.786,1.786,1.786,1.786,1.786,1.786,1.786,1.786,1.786,1.788,1.7968,1.8036,1.8104,0.0,0.0,0.0,0.0,0.0,0.0,0.0,1.4006,0.0,1.3995,0.0,1.4379,1.4379,1.4686,1.5133,0.0,0.0,1.5866,1.5866,1.5866,1.569,1.5168,1.4999,1.4822,1.4822,1.4476,0.0,0.0,0.0,0.0,1.4299,1.4299,1.4299,1.4299,1.4319,1.4421,1.4584,1.4733,1.4957,1.5215,1.5235,1.5411,1.5683,1.5805,1.5866,1.59,1.6056,1.6015,1.5906,1.6035,1.6096,1.611,1.611,1.6123,1.6137,1.6137,1.6137,1.6137,1.6137,1.6239,1.6341,1.6341,1.6429,1.6524,1.6524,1.6524,1.6524,1.6524,1.6537,0.0,0.0,0.0,0.0,0.0,0.0,0.0,0.0,0.0,0.0,0.0,0.0,0.0,0.0,0.0,0.0,0.0,0.0,0.0,0.0,0.0,0.0,1.7161,1.7331,0.0,1.7616,0.0,1.786,1.786,1.786,1.786,1.786,1.786,1.786,1.786,1.786,1.786,1.786,1.786,1.786,1.786,1.786,1.786,1.786,1.786,1.7948,1.8057,0.0,0.0,0.0,0.0,0.0,1.5071,1.6526,1.5763,1.502,1.5049,1.651,0.0,1.7442,1.8977,1.9962,2.0135,2.0519,0.0,0.0,0.0,0.0,2.0009,1.8636,1.778,1.778,1.5866,1.4822,0.0,0.0,0.0,1.4299,1.4299,1.4299,1.4306,1.4421,1.4631,1.4903,1.5045,0.0,1.5384,1.5506,1.5662,1.5818,1.5845,1.5934,1.6062,1.6218,1.6171,1.6049,1.6076,1.6164,1.6273,1.6273,1.6347,1.6442,1.6442,1.6442,1.6442,1.6442,1.6463,1.6483,1.6483,1.6503,1.6524,1.6524,1.6524,1.6524,1.6524,1.6619,1.6707,1.6707,0.0,0.0,0.0,0.0,0.0,0.0,0.0,0.0,0.0,0.0,0.0,0.0,0.0,0.0,0.0,0.0,0.0,0.0,0.0,0.0,0.0,1.7277,0.0,0.0,0.0,1.786,1.786,1.786,1.786,1.786,1.786,1.786,1.786,1.786,1.786,1.786,1.786,1.786,1.786,1.786,1.786,1.786,1.786,1.788,1.7901,0.0,0.0,0.0,0.0,0.0,0.0,0.0,1.9456,0.0,1.8361,1.9121,1.9694,1.9694,2.0643,2.1221,2.1577,2.176,2.176,2.1577,2.176,2.1749,2.1221,1.9507,0.0,1.8471,0.0,1.4992,1.4992,0.0,0.0,0.0,0.0,1.4407,1.4421,1.4645,1.4875,0.0,0.0,0.0,1.5649,1.5716,1.5839,1.5981,1.6062,1.6137,1.6218,1.6368,1.6374,1.6313,1.6313,1.6361,1.6422,1.6422,1.6469,1.6524,1.6524,1.6524,1.6524,1.6524,1.6578,1.6639,1.6639,1.67,1.6761,1.6761,1.6761,1.6761,1.6761,1.6815,1.687,1.687,1.6931,0.0,0.0,0.0,0.0,0.0,0.0,0.0,0.0,0.0,0.0,0.0,0.0,0.0,0.0,0.0,0.0,0.0,0.0,0.0,0.0,0.0,0.0,0.0,0.0,0.0,1.786,1.786,1.786,1.786,1.786,1.786,1.786,1.786,1.786,1.786,1.786,1.786,1.786,1.786,1.786,1.786,1.786,1.786,1.786,0.0,1.5399,0.0,0.0,1.8885,0.0,0.0,2.2966,2.2794,2.1566,2.1911,2.2084,2.2084,2.2428,2.2783,2.3137,2.3309,2.3309,2.3309,2.3309,2.3126,2.2772,2.0885,2.0028,2.0028,1.7814,1.6616,0.0,0.0,0.0,0.0,0.0,0.0,0.0,0.0,0.0,0.0,0.0,1.5642,1.5859,1.5886,1.5995,1.6144,1.6266,1.6327,1.6374,1.6517,1.6571,1.6571,1.6605,1.6598,1.6571,1.6571,1.6592,1.6619,1.6619,1.6619,1.6619,1.6619,1.6707,1.6802,1.6802,1.689,1.6978,1.6978,1.6978,1.6978,1.6978,1.6978,1.6978,1.6978,1.6978,0.0,0.0,0.0,0.0,0.0,0.0,0.0,0.0,0.0,0.0,0.0,0.0,0.0,0.0,0.0,0.0,0.0,0.0,0.0,0.0,0.0,1.7419,1.7419,0.0,1.786,0.0,1.786,1.786,1.786,1.786,1.786,1.786,1.786,1.786,1.786,1.786,1.786,1.786,1.786,1.786,1.786,1.786,1.786,1.786,0.0,0.0,0.0,0.0,0.0,0.0,0.0,2.4861,2.452,2.2622,2.3995,2.5032,2.5032,2.6588,2.7617,2.7617,2.7617,2.7617,2.7617,2.7617,2.7617,2.7617,2.5726,2.4691,2.4691,2.2826,2.172,0.0,0.0,0.0,0.0,0.0,0.0,0.0,0.0,0.0,0.0,1.575,1.5825,1.5866,1.6001,1.6151,1.6293,1.6307,1.6388,1.6524,1.6673,1.6727,1.6748,1.689,1.6842,1.6727,1.6727,1.6822,1.6937,1.6937,1.6937,1.6937,1.6937,1.6951,1.6958,1.6958,1.6971,1.6978,1.6978,1.6978,1.6978,1.6978,1.6978,1.6978,1.6978,1.6978,1.6978,0.0,0.0,0.0,0.0,0.0,0.0,0.0,0.0,0.0,0.0,0.0,0.0,0.0,0.0,0.0,0.0,0.0,0.0,1.6978,0.0,1.7419,1.7419,1.7724,0.0,1.786,1.786,1.786,1.786,1.786,1.786,1.786,1.786,1.786,1.786,1.786,1.786,1.786,1.786,1.786,1.786,1.786,1.786,1.786,0.0,0.0,0.0,0.0,0.0,0.0,0.0,2.6927,2.6821,2.6302,2.6702,2.7109,2.7109,2.7957,2.8417,2.8417,2.8577,2.8684,2.8684,2.8684,2.8684,2.8684,2.692,2.5868,2.5868,2.3853,2.2662,0.0,0.0,0.0,0.0,0.0,0.0,0.0,0.0,1.6714,1.5966,1.7179,1.7848,1.7954,1.9503,1.9227,1.8119,1.8526,1.7829,1.668,1.6836,1.689,1.6897,1.6958,1.6937,1.689,1.689,1.6931,1.6978,1.6978,1.6978,1.6978,1.6978,1.6978,1.6978,1.6978,1.6978,1.6978,1.6978,1.6978,1.6978,1.6978,1.6978,1.6978,1.6978,1.6978,1.6978,0.0,0.0,0.0,0.0,0.0,0.0,0.0,0.0,0.0,0.0,0.0,0.0,0.0,0.0,0.0,0.0,0.0,0.0,1.6978,0.0,1.7419,1.7419,1.7724,1.786,1.786,1.786,1.786,1.786,1.786,1.786,1.786,1.786,1.786,1.786,1.786,1.786,1.786,1.786,1.786,1.786,1.786,1.786,1.786,2.3298,0.0,2.3652,0.0,2.5787,2.6373,2.8101,2.835,2.8484,2.8711,2.8537,2.8404,2.8404,2.8604,2.8738,2.8738,2.8925,2.9045,2.9045,2.9045,2.9045,2.9045,2.7797,0.0,2.7084,2.5548,2.4719,2.4977,2.3601,0.0,0.0,0.0,0.0,0.0,1.9338,1.8673,1.7863,1.9469,2.0149,2.0294,2.1479,2.1395,2.0469,2.0127,1.9442,1.8677,1.8179,1.8013,1.7804,1.7188,1.6978,1.6978,1.6978,1.6978,1.6978,1.6978,1.6978,1.6978,1.6978,1.6978,1.6978,1.6978,1.6978,1.6978,1.6978,1.6978,1.6978,1.6978,1.6978,1.6978,1.6978,1.6978,1.6978,0.0,0.0,0.0,0.0,0.0,0.0,0.0,0.0,1.6978,1.6978,0.0,0.0,0.0,0.0,0.0,0.0,0.0,0.0,0.0,0.0,0.0,0.0,1.7724,1.786,1.786,1.786,1.786,1.786,1.786,1.786,1.786,1.786,1.786,1.786,1.786,1.786,1.786,1.786,1.786,1.786,1.786,1.786,1.786,2.7304,2.7474,2.7643,2.815,2.839,2.8604,2.8604,2.8845,2.9032,2.9032,2.9032,2.9032,2.9032,2.9032,2.9032,2.9032,2.9032,2.9045,2.9045,2.9045,2.9045,0.0,0.0,2.9045,2.9045,2.9325,2.9619,2.9721,0.0,0.0,2.6778,0.0,2.1054,2.2788,2.0685,2.0606,2.2154,2.2567,2.2661,2.2482,2.0679,2.1264,2.3062,2.0841,2.1569,2.3174,2.1103,2.0279,1.9863,1.7811,1.6978,1.6978,1.6978,1.6978,1.6978,1.6978,1.6978,1.6978,1.6978,1.6978,1.6978,1.6978,1.6978,1.6978,1.6978,1.6978,1.6978,1.6978,1.6978,1.6978,1.6978,1.6978,1.6978,1.6978,0.0,0.0,0.0,0.0,0.0,0.0,1.6978,1.6978,1.6978,0.0,0.0,0.0,0.0,0.0,0.0,0.0,0.0,1.6978,1.727,0.0,1.7419,1.7724,1.786,1.786,1.786,1.786,1.786,1.786,1.786,1.786,1.786,1.786,1.786,1.786,1.786,1.786,1.786,1.786,1.786,1.786,1.786,1.786,2.8419,2.8592,2.8592,2.8751,2.8831,2.8898,2.8898,2.8978,2.9112,2.9312,2.9513,2.9713,2.9913,2.9579,2.9419,0.0,2.982,3.002,0.0,3.0234,3.0234,3.0234,3.0234,3.0234,3.0234,3.0327,3.0421,3.0515,0.0,0.0,0.0,2.5828,2.4663,2.4573,2.438,2.3531,2.2764,2.4224,2.5127,2.5681,2.6325,2.6465,2.5934,2.5073,2.4353,2.3587,2.2761,2.2554,2.214,2.0079,1.9253,1.9044,1.7391,1.6978,1.6978,1.6978,1.6978,1.6978,1.6978,1.6978,1.6978,1.6978,1.6978,1.6978,1.6978,1.6978,1.6978,1.6978,1.6978,1.6978,1.6978,1.6978,1.6978,1.6978,0.0,0.0,0.0,0.0,0.0,0.0,0.0,1.6978,0.0,1.6978,0.0,0.0,0.0,0.0,0.0,0.0,0.0,0.0,1.727,0.0,1.7419,1.7724,1.786,1.786,1.786,1.786,1.786,1.786,1.786,1.786,1.786,1.786,1.786,1.786,1.786,1.786,1.786,1.786,1.786,1.786,1.786,1.786,2.9045,2.9045,2.9045,2.9045,2.9125,2.9245,2.9352,2.9459,2.9646,2.994,3.0127,3.0314,3.0501,3.0194,0.0,3.0234,3.0421,3.0595,3.0782,3.0795,3.0795,3.0795,3.0795,3.0795,3.0795,0.0,0.0,3.0955,3.069,3.046,3.0075,2.8331,2.7494,2.7739,2.7159,2.6515,2.5959,2.7255,2.8183,2.8544,2.8813,2.8716,2.8323,2.725,2.6487,2.6066,2.5245,2.4824,2.4412,2.2347,2.1518,2.1319,1.9871,1.9462,1.9052,1.7391,1.6978,1.6978,1.6978,1.6978,1.6978,1.6978,1.6978,1.6978,1.6978,1.6978,1.6978,1.6978,1.6978,1.6978,1.6978,1.6978,1.6978,1.6978,0.0,0.0,0.0,0.0,0.0,0.0,0.0,0.0,0.0,1.6978,0.0,0.0,0.0,0.0,0.0,0.0,0.0,1.6978,1.727,0.0,1.7419,1.7724,1.786,1.786,1.786,1.786,1.786,1.786,1.786,1.786,1.786,1.786,1.786,1.786,1.786,1.786,1.786,1.786,1.786,1.786,1.786,1.786,2.9098,2.9098,0.0,0.0,2.9366,0.0,2.9927,3.0207,3.0488,3.0755,3.0808,3.0822,3.0822,3.0835,3.0849,3.0849,0.0,0.0,0.0,3.0849,3.0849,3.0849,3.0849,0.0,3.0849,3.0849,3.0982,3.1249,3.153,3.1677,3.1704,2.9758,2.9717,3.1166,2.9396,2.9359,3.1031,3.1298,3.1014,3.0652,2.8641,2.8947,3.0202,2.8133,2.8552,3.0011,2.7929,2.7101,2.6896,2.4618,2.3794,2.3794,2.3587,2.3587,2.2761,1.8634,1.7398,1.7188,1.7188,1.7188,1.7188,1.7188,1.7398,1.7391,1.7391,1.7398,1.7188,1.7188,1.7188,1.6978,1.6978,1.6978,1.6978,1.6978,1.6978,1.6978,1.6978,0.0,0.0,0.0,0.0,0.0,0.0,1.6978,1.6978,0.0,0.0,0.0,0.0,0.0,1.6985,1.6992,1.727,1.7426,1.7439,1.7724,1.786,1.786,1.786,1.786,1.786,1.786,1.786,1.786,1.786,1.786,1.786,1.786,1.786,1.786,1.786,1.786,1.786,1.786,1.786,1.786,0.0,0.0,2.978,3.0007,3.01,3.0247,3.0541,3.0648,3.0715,3.0782,3.0982,3.1129,3.1129,3.133,3.1463,3.1463,3.1249,3.1223,3.145,3.1463,3.1463,3.1463,3.1463,3.1463,3.1463,3.1463,3.1503,3.157,3.1637,3.1593,3.1421,3.1216,3.1179,3.1086,3.1074,3.1031,3.131,3.0976,3.1327,3.1918,3.0772,3.0999,3.2008,3.0987,3.0999,3.1214,3.0392,2.9987,2.9569,2.7101,2.6066,2.5861,2.4206,2.3587,2.3381,2.2347,2.0903,1.9454,1.9454,1.9454,1.9454,1.9454,2.0696,2.1941,2.1941,2.0696,1.9454,1.9454,1.8222,1.6978,1.6978,1.6978,1.6978,1.6978,1.6978,1.6978,1.6978,0.0,0.0,0.0,1.6978,1.6978,1.6978,1.6978,1.6978,0.0,0.0,0.0,0.0,0.0,1.7032,1.7141,1.7324,1.7473,1.7595,1.7772,1.786,1.786,1.786,1.786,1.786,1.786,1.786,1.786,1.786,1.786,1.786,1.786,1.786,1.786,1.786,1.786,1.786,1.786,1.786,1.786,3.0287,3.0314,3.0368,3.0528,3.0555,3.0662,3.0942,3.0996,3.1036,3.1169,3.133,3.1423,3.1423,3.157,3.1664,3.1664,3.1517,3.149,3.1664,3.1664,3.1664,3.1664,3.1664,3.1664,3.1664,3.1664,3.173,3.1864,3.2011,3.1965,3.1917,3.2111,3.227,3.1959,3.2156,3.2314,3.239,3.199,3.208,3.2611,3.2021,3.2008,3.2209,3.1819,3.1819,3.1819,3.1416,3.1214,3.0809,2.9366,2.8552,2.8144,2.6896,2.6691,2.6691,2.6691,2.4412,2.1725,2.1725,2.1725,2.1725,2.1725,2.2761,2.3587,2.3587,2.2761,2.1518,2.0488,1.9245,1.8222,1.7188,1.6978,1.6978,1.6978,1.6978,1.6978,1.6978,1.6978,0.0,1.6978,1.6978,1.6978,1.6978,1.6978,1.6978,1.6978,0.0,0.0,1.6978,1.7039,1.7114,1.7188,1.7344,1.7494,1.765,1.7792,1.786,1.786,1.786,1.786,1.786,1.786,1.786,1.786,1.786,1.786,1.786,1.786,1.786,1.786,1.786,1.786,1.786,1.786,1.786,1.786,3.0742,3.0795,3.0808,3.0849,3.0862,3.0955,3.1249,3.1289,3.1383,3.1637,3.1664,3.169,3.173,3.173,3.1757,3.1797,3.1797,3.1784,3.1744,3.173,3.1757,3.1797,3.1797,3.1797,3.1797,3.1797,3.1917,3.2171,3.2425,3.2572,3.2612,3.2612,3.2759,3.304,3.304,3.3187,3.3414,3.3414,3.3013,3.2611,3.2611,3.241,3.2008,3.2008,3.2008,3.2008,3.2008,3.1617,3.1214,3.1214,3.0822,3.0416,3.0416,3.0214,3.0214,3.0214,2.752,2.4618,2.4206,2.4,2.4206,2.4412,2.4618,2.4618,2.4618,2.4412,2.3587,2.1725,2.0696,1.9662,1.7804,1.7188,1.6978,1.6978,1.6978,1.6978,1.6978,0.0,1.6978,1.6978,1.6978,1.6978,1.6978,1.6978,1.6978,1.6978,1.6978,0.0,0.0,1.7127,1.7216,1.7256,1.7385,1.7528,1.7684,1.7806,1.786,1.786,1.786,1.786,1.786,1.786,1.786,1.786,1.786,1.786,1.786,1.786,1.786,1.786,1.786,1.786,1.786,1.786,1.786,1.786,3.0782,3.0795,3.0862,3.1116,3.1156,3.1263,3.1557,3.1597,3.1623,3.1664,3.1664,3.1757,3.2011,3.2038,3.2131,3.2385,3.2412,3.2305,3.2051,3.2038,3.2144,3.2398,3.2412,3.2412,3.2412,3.2412,3.2438,3.2478,3.2519,3.2679,3.2906,3.2906,3.3066,3.3347,3.3347,3.3374,3.3414,3.3013,3.3013,3.3213,3.2812,3.2812,3.3213,3.3213,3.3213,3.3013,3.2611,3.241,3.2209,3.1819,3.1416,3.0822,3.0822,3.0619,3.0214,3.0214,2.9796,2.8767,2.6896,2.6476,2.6896,2.8756,2.9174,2.9174,2.9174,2.7725,2.6282,2.5861,2.2968,2.0279,1.9871,1.8222,1.6978,1.6978,1.6978,1.6978,0.0,0.0,1.6978,1.6978,1.6978,1.6978,1.6978,1.6978,1.6978,1.6978,1.6978,1.7032,1.7154,1.7182,1.7311,1.7568,1.7602,1.7684,1.7826,1.7846,1.786,1.786,1.786,1.786,1.786,1.786,1.786,1.786,1.786,1.786,1.786,1.786,1.786,1.786,1.786,1.786,1.786,1.786,1.786,1.786,3.1236,3.1263,3.1303,3.1436,3.1463,3.1517,3.165,3.1664,3.173,3.1877,3.1904,3.2011,3.2305,3.2345,3.2398,3.2532,3.2545,3.2559,3.2572,3.2425,3.2398,3.2532,3.2545,3.2545,3.2545,3.2692,3.2786,3.2786,3.2933,3.308,3.3213,3.3213,3.328,3.3414,3.3414,3.3414,3.3414,3.3213,3.3213,3.3414,3.3213,3.3213,3.3414,3.3414,3.3414,3.3414,3.3213,3.2812,3.2611,3.2008,3.1416,3.1012,3.0619,3.0416,3.0214,3.0214,3.0214,3.0011,2.8971,2.8756,2.8971,3.0011,3.0214,3.0214,3.0214,2.9389,2.7929,2.5656,2.3587,2.1319,1.9044,1.7601,1.6978,1.6978,1.6978,0.0,0.0,1.6978,1.6978,1.6978,1.6978,1.6978,1.6978,1.6978,1.6978,1.6978,1.7053,1.7121,1.7188,1.7351,1.75,1.765,1.7717,1.7792,1.786,1.786,1.786,1.786,1.786,1.786,1.786,1.786,1.786,1.786,1.786,1.786,1.786,1.786,1.786,1.786,1.786,1.786,1.786,1.786,1.786,1.786,3.1623,3.1664,3.1664,3.1664,3.1717,3.177,3.177,3.1824,3.1957,3.2171,3.2211,3.2318,3.2612,3.2652,3.2679,3.2746,3.2746,3.2839,3.3066,3.2866,3.2746,3.2746,3.2746,3.2746,3.2746,3.2959,3.308,3.308,3.3307,3.3414,3.3414,3.3414,3.3414,3.3414,3.3414,3.3414,3.3414,3.3414,3.3414,3.3414,3.3414,3.3414,3.3414,3.3414,3.3414,3.3414,3.3414,3.3213,3.2812,3.2209,3.1819,3.1012,3.0619,3.0416,3.0214,3.0214,3.0214,3.0214,3.0214,3.0214,3.0214,3.0214,3.0214,3.0214,3.0214,3.0214,2.9174,2.5861,2.4412,2.2554,1.9261,1.7601,1.6978,1.6978,0.0,0.0,0.0,1.6978,1.6978,1.6978,1.6978,1.6978,1.6978,1.6978,1.6992,1.7026,1.7127,1.7222,1.7297,1.7521,1.7663,1.7704,1.7812,1.786,1.786,1.786,1.786,1.786,1.786,1.786,1.786,1.786,1.786,1.786,1.786,1.786,1.786,1.786,1.786,1.786,1.786,1.786,1.786,1.786,1.786,1.786,3.1664,3.1664,3.1664,3.1664,3.1891,3.2064,3.2064,3.2305,3.2492,3.2505,3.2519,3.2625,3.2919,3.2946,3.3053,3.332,3.3347,3.336,3.3374,3.336,3.3347,3.3347,3.3347,3.3347,3.3347,3.3374,3.3374,3.3374,3.34,3.3414,3.3414,3.3414,3.3414,3.3414,3.3414,3.3414,3.3414,3.3414,3.3414,3.3414,3.3414,3.3414,3.3414,3.3414,3.3414,3.3414,3.3414,3.3414,3.3414,3.3213,3.2611,3.1819,3.1617,3.1012,3.0214,3.0214,3.0214,3.0214,3.0214,3.0214,3.0214,3.0214,3.0214,3.0214,3.0214,3.0214,3.0011,2.9796,2.6487,2.3587,2.3174,1.967,1.6978,1.6978,0.0,0.0,1.6978,1.6978,1.6978,1.6978,1.6978,1.6978,1.6978,1.6978,1.7032,1.7168,1.7188,1.7317,1.7602,1.7629,1.7704,1.7846,1.786,1.786,1.786,1.786,1.786,1.786,1.786,1.786,1.786,1.786,1.786,1.786,1.786,1.786,1.786,1.786,1.786,1.786,1.786,1.786,1.786,1.786,1.786,1.786,3.1904,3.1931,3.1998,3.2185,3.2305,3.2372,3.2372,3.2478,3.2612,3.2786,3.2812,3.2919,3.3213,3.324,3.3293,3.34,3.3414,3.3414,3.3414,3.3414,3.3414,3.3414,3.3414,3.3414,3.3414,3.3414,3.3414,3.3414,3.3414,3.3414,3.3414,3.3414,3.3414,3.3414,3.3414,3.3414,3.3414,3.3414,3.3414,3.3414,3.3414,3.3414,3.3414,3.3414,3.3414,3.3414,3.3414,3.3414,3.3414,3.3013,3.2611,3.2209,3.1806,3.1214,3.0619,3.0214,3.0214,3.0214,3.0214,3.0214,3.0214,3.0214,3.0214,3.0214,3.0214,3.0214,2.9796,2.8348,2.6896,2.4824,2.214,2.0288,1.8634,1.7188,0.0,1.6978,1.6978,1.6978,1.6978,1.6978,1.6978,1.6978,1.6978,1.706,1.7134,1.7188,1.7365,1.7528,1.765,1.7738,1.7812,1.786,1.786,1.786,1.786,1.786,1.786,1.786,1.786,1.786,1.786,1.786,1.786,1.786,1.786,1.786,1.786,1.786,1.786,1.786,1.786,1.786,1.786,1.786,1.786,1.786,3.2198,3.2238,3.2305,3.2505,3.2625,3.2679,3.2679,3.2759,3.2893,3.3093,3.312,3.3187,3.3387,3.3414,3.3414,3.3414,3.3414,3.3414,3.3414,3.3414,3.3414,3.3414,3.3414,3.3414,3.3414,3.3414,3.3414,3.3414,3.3414,3.3414,3.3414,3.3414,3.3414,3.3414,3.3414,3.3414,3.3414,3.3414,3.3414,3.3414,3.3414,3.3414,3.3414,3.3414,3.3414,3.3414,3.3414,3.3414,3.3414,3.3013,3.2812,3.2611,3.2209,3.1617,3.1012,3.0619,3.0416,3.0214,3.0214,3.0214,3.0214,3.0214,3.0214,3.0214,3.0214,3.0214,2.9796,2.8348,2.7316,2.5861,2.1933,2.0696,1.9662,1.7391,1.6978,1.6978,1.6978,1.6978,1.6978,1.6978,1.7019,1.7046,1.7046,1.7175,1.7283,1.7331,1.7528,1.767,1.7717,1.7812,1.786,1.786,1.786,1.786,1.786,1.786,1.786,1.786,1.786,1.786,1.786,1.786,1.786,1.786,1.786,1.786,1.786,1.786,1.786,1.786,1.786,1.786,1.786,1.786,1.786,1.786,3.2545,3.2545,3.2545,3.2559,3.2786,3.2986,3.2986,3.3227,3.3414,3.3414,3.3414,3.3414,3.3414,3.3414,3.3414,3.3414,3.3414,3.3414,3.3414,3.3414,3.3414,3.3414,3.3414,3.3414,3.3414,3.3414,3.3414,3.3414,3.3414,3.3414,3.3414,3.3414,3.3414,3.3414,3.3414,3.3414,3.3414,3.3414,3.3414,3.3414,3.3414,3.3414,3.3414,3.3414,3.3414,3.3414,3.3414,3.3414,3.3414,3.3414,3.3013,3.2611,3.2611,3.1806,3.1012,3.1012,3.0619,3.0214,3.0214,3.0214,3.0214,3.0214,3.0214,3.0214,3.0214,3.0214,3.0214,3.0214,2.8552,2.6271,2.4,2.1725,1.9662,1.7391,1.6978,1.6978,1.6978,1.6985,1.6985,1.6985,1.7107,1.7195,1.7195,1.7331,1.7487,1.7629,1.765,1.7717,1.786,1.786,1.786,1.786,1.786,1.786,1.786,1.786,1.786,1.786,1.786,1.786,1.786,1.786,1.786,1.786,1.786,1.786,1.786,1.786,1.786,1.786,1.786,1.786,1.786,1.786,1.786,1.786,3.2812,3.2853,3.2919,3.312,3.3227,3.328,3.328,3.336,3.3414,3.3414,3.3414,3.3414,3.3414,3.3414,3.3414,3.3414,3.3414,3.3414,3.3414,3.3414,3.3414,3.3414,3.3414,3.3414,3.3414,3.3414,3.3414,3.3414,3.3414,3.3414,3.3414,3.3414,3.3414,3.3414,3.3414,3.3414,3.3414,3.3414,3.3414,3.3414,3.3414,3.3414,3.3414,3.3414,3.3414,3.3414,3.3414,3.3414,3.3414,3.3414,3.3213,3.3013,3.2812,3.241,3.2021,3.1617,3.1416,3.1416,3.1416,3.1416,3.1214,3.0416,3.0214,3.0214,3.0214,3.0214,3.0214,3.0214,2.9593,2.8552,2.6271,2.4206,2.1933,1.9662,1.8013,1.6978,1.6978,1.7066,1.7127,1.7127,1.7263,1.7351,1.7351,1.7494,1.7602,1.765,1.7738,1.7812,1.786,1.786,1.786,1.786,1.786,1.786,1.786,1.786,1.786,1.786,1.786,1.786,1.786,1.786,1.786,1.786,1.786,1.786,1.786,1.786,1.786,1.786,1.786,1.786,1.786,1.786,1.786,1.786,3.312,3.3146,3.32,3.3387,3.3414,3.3414,3.3414,3.3414,3.3414,3.3414,3.3414,3.3414,3.3414,3.3414,3.3414,3.3414,3.3414,3.3414,3.3414,3.3414,3.3414,3.3414,3.3414,3.3414,3.3414,3.3414,3.3414,3.3414,3.3414,3.3414,3.3414,3.3414,3.3414,3.3414,3.3414,3.3414,3.3414,3.3414,3.3414,3.3414,3.3414,3.3414,3.3414,3.3414,3.3414,3.3414,3.3414,3.3414,3.3414,3.3414,3.3414,3.3414,3.3013,3.2812,3.2611,3.2209,3.2021,3.1819,3.1819,3.1819,3.1617,3.1012,3.0619,3.0416,3.0214,3.0214,3.0214,3.0214,3.0214,2.9593,2.7316,2.5861,2.3794,2.0903,1.9307,1.8107,1.7271,1.7188,1.7283,1.7283,1.7419,1.7507,1.7507,1.765,1.7738,1.7738,1.7812,1.786,1.786,1.786,1.786,1.786,1.786,1.786,1.786,1.786,1.786,1.786,1.786,1.786,1.786,1.786,1.786,1.786,1.786,1.786,1.786,1.786,1.786,1.786,1.786,1.786,1.786,1.786,1.786,1.786,3.3414,3.3414,3.3414,3.3414,3.3414,3.3414,3.3414,3.3414,3.3414,3.3414,3.3414,3.3414,3.3414,3.3414,3.3414,3.3414,3.3414,3.3414,3.3414,3.3414,3.3414,3.3414,3.3414,3.3414,3.3414,3.3414,3.3414,3.3414,3.3414,3.3414,3.3414,3.3414,3.3414,3.3414,3.3414,3.3414,3.3414,3.3414,3.3414,3.3414,3.3414,3.3414,3.3414,3.3414,3.3414,3.3414,3.3414,3.3414,3.3414,3.3414,3.3414,3.3414,3.3414,3.3013,3.2611,3.2611,3.241,3.2021,3.2021,3.2021,3.2008,3.1819,3.1416,3.1012,3.0416,3.0214,3.0214,3.0214,3.0214,2.9593,2.752,2.7122,2.5687,2.1544,2.0668,1.9734,1.7847,1.7559,1.7439,1.7439,1.7575,1.767,1.767,1.7792,1.786,1.786,1.786,1.786,1.786,1.786,1.786,1.786,1.786,1.786,1.786,1.786,1.786,1.786,1.786,1.786,1.786,1.786,1.786,1.786,1.786,1.786,1.786,1.786,1.786,1.786,1.786,1.786,1.786,1.786,1.786,1.786,3.3414,3.3414,3.3414,3.3414,3.3414,3.3414,3.3414,3.3414,3.3414,3.3414,3.3414,3.3414,3.3414,3.3414,3.3414,3.3414,3.3414,3.3414,3.3414,3.3414,3.3414,3.3414,3.3414,3.3414,3.3414,3.3414,3.3414,3.3414,3.3414,3.3414,3.3414,3.3414,3.3414,3.3414,3.3414,3.3414,3.3414,3.3414,3.3414,3.3414,3.3414,3.3414,3.3414,3.3414,3.3414,3.3414,3.3414,3.3414,3.3414,3.3414,3.3414,3.3414,3.3414,3.3414,3.3213,3.3213,3.3213,3.3013,3.3013,3.3013,3.3013,3.2611,3.241,3.2008,3.1617,3.1214,3.0822,3.0822,3.0416,3.0011,2.9593,2.829,2.6959,2.5913,2.2952,2.0546,2.0119,1.8568,1.7602,1.7602,1.7717,1.7812,1.7812,1.7846,1.786,1.786,1.786,1.786,1.786,1.786,1.786,1.786,1.786,1.786,1.786,1.786,1.786,1.786,1.786,1.786,1.786,1.786,1.786,1.786,1.786,1.786,1.786,1.786,1.786,1.786,1.786,1.786,1.786,1.786,1.786,1.786,3.3414,3.3414,3.3414,3.3414,3.3414,3.3414,3.3414,3.3414,3.3414,3.3414,3.3414,3.3414,3.3414,3.3414,3.3414,3.3414,3.3414,3.3414,3.3414,3.3414,3.3414,3.3414,3.3414,3.3414,3.3414,3.3414,3.3414,3.3414,3.3414,3.3414,3.3414,3.3414,3.3414,3.3414,3.3414,3.3414,3.3414,3.3414,3.3414,3.3414,3.3414,3.3414,3.3414,3.3414,3.3414,3.3414,3.3414,3.3414,3.3414,3.3414,3.3414,3.3414,3.3414,3.3414,3.3414,3.3414,3.3414,3.3414,3.3414,3.3414,3.3414,3.3013,3.3013,3.2812,3.2008,3.1416,3.1012,3.1012,3.0717,3.0407,3.0407,2.9571,2.8673,2.7621,2.4644,2.2225,2.116,1.9161,1.7758,1.7758,1.7812,1.786,1.786,1.786,1.786,1.786,1.786,1.786,1.786,1.786,1.786,1.786,1.786,1.786,1.786,1.786,1.786,1.786,1.786,1.786,1.786,1.786,1.786,1.786,1.786,1.786,1.786,1.786,1.786,1.786,1.786,1.786,1.786,1.786,1.786,1.786,3.3414,3.3414,3.3414,3.3414,3.3414,3.3414,3.3414,3.3414,3.3414,3.3414,3.3414,3.3414,3.3414,3.3414,3.3414,3.3414,3.3414,3.3414,3.3414,3.3414,3.3414,3.3414,3.3414,3.3414,3.3414,3.3414,3.3414,3.3414,3.3414,3.3414,3.3414,3.3414,3.3414,3.3414,3.3414,3.3414,3.3414,3.3414,3.3414,3.3414,3.3414,3.3414,3.3414,3.3414,3.3414,3.3414,3.3414,3.3414,3.3414,3.3414,3.3414,3.3414,3.3414,3.3414,3.3414,3.3414,3.3414,3.3414,3.3414,3.3414,3.3414,3.3414,3.3414,3.3213,3.2209,3.1617,3.1226,3.1276,3.1055,3.0624,3.066,3.089,3.042,2.8711,2.658,2.4364,2.1991,1.9966,1.8302,1.7867,1.786,1.786,1.786,1.786,1.786,1.786,1.786,1.786,1.786,1.786,1.786,1.786,1.786,1.786,1.786,1.786,1.786,1.786,1.786,1.786,1.786,1.786,1.786,1.786,1.786,1.786,1.786,1.786,1.786,1.786,1.786,1.786,1.786,1.786,1.786,1.786,3.3414,3.3414,3.3414,3.3414,3.3414,3.3414,3.3414,3.3414,3.3414,3.3414,3.3414,3.3414,3.3414,3.3414,3.3414,3.3414,3.3414,3.3414,3.3414,3.3414,3.3414,3.3414,3.3414,3.3414,3.3414,3.3414,3.3414,3.3414,3.3414,3.3414,3.3414,3.3414,3.3414,3.3414,3.3414,3.3414,3.3414,3.3414,3.3414,3.3414,3.3414,3.3414,3.3414,3.3414,3.3414,3.3414,3.3414,3.3414,3.3414,3.3414,3.3414,3.3414,3.3414,3.3414,3.3414,3.3414,3.3414,3.3414,3.3414,3.3414,3.3414,3.3414,3.3414,3.3414,3.3213,3.2812,3.2286,3.2124,3.1588,3.1289,3.0902,3.1155,3.1336,3.0903,2.9181,2.695,2.4571,2.2219,2.005,1.8074,1.786,1.786,1.786,1.786,1.786,1.786,1.786,1.786,1.786,1.786,1.786,1.786,1.786,1.786,1.786,1.786,1.786,1.786,1.786,1.786,1.786,1.786,1.786,1.786,1.786,1.786,1.786,1.786,1.786,1.786,1.786,1.786,1.786,1.786,1.786,1.786,3.3414,3.3414,3.3414,3.3414,3.3414,3.3414,3.3414,3.3414,3.3414,3.3414,3.3414,3.3414,3.3414,3.3414,3.3414,3.3414,3.3414,3.3414,3.3414,3.3414,3.3414,3.3414,3.3414,3.3414,3.3414,3.3414,3.3414,3.3414,3.3414,3.3414,3.3414,3.3414,3.3414,3.3414,3.3414,3.3414,3.3414,3.3414,3.3414,3.3414,3.3414,3.3414,3.3414,3.3414,3.3414,3.3414,3.3414,3.3414,3.3414,3.3414,3.3414,3.3414,3.3414,3.3414,3.3414,3.3414,3.3414,3.3414,3.3414,3.3414,3.3414,3.3414,3.3414,3.3414,3.3414,3.3346,3.3303,3.2812,3.248,3.2112,3.1819,3.1855,3.2038,3.1626,2.9754,2.7434,2.5052,2.2874,2.049,1.8074,1.786,1.786,1.786,1.786,1.786,1.786,1.786,1.786,1.786,1.786,1.786,1.786,1.786,1.786,1.786,1.786,1.786,1.786,1.786,1.786,1.786,1.786,1.786,1.786,1.786,1.786,1.786,1.786,1.786,1.786,1.786,1.786,1.786,1.786,1.786,1.786]}]]